[[{"header":{"parameterUnit":"m.s-1","parameterCategory":1,"la1":30.6,"la2":29.2853,"lo1":-89.7004,"lo2":-87.6739,"dy":0.0162,"dx":0.0183,"nx":112,"ny":82,"refTime":"2023-05-24T00:00:00:Z","depth":0,"parameterNumber":2,"parameterNumberName":"U-component_of_WINDS"},"data":[0.0,0.0,0.0,0.0,0.0,0.0,0.0,0.0,0.0,0.0,0.0,0.0,0.0,0.0,0.0,0.0,0.0,0.0,0.0,0.0,0.0,0.0,0.0,0.0,0.0,0.0,0.0,0.0,0.0,0.0,0.0,0.0,0.0,0.0,0.0,0.0,0.0,0.0,0.0,0.0,0.0,0.0,0.0,0.0,0.0,0.0,0.0,0.0,0.0,0.0,0.0,0.0,0.0,0.0,0.0,0.0,0.0,0.0,0.0,0.0,0.0,0.0,0.0,0.0,0.0,0.0,0.0,0.0,0.0,0.0,0.0,0.0,0.0,0.0,0.0,0.0,0.0,0.0,0.0,0.0,0.0,0.0,0.0,0.0,0.0,0.0,0.0,0.0,0.0,0.0,1.9914,2.1108,2.2253,2.2501,2.1419,2.0847,1.9649,1.7521,0.0,0.0,0.0,0.0,0.0,0.0,0.0,0.0,0.0,0.0,0.0,0.0,0.0,0.0,0.0,0.0,0.0,0.0,0.0,0.0,0.0,0.0,0.0,0.0,0.0,0.0,0.0,0.0,0.0,0.0,0.0,0.0,0.0,0.0,0.0,0.0,0.0,0.0,0.0,0.0,0.0,0.0,0.0,0.0,0.0,0.0,0.0,0.0,0.0,0.0,0.0,0.0,0.0,0.0,0.0,0.0,0.0,0.0,0.0,0.0,0.0,0.0,0.0,0.0,0.0,0.0,0.0,0.0,0.0,0.0,0.0,0.0,0.0,0.0,0.0,0.0,0.0,0.0,0.0,0.0,0.0,0.0,0.0,0.0,0.0,0.0,0.0,0.0,0.0,0.0,0.0,0.0,0.0,0.0,0.0,0.0,0.0,0.0,0.0,0.0,0.0,0.0,0.0,0.0,2.0393,2.1197,2.1915,2.1709,2.022,2.0003,1.9207,1.7534,0.0,0.0,0.0,0.0,0.0,0.0,0.0,0.0,0.0,0.0,0.0,0.0,0.0,0.0,0.0,0.0,0.0,0.0,0.0,0.0,0.0,0.0,0.0,0.0,0.0,0.0,0.0,0.0,0.0,0.0,0.0,0.0,0.0,0.0,0.0,0.0,0.0,0.0,0.0,0.0,0.0,0.0,0.0,0.0,0.0,0.0,0.0,0.0,0.0,0.0,0.0,0.0,0.0,0.0,0.0,0.0,0.0,0.0,0.0,0.0,0.0,0.0,0.0,0.0,0.0,0.0,0.0,0.0,0.0,0.0,0.0,0.0,0.0,0.0,0.0,0.0,0.0,0.0,0.0,0.0,0.0,0.0,0.0,0.0,0.0,0.0,0.0,0.0,0.0,0.0,0.0,0.0,0.0,0.0,0.0,0.0,0.0,0.0,0.0,0.0,0.0,0.0,0.0,1.9997,2.0684,2.0738,2.1388,2.1223,1.9926,1.9271,1.8618,1.7877,1.7551,0.0,0.0,0.0,0.0,0.0,0.0,0.0,0.0,0.0,0.0,0.0,0.0,0.0,0.0,0.0,0.0,0.0,0.0,0.0,0.0,0.0,0.0,0.0,0.0,0.0,0.0,0.0,0.0,0.0,0.0,0.0,0.0,0.0,0.0,0.0,0.0,0.0,0.0,0.0,0.0,0.0,0.0,0.0,0.0,0.0,0.0,0.0,0.0,0.0,0.0,0.0,0.0,0.0,0.0,0.0,0.0,0.0,0.0,0.0,0.0,0.0,0.0,0.0,0.0,0.0,0.0,0.0,0.0,0.0,0.0,0.0,0.0,0.0,0.0,0.0,0.0,0.0,0.0,0.0,0.0,0.0,0.0,0.0,0.0,0.0,0.0,0.0,0.0,0.0,0.0,0.0,0.0,0.0,0.0,0.0,0.0,0.0,0.0,0.0,0.0,0.0,0.0,2.0356,2.0869,2.04,2.0752,2.058,1.9535,1.8681,1.8154,1.8016,1.7739,0.0,0.0,0.0,0.0,0.0,0.0,0.0,0.0,0.0,0.0,0.0,0.0,0.0,0.0,0.0,0.0,0.0,0.0,0.0,0.0,0.0,0.0,0.0,0.0,0.0,0.0,0.0,0.0,0.0,0.0,0.0,0.0,0.0,0.0,0.0,0.0,0.0,0.0,0.0,0.0,0.0,0.0,0.0,0.0,0.0,0.0,0.0,0.0,0.0,0.0,0.0,0.0,0.0,0.0,0.0,0.0,0.0,0.0,0.0,0.0,0.0,0.0,0.0,0.0,0.0,0.0,0.0,0.0,0.0,0.0,0.0,0.0,0.0,0.0,0.0,0.0,0.0,0.0,0.0,0.0,0.0,0.0,0.0,0.0,0.0,0.0,0.0,0.0,0.0,0.0,0.0,0.0,0.0,0.0,0.0,0.0,0.0,0.0,0.0,0.0,0.0,0.0,2.0713,2.098,2.0441,2.0106,1.946,1.8402,1.8242,1.799,1.7476,1.789,0.0,0.0,0.0,0.0,0.0,0.0,0.0,0.0,0.0,0.0,0.0,0.0,0.0,0.0,0.0,0.0,0.0,0.0,0.0,0.0,0.0,0.0,0.0,0.0,0.0,0.0,0.0,0.0,0.0,0.0,0.0,0.0,0.0,0.0,0.0,0.0,0.0,0.0,0.0,0.0,0.0,0.0,0.0,0.0,0.0,0.0,0.0,0.0,0.0,0.0,0.0,0.0,0.0,0.0,0.0,0.0,0.0,0.0,0.0,0.0,0.0,0.0,0.0,0.0,0.0,0.0,0.0,0.0,0.0,0.0,0.0,0.0,0.0,0.0,0.0,0.0,0.0,0.0,0.0,0.0,0.0,0.0,0.0,0.0,0.0,0.0,0.0,0.0,0.0,0.0,0.0,0.0,0.0,0.0,0.0,0.0,0.0,0.0,0.0,0.0,0.0,0.0,2.0274,2.0251,0.0,1.914,1.8864,1.7785,1.8003,1.8116,1.7903,0.0,0.0,0.0,0.0,0.0,0.0,0.0,0.0,0.0,0.0,0.0,0.0,0.0,0.0,0.0,0.0,0.0,0.0,0.0,0.0,0.0,0.0,0.0,0.0,0.0,0.0,0.0,0.0,0.0,0.0,0.0,0.0,0.0,0.0,0.0,0.0,0.0,0.0,0.0,0.0,0.0,0.0,0.0,0.0,0.0,0.0,0.0,0.0,0.0,0.0,0.0,0.0,0.0,0.0,0.0,0.0,0.0,0.0,0.0,0.0,0.0,0.0,0.0,0.0,0.0,0.0,0.0,0.0,0.0,0.0,0.0,0.0,0.0,0.0,0.0,0.0,0.0,0.0,0.0,0.0,0.0,0.0,0.0,0.0,0.0,0.0,0.0,0.0,0.0,0.0,0.0,0.0,0.0,0.0,0.0,0.0,0.0,0.0,0.0,0.0,0.0,0.0,1.9753,1.9974,1.9731,0.0,1.8384,1.8177,1.7458,1.789,1.8204,1.8204,0.0,0.0,0.0,0.0,0.0,0.0,0.0,0.0,0.0,0.0,0.0,0.0,0.0,0.0,0.0,0.0,0.0,0.0,0.0,0.0,0.0,0.0,0.0,0.0,0.0,0.0,0.0,0.0,0.0,0.0,0.0,0.0,0.0,0.0,0.0,0.0,0.0,0.0,0.0,0.0,0.0,0.0,0.0,0.0,0.0,0.0,0.0,0.0,0.0,0.0,0.0,0.0,0.0,0.0,0.0,0.0,0.0,0.0,0.0,0.0,0.0,0.0,0.0,0.0,0.0,0.0,0.0,0.0,0.0,0.0,0.0,0.0,0.0,0.0,0.0,0.0,0.0,0.0,0.0,0.0,0.0,0.0,0.0,0.0,0.0,0.0,0.0,0.0,0.0,0.0,0.0,0.0,0.0,0.0,0.0,0.0,0.0,0.0,0.0,0.0,0.0,0.0,2.0385,1.9997,1.9525,1.8871,1.7964,1.7375,1.7388,1.789,1.8204,0.0,0.0,0.0,0.0,0.0,0.0,0.0,0.0,0.0,0.0,0.0,0.0,0.0,0.0,0.0,0.0,0.0,0.0,0.0,0.0,0.0,0.0,0.0,0.0,0.0,0.0,0.0,0.0,0.0,0.0,0.0,0.0,0.0,0.0,0.0,0.0,0.0,0.0,0.0,0.0,0.0,0.0,0.0,0.0,0.0,0.0,0.0,0.0,0.0,0.0,0.0,0.0,0.0,0.0,0.0,0.0,0.0,0.0,0.0,0.0,0.0,0.0,0.0,0.0,0.0,0.0,0.0,0.0,0.0,0.0,0.0,0.0,0.0,0.0,0.0,0.0,0.0,0.0,0.0,0.0,0.0,0.0,0.0,0.0,0.0,0.0,0.0,0.0,0.0,0.0,0.0,0.0,0.0,0.0,0.0,0.0,0.0,0.0,0.0,0.0,0.0,0.0,0.0,2.004,1.9536,1.8845,1.7893,1.7188,1.6936,1.735,1.789,1.8367,1.8769,0.0,0.0,0.0,0.0,0.0,0.0,0.0,0.0,0.0,0.0,0.0,0.0,0.0,0.0,0.0,0.0,0.0,0.0,0.0,0.0,0.0,0.0,0.0,0.0,0.0,0.0,0.0,0.0,0.0,0.0,0.0,0.0,0.0,0.0,0.0,0.0,0.0,0.0,0.0,0.0,0.0,0.0,0.0,0.0,0.0,0.0,0.0,0.0,0.0,0.0,0.0,0.0,0.0,0.0,0.0,0.0,0.0,0.0,0.0,0.0,0.0,0.0,0.0,0.0,0.0,0.0,0.0,0.0,0.0,0.0,0.0,0.0,0.0,0.0,0.0,0.0,0.0,0.0,0.0,0.0,0.0,0.0,0.0,0.0,0.0,0.0,0.0,0.0,0.0,0.0,0.0,0.0,0.0,0.0,0.0,0.0,0.0,0.0,0.0,0.0,0.0,0.0,2.0197,1.946,1.8759,1.8125,1.7526,1.7338,1.7677,1.8216,1.8681,1.8958,0.0,0.0,0.0,0.0,0.0,0.0,0.0,0.0,0.0,0.0,0.0,0.0,0.0,0.0,0.0,0.0,0.0,0.0,0.0,0.0,0.0,0.0,0.0,0.0,0.0,0.0,0.0,0.0,0.0,0.0,0.0,0.0,0.0,0.0,0.0,0.0,0.0,0.0,0.0,0.0,0.0,0.0,0.0,0.0,0.0,0.0,0.0,0.0,0.0,0.0,0.0,0.0,0.0,0.0,0.0,0.0,0.0,0.0,0.0,0.0,0.0,0.0,0.0,0.0,0.0,0.0,0.0,0.0,0.0,0.0,0.0,0.0,0.0,0.0,0.0,0.0,0.0,0.0,0.0,0.0,0.0,0.0,0.0,0.0,0.0,0.0,0.0,0.0,0.0,0.0,0.0,0.0,0.0,0.0,0.0,0.0,0.0,0.0,0.0,0.0,0.0,0.0,2.051,1.9646,1.8983,1.8983,1.853,1.8229,1.8279,1.8744,1.8995,1.9046,0.0,0.0,0.0,0.0,0.0,0.0,0.0,0.0,0.0,0.0,0.0,0.0,0.0,0.0,0.0,0.0,0.0,0.0,0.0,0.0,0.0,0.0,0.0,0.0,0.0,0.0,0.0,0.0,0.0,0.0,0.0,0.0,0.0,0.0,0.0,0.0,0.0,0.0,0.0,0.0,0.0,0.0,0.0,0.0,0.0,0.0,0.0,0.0,0.0,0.0,0.0,0.0,0.0,0.0,0.0,0.0,0.0,0.0,0.0,0.0,2.6002,0.0,0.0,0.0,0.0,0.0,0.0,0.0,0.0,0.0,0.0,0.0,0.0,0.0,0.0,0.0,0.0,0.0,0.0,0.0,0.0,0.0,0.0,0.0,0.0,0.0,0.0,0.0,0.0,0.0,0.0,0.0,0.0,0.0,0.0,0.0,0.0,0.0,0.0,0.0,0.0,0.0,2.0003,1.9397,1.8983,1.8983,1.853,1.838,1.8819,1.8908,1.9196,1.961,1.9748,0.0,0.0,0.0,0.0,0.0,0.0,0.0,0.0,0.0,0.0,0.0,0.0,0.0,0.0,0.0,0.0,0.0,0.0,0.0,0.0,0.0,0.0,0.0,0.0,0.0,0.0,0.0,0.0,0.0,0.0,0.0,0.0,0.0,0.0,0.0,0.0,0.0,0.0,0.0,0.0,0.0,0.0,0.0,0.0,0.0,0.0,0.0,0.0,0.0,0.0,0.0,0.0,0.0,0.0,0.0,0.0,0.0,0.0,0.0,0.0,2.6749,0.0,0.0,0.0,0.0,0.0,0.0,0.0,0.0,0.0,0.0,0.0,0.0,0.0,0.0,0.0,0.0,0.0,0.0,0.0,0.0,0.0,0.0,0.0,0.0,0.0,0.0,0.0,0.0,0.0,0.0,0.0,0.0,0.0,0.0,0.0,0.0,0.0,0.0,0.0,0.0,2.0227,1.9748,1.951,1.9786,1.9309,1.9083,1.9371,1.9397,1.951,1.9786,1.9798,0.0,0.0,0.0,0.0,0.0,0.0,0.0,0.0,0.0,0.0,0.0,0.0,0.0,0.0,0.0,0.0,0.0,0.0,0.0,0.0,0.0,0.0,0.0,0.0,0.0,0.0,0.0,0.0,0.0,0.0,0.0,0.0,0.0,0.0,0.0,0.0,0.0,0.0,0.0,0.0,0.0,0.0,0.0,0.0,0.0,0.0,0.0,0.0,0.0,0.0,0.0,0.0,0.0,2.7467,2.7707,2.7689,2.8074,2.7689,2.6749,2.7283,2.7458,2.7288,0.0,0.0,0.0,0.0,0.0,0.0,0.0,0.0,0.0,0.0,0.0,0.0,0.0,0.0,0.0,0.0,0.0,0.0,0.0,0.0,0.0,0.0,0.0,0.0,0.0,2.5854,2.5607,0.0,0.0,0.0,0.0,0.0,0.0,0.0,0.0,0.0,0.0,0.0,0.0,2.074,2.0388,2.0238,2.068,2.0238,1.9911,1.9811,1.9798,1.9798,1.9798,1.9798,1.9798,0.0,0.0,0.0,0.0,0.0,0.0,0.0,0.0,0.0,0.0,0.0,0.0,0.0,0.0,0.0,0.0,0.0,0.0,0.0,0.0,0.0,0.0,0.0,0.0,0.0,0.0,0.0,0.0,0.0,0.0,0.0,0.0,2.413,2.4218,0.0,0.0,0.0,0.0,0.0,0.0,0.0,0.0,0.0,0.0,0.0,0.0,0.0,2.6356,2.6901,2.7476,2.8095,2.8773,2.9345,2.9651,2.9651,2.9707,2.9351,2.8729,2.8782,0.0,2.6272,2.6952,0.0,0.0,0.0,0.0,0.0,0.0,0.0,0.0,0.0,0.0,0.0,0.0,0.0,0.0,0.0,0.0,0.0,0.0,0.0,0.0,0.0,0.0,2.7455,2.646,2.6703,2.684,0.0,2.5497,2.521,2.4665,0.0,0.0,0.0,0.0,0.0,0.0,0.0,0.0,2.1305,2.1317,2.1117,2.0756,2.0655,2.0351,1.9849,1.9798,1.9798,1.9798,1.9798,1.9798,1.9798,1.9798,0.0,0.0,0.0,0.0,0.0,0.0,0.0,0.0,0.0,0.0,0.0,0.0,0.0,0.0,0.0,0.0,0.0,0.0,0.0,0.0,0.0,0.0,0.0,0.0,0.0,0.0,0.0,0.0,0.0,2.397,2.4412,2.4734,2.5091,2.5564,0.0,0.0,0.0,0.0,0.0,0.0,0.0,0.0,0.0,2.8307,2.8689,2.9028,2.9307,2.9587,3.0072,3.0719,3.0984,3.1117,3.1117,3.1117,3.0558,2.9587,2.9587,2.8843,2.7637,2.7575,2.7668,2.7844,0.0,0.0,0.0,0.0,0.0,2.8641,2.905,2.9098,0.0,0.0,0.0,0.0,0.0,0.0,0.0,0.0,0.0,0.0,0.0,0.0,0.0,2.7467,2.7345,2.7108,2.6497,2.5912,2.5292,0.0,2.39,2.3373,2.2791,0.0,0.0,0.0,0.0,2.133,2.1882,2.1681,2.1518,2.1581,2.1317,2.0903,2.0338,2.0288,2.015,1.9823,1.9798,1.9798,1.9798,1.9798,1.9798,0.0,0.0,0.0,0.0,0.0,0.0,0.0,0.0,0.0,0.0,0.0,0.0,0.0,0.0,0.0,0.0,0.0,0.0,0.0,0.0,0.0,0.0,0.0,0.0,0.0,0.0,0.0,0.0,2.4176,2.4852,2.5066,2.5565,2.6197,0.0,0.0,0.0,0.0,0.0,0.0,2.8432,2.8926,2.9349,2.9779,3.0493,3.0826,3.0801,3.0801,3.1242,3.2067,3.2067,3.2207,3.2346,3.2346,3.1731,3.0631,3.0456,2.9973,2.9285,2.836,2.8143,2.8278,2.7766,2.7774,2.8168,2.8779,2.9,2.9081,2.9615,2.9766,2.9722,2.9722,0.0,2.9536,2.8962,0.0,0.0,0.0,0.0,2.8323,2.8381,2.813,2.7806,2.8026,2.7556,2.7046,2.6863,2.6134,2.5245,0.0,2.3906,2.344,2.2721,0.0,0.0,0.0,0.0,2.185,2.2389,2.2113,2.1963,2.2284,2.1761,2.1288,2.0928,2.0769,2.0466,2.0062,2.0162,2.0162,2.0024,2.0024,2.0024,2.0024,0.0,0.0,0.0,0.0,0.0,0.0,0.0,0.0,0.0,0.0,0.0,0.0,0.0,0.0,0.0,0.0,0.0,0.0,0.0,0.0,0.0,0.0,0.0,0.0,0.0,0.0,0.0,0.0,0.0,2.4892,2.6549,0.0,0.0,0.0,0.0,2.895,2.8756,2.888,2.9459,2.9434,2.9351,2.9265,3.0002,3.0373,3.0215,3.0228,3.0924,3.2283,3.2283,3.2716,3.3434,3.3434,3.3071,3.2338,3.17,3.1061,3.0395,2.9025,2.8561,2.8713,2.8777,2.8933,2.9191,2.9597,2.9745,2.9745,2.9793,2.9677,2.9515,2.9515,2.9335,2.9121,2.909,2.881,0.0,0.0,2.8665,2.7954,2.8627,2.8268,2.7734,2.7703,2.7284,2.6807,2.6807,2.5966,2.5217,0.0,2.3976,2.3171,2.3469,0.0,2.1743,2.2504,2.2328,2.225,2.2797,2.2847,2.2695,2.2372,2.1734,2.1372,2.1437,2.088,2.0536,2.0652,2.1117,2.1167,2.0706,2.0668,2.0668,2.0668,2.0075,0.0,0.0,0.0,0.0,0.0,0.0,0.0,0.0,0.0,0.0,0.0,0.0,0.0,0.0,0.0,0.0,0.0,0.0,0.0,0.0,0.0,0.0,0.0,0.0,0.0,0.0,0.0,0.0,2.7287,2.8693,0.0,2.9361,2.9536,2.9813,3.0046,2.9985,3.0194,3.0812,3.1582,3.1997,3.1999,3.3064,3.3121,3.2152,3.2664,3.2899,3.289,3.3414,3.3782,3.408,3.408,3.3732,3.3108,3.2875,3.2179,3.109,3.0236,2.9566,2.9107,2.9398,2.9747,3.011,3.0529,3.0688,3.0624,3.0225,3.0019,2.9863,2.9402,2.9484,2.9754,2.9451,2.9552,2.9581,2.8733,2.8163,2.7879,2.8068,2.7425,2.7006,2.7811,2.7214,2.6408,2.6235,2.527,2.4368,2.4208,2.3619,2.3157,2.304,2.2513,2.2223,2.2628,2.2578,2.259,2.2775,2.2848,2.2701,2.2116,2.1898,2.1499,2.0807,2.0878,2.071,1.9956,2.092,2.1225,2.058,2.0971,2.1029,2.0731,2.0464,2.0175,0.0,0.0,0.0,0.0,0.0,0.0,0.0,0.0,0.0,0.0,0.0,0.0,0.0,0.0,0.0,0.0,0.0,0.0,0.0,0.0,0.0,0.0,0.0,0.0,0.0,0.0,2.8664,2.9247,3.0451,3.1235,3.1235,3.1424,3.1565,3.1438,3.1382,3.1505,3.1842,3.2737,3.2961,3.2541,3.3591,3.3631,3.242,3.2747,3.296,3.3213,3.3227,3.3604,3.4414,3.4113,3.3835,3.3456,3.3238,3.2527,3.1467,3.0843,3.0251,2.9717,2.9738,2.997,3.0335,3.0775,3.1058,3.1112,3.0417,2.9974,2.9627,2.9501,2.9706,2.997,2.9894,3.0048,3.0029,2.8872,2.8332,2.8082,2.7945,2.7335,2.6946,2.7563,2.6932,2.6175,2.6217,2.511,2.4098,2.3932,2.3406,2.2871,2.2616,2.2494,2.2494,2.2555,2.2555,2.2616,2.269,2.28,2.2592,2.2002,2.1865,2.1413,2.0653,2.0804,2.0572,1.9787,2.0748,2.1195,2.078,2.1001,2.1043,2.0953,2.0819,2.0564,2.0363,0.0,0.0,0.0,0.0,0.0,0.0,0.0,0.0,0.0,0.0,0.0,0.0,0.0,0.0,0.0,0.0,0.0,0.0,0.0,0.0,0.0,0.0,0.0,2.6982,2.855,2.9987,3.0669,3.1874,3.2643,3.2687,3.3238,3.3485,3.3199,3.3051,3.289,3.262,3.2659,3.2029,3.0738,3.1423,3.1496,3.0921,3.0216,3.0934,3.3073,3.1696,3.2132,3.4346,3.3589,3.3331,3.3427,3.2817,3.215,3.1467,3.0858,3.0597,3.0511,2.9672,2.9579,3.0015,3.0397,3.0822,3.1094,3.0432,2.9452,2.8714,2.9816,2.9922,2.9735,3.0335,3.021,2.987,2.9721,2.9142,2.8498,2.8194,2.7899,2.7515,2.6945,2.6362,2.6077,2.6627,2.5564,2.4425,2.4487,2.338,2.2407,2.2259,2.2494,2.2555,2.2259,2.2309,0.0,2.2702,2.269,2.2543,2.2137,2.1439,2.106,2.106,2.0484,2.0156,2.0239,2.0797,2.1156,2.1308,2.0694,2.07,2.1518,2.102,2.0953,2.1493,0.0,0.0,0.0,0.0,0.0,0.0,0.0,0.0,0.0,0.0,0.0,0.0,0.0,0.0,0.0,0.0,0.0,0.0,0.0,0.0,0.0,0.0,2.9726,2.9552,3.1192,3.2991,3.4545,3.5038,3.5633,3.6548,3.6402,3.5928,3.5236,3.518,3.4609,3.3493,3.3817,3.3712,3.2879,3.3175,3.2728,3.1522,3.1492,3.1502,3.1549,3.2277,3.2932,3.352,3.3894,3.385,3.3456,3.3282,3.2571,3.1511,3.1322,3.0988,3.0598,3.0718,3.08,3.0941,3.1389,3.1289,3.0968,3.0784,2.9852,2.8931,2.9735,2.9883,2.987,3.0217,3.0425,3.0249,2.8756,2.8032,2.746,2.6736,2.6448,2.6457,2.6755,2.6687,2.6485,2.6281,2.5618,2.4937,2.4569,2.3931,2.3152,2.2318,2.2259,2.2321,2.2197,2.2309,0.0,2.2904,2.2464,2.1969,2.164,2.0891,2.0172,1.9715,1.9911,1.9912,1.9468,2.047,2.1129,2.1167,2.1466,2.1777,2.2096,2.1543,2.1343,0.0,0.0,0.0,0.0,0.0,0.0,0.0,0.0,0.0,0.0,0.0,0.0,0.0,0.0,0.0,0.0,0.0,0.0,0.0,0.0,0.0,0.0,3.0698,3.2063,3.2861,3.3949,3.527,3.6896,3.7346,3.7912,3.8899,3.8361,3.7515,3.6688,3.6042,3.5103,3.3813,3.3973,3.3763,3.3079,3.2922,3.2515,3.168,3.136,3.122,3.1267,3.1915,3.2349,3.2648,3.352,3.355,0.0,3.3324,3.289,3.1917,3.1642,3.1293,0.0,0.0,0.0,0.0,0.0,3.1455,3.0879,3.0754,2.9913,2.8988,2.9699,2.9784,2.9722,3.0103,3.0397,3.0259,2.8764,2.8205,2.7823,2.693,2.6647,2.6687,2.6796,2.6823,2.6708,2.644,2.5973,2.5459,2.5003,0.0,0.0,2.2991,2.2666,2.245,2.2221,2.249,2.287,2.3198,2.301,2.2662,2.1957,2.1218,2.0413,1.9489,1.9568,0.0,0.0,0.0,2.0355,2.0677,2.1404,0.0,0.0,0.0,2.2071,2.2548,0.0,0.0,0.0,2.2975,2.3025,0.0,0.0,0.0,0.0,0.0,0.0,0.0,0.0,0.0,0.0,0.0,0.0,0.0,0.0,0.0,0.0,3.289,3.4399,3.6099,3.6548,3.707,3.8275,3.8884,3.9416,4.0061,3.9325,3.8367,3.7456,3.6055,3.4857,3.3897,0.0,0.0,0.0,0.0,3.1377,3.163,3.0367,3.0279,3.1502,3.1044,3.1119,3.1796,3.272,3.2821,3.2382,3.3111,3.3108,3.2469,3.1874,3.1584,3.1453,3.0829,3.0866,3.1278,3.1595,3.1332,3.0764,3.047,0.0,0.0,2.9651,2.9581,2.933,3.0021,3.0208,3.0025,2.9192,2.9002,2.8724,2.7822,2.7664,2.7583,2.7054,2.6911,2.6916,2.6905,2.6492,2.5965,2.5498,2.4957,2.4446,2.3941,2.3424,2.2907,2.2438,2.2889,2.3396,2.3585,2.3965,2.3827,2.2753,0.0,0.0,1.9969,1.9458,1.922,1.922,1.9287,1.961,2.0205,2.1098,2.1801,2.2282,2.2466,2.3088,2.4092,2.4092,2.4343,2.4808,2.4318,2.4092,0.0,0.0,0.0,0.0,0.0,0.0,0.0,0.0,0.0,0.0,0.0,0.0,0.0,0.0,0.0,3.2759,3.4588,3.5927,3.653,3.776,3.8913,3.9639,3.9421,3.9513,4.0434,3.99,3.8849,3.7219,3.6227,3.5107,3.3644,3.2934,0.0,3.2401,3.145,3.0964,3.1004,2.9782,2.9365,2.9651,0.0,0.0,3.1368,3.2146,3.2612,3.2762,3.2978,3.2832,3.2513,3.2382,3.2004,3.1453,3.0829,3.0642,3.0747,3.0807,3.0615,3.0274,3.0214,2.9468,2.8743,2.944,2.9238,2.888,2.9515,2.9526,0.0,2.8567,2.8195,2.7808,2.7149,2.7352,2.7678,2.7556,2.7578,2.7485,2.7048,2.6536,2.6002,2.5436,2.5226,2.4987,2.4458,2.3953,2.358,2.3484,2.3675,2.3947,2.4237,2.3929,2.3479,2.2933,2.211,2.1268,2.0367,2.0213,2.0162,2.0162,2.0722,2.1069,2.1207,2.2503,2.3215,2.3323,2.3974,2.4443,2.4669,2.4669,2.472,2.482,2.4707,2.4669,0.0,0.0,0.0,0.0,0.0,0.0,0.0,0.0,0.0,0.0,0.0,2.8594,0.0,0.0,3.3021,3.4632,3.5811,3.6646,3.7068,3.7849,3.8635,3.9254,3.9267,3.9389,3.9872,3.9011,3.7954,3.7079,3.594,3.4864,3.3798,3.3177,3.2683,3.24,3.1589,3.1048,3.0778,2.9954,2.9322,2.8961,3.0165,3.062,3.0532,3.2087,3.2736,3.2514,3.2769,3.2739,3.2397,3.1947,3.144,3.1018,3.0517,3.0341,3.0341,3.0158,2.9974,2.9803,2.9665,2.9268,2.8872,2.9066,2.8878,2.8685,2.9002,2.8972,2.8789,2.8488,2.828,2.8085,2.7786,2.7922,2.8153,2.8153,2.7969,2.7643,2.7108,2.6564,2.6013,2.5453,2.5312,2.5216,2.4963,2.4711,2.4362,2.3845,2.4111,2.4444,2.4631,2.4667,2.4339,2.3466,2.2823,2.1958,2.0834,2.0555,2.042,2.042,2.0776,2.1129,2.149,2.2548,2.329,2.3556,2.4394,2.4946,2.5209,2.5209,2.536,2.5636,2.5636,2.5485,0.0,0.0,0.0,0.0,0.0,0.0,0.0,2.6721,2.7229,2.9044,3.0031,3.1032,3.26,3.3854,3.5016,3.6158,3.6601,3.6888,3.7323,3.7457,3.7642,3.8154,3.8664,3.8852,3.8539,3.7503,3.6772,3.6599,3.5295,3.4372,3.3943,3.3293,3.2754,3.2313,3.1675,3.1186,3.0854,3.0208,2.9577,2.8882,3.033,3.0572,2.9858,3.1942,3.2618,3.2245,3.2818,3.289,3.2408,3.1604,3.1075,3.0621,3.0154,2.9988,2.9865,2.9665,2.954,2.9477,2.9162,2.9035,2.8972,2.8716,2.8587,2.8587,2.8587,2.8587,2.8587,2.8587,2.8587,2.8587,2.8587,2.8587,2.8587,2.8587,2.8118,2.751,2.7108,2.6496,2.5873,2.5382,2.5312,2.5312,2.5312,2.5312,2.5023,2.4194,2.4558,2.4893,2.4961,2.5489,2.5465,2.4215,2.3693,2.2811,2.1397,2.0907,2.069,2.069,2.069,2.0906,2.1549,2.2419,2.3166,2.3665,2.4649,2.5347,2.5762,2.5762,2.6,2.6533,2.6634,2.6364,2.4786,2.4694,2.4776,2.5465,2.5727,2.6585,0.0,3.0031,3.0437,3.1801,3.305,3.3949,3.4167,3.4949,3.5812,3.6542,3.6793,3.6844,3.6549,3.685,3.6943,3.6647,3.7254,3.7222,3.5983,3.6122,3.5935,3.5071,3.4206,3.3691,3.363,3.249,3.1809,3.1761,3.1231,3.0929,3.0881,3.035,2.982,2.9289,2.9979,3.0272,3.0241,3.1071,3.1882,3.269,3.3408,3.3357,3.2787,3.2493,3.1815,3.084,3.0001,2.9477,2.9226,2.9477,2.9415,2.9162,2.9099,2.8908,2.8651,2.8587,2.8587,2.8587,2.8587,2.8587,2.8587,2.8587,2.8587,2.8587,2.8587,2.8587,2.8587,2.8587,2.7855,2.704,2.704,2.6139,2.5382,2.5312,2.5312,2.5312,2.5312,2.5312,2.5264,2.5155,2.5192,2.5298,2.5521,2.5721,2.5618,2.4933,2.4362,2.3385,2.1876,2.1683,2.1652,2.1652,2.1652,2.1652,2.1728,2.3161,2.3948,2.4019,2.5538,2.637,2.6433,2.6433,2.6402,2.6533,2.6967,2.7155,2.4462,2.4904,2.5721,2.6698,2.754,2.8683,3.0502,3.1154,3.1551,3.2305,3.3917,3.5167,3.5079,3.5812,3.6722,0.0,3.7141,3.674,3.6874,3.6452,3.5609,3.4047,3.4339,3.4792,3.5232,3.4463,3.3973,3.3959,3.3591,3.3325,3.3022,3.2485,3.1997,3.1673,3.1444,3.1192,3.0879,3.0651,3.029,2.9749,3.0388,3.0735,3.0804,3.1479,3.1951,3.2206,3.2277,3.233,3.2297,3.1618,3.119,3.094,2.9967,2.9415,2.9099,2.9035,2.8908,2.878,2.878,2.8716,2.8587,2.8587,2.8587,2.8587,2.8587,2.8587,2.8587,2.8587,2.8587,2.8587,2.8587,2.8587,2.8587,2.8587,2.7776,2.6973,2.6973,2.607,2.5312,2.5312,2.5312,2.5312,2.5312,2.5312,2.5408,2.5721,2.5575,2.5523,2.5606,2.591,2.5828,2.5229,2.4143,2.3202,2.2553,2.2101,2.1807,2.1807,2.1807,2.1807,2.1807,2.3254,2.4108,2.4108,2.5652,2.6615,2.6942,2.6942,2.7105,2.7419,2.7657,2.7934,2.408,2.4994,2.6428,2.747,2.8816,3.0131,3.1295,3.1817,3.2273,3.2622,3.4053,3.5269,3.5218,3.5878,3.6632,3.7565,3.6874,3.6289,3.6566,3.5878,3.456,3.252,3.2264,3.2681,3.3914,3.2784,3.2274,3.2803,3.2839,3.2743,3.2515,3.2358,3.2082,3.1673,3.1661,3.148,3.1096,3.1096,3.0759,3.0086,3.0959,3.1148,3.0919,3.183,3.2082,3.1871,3.1566,3.164,3.1825,3.1087,3.0833,3.0878,3.0031,2.9475,2.9141,2.8784,2.8587,2.8587,2.8587,2.8587,2.8587,2.8587,2.8587,2.8587,2.8587,2.8587,2.8587,2.8587,2.8587,2.8587,2.8587,2.8587,2.8587,2.8587,2.7776,2.6973,2.6973,2.607,2.5312,2.5312,2.5312,2.536,2.5504,2.5528,2.5709,2.625,2.6154,2.5995,2.5849,2.6079,2.598,2.5382,2.4299,2.3434,2.3075,2.2478,2.2025,2.1807,2.1921,2.207,2.2355,2.3724,2.4607,2.49,2.6233,2.7105,2.7507,2.7507,2.772,2.8109,2.826,2.8549,2.4095,2.5216,2.6775,2.7677,2.8812,3.0144,3.1937,3.2701,3.3063,3.3503,3.3909,3.4243,3.432,3.4485,3.4906,3.5493,3.5661,3.5467,3.4908,3.4808,3.4339,3.3019,3.1947,3.1261,0.0,3.1028,3.1144,3.1673,3.1709,3.1949,3.2466,3.1985,3.1685,3.1661,3.1661,3.1661,3.1637,3.1637,3.112,3.0086,3.1348,3.1327,3.0343,3.1643,3.2169,3.2187,3.1928,3.1806,3.1764,3.1481,3.1216,3.0812,3.0204,2.9772,2.9454,2.8804,2.8587,2.8587,2.8587,2.8587,2.8587,2.8587,2.8587,2.8587,2.8587,2.8587,2.8587,2.8587,2.8587,2.8587,2.8587,2.8587,2.8587,2.8587,2.7776,2.6973,2.6973,2.607,2.5312,2.5312,2.5312,2.548,2.5985,2.6069,2.6262,2.6827,2.7025,2.6967,2.6445,2.623,2.598,2.5382,2.5241,2.4587,2.315,2.3001,2.2628,2.1883,2.2232,2.285,2.3722,2.4943,2.596,2.6791,2.7656,2.8059,2.8084,2.8084,2.8084,2.8122,2.8649,2.8913,2.5498,2.663,2.8172,2.9861,3.0668,3.1306,3.2354,3.292,3.2854,3.1719,3.2445,3.2909,3.1856,3.2095,3.2987,3.4821,3.4407,3.4166,3.5178,3.4275,3.2898,3.1347,3.0771,0.0,0.0,0.0,0.0,3.0579,3.0951,3.1216,3.1408,3.1577,3.1661,3.1661,3.1661,3.1661,3.1661,3.1661,3.1312,3.0603,3.116,3.1448,3.1556,3.2009,3.2182,3.2169,3.2096,3.2214,3.2331,3.1459,3.0962,3.0798,2.979,2.921,2.8912,2.9102,2.8926,2.8587,2.8587,2.8587,2.8587,2.8587,2.8587,2.8655,2.9062,2.8912,2.8668,2.9062,2.8899,2.8587,2.8587,2.8587,2.8522,2.8118,2.7798,2.7455,2.7024,2.6625,2.6382,2.6382,2.6382,2.6442,2.6622,2.6647,2.6719,2.6899,2.7061,2.709,2.6855,2.7098,2.7073,2.6677,2.6493,2.6175,2.5644,2.5142,2.4774,2.4457,2.4614,2.478,2.5077,2.599,2.6614,2.6902,2.7705,2.8285,2.8649,2.8649,2.885,2.9227,2.9415,2.9503,2.6611,2.7787,2.8976,3.0701,3.1445,3.1955,3.2319,3.2434,3.1918,3.0257,3.0286,3.0279,2.9218,2.9412,3.048,3.2511,3.2398,3.2516,3.3804,3.2993,3.1787,3.0684,3.0313,2.9727,0.0,0.0,0.0,2.9785,3.029,3.0675,3.0867,3.1384,3.1661,3.1661,3.1661,3.1661,3.1661,3.1661,3.1549,3.1232,3.136,3.1724,3.2182,3.2182,3.2182,3.2169,3.1951,3.2109,3.2407,3.1213,3.0966,3.124,3.0033,2.9558,2.9577,2.974,2.9564,2.9211,2.898,2.8763,2.8587,2.8587,2.8587,2.8655,2.9048,2.8899,2.8668,2.9048,2.8885,2.8587,2.8587,2.8606,2.8491,2.8159,2.7911,2.7687,2.7244,2.7029,2.6935,2.6935,2.6935,2.6995,2.7188,2.7368,2.75,2.7565,2.7706,2.759,2.7248,2.7532,2.7752,2.762,2.7421,2.7224,2.6914,2.6474,2.6107,2.5812,2.5985,2.6155,2.6464,2.709,2.7657,2.7898,2.8462,2.8888,2.9239,2.9239,2.9428,2.9792,2.9792,2.9792,2.7408,2.8571,2.9432,3.0299,3.1284,3.1989,3.1913,3.1354,3.0387,2.9047,2.7726,2.6736,2.6471,2.6746,2.7477,2.8899,2.986,3.0598,3.1123,3.1238,3.1115,0.0,0.0,0.0,0.0,0.0,0.0,2.934,0.0,3.0314,3.0843,3.1384,3.1661,3.1661,3.1661,3.1661,3.1661,3.1725,3.1786,3.1954,3.2058,3.2115,3.2223,3.2182,3.2182,3.2155,3.1585,3.1653,3.2087,3.0934,3.111,3.2019,3.0866,3.0758,3.1192,3.0649,3.0446,3.0323,2.9767,2.9157,2.8627,2.86,2.8587,2.86,2.8627,2.8641,2.8641,2.8682,2.8682,2.8682,2.8682,2.8625,2.8618,2.8549,2.815,2.7767,2.7693,2.7358,2.7007,2.7007,2.7007,2.7176,2.7669,2.8174,2.8578,2.8803,2.8803,2.8504,2.7692,2.7718,2.7939,2.8147,2.8172,2.7878,2.7073,2.7073,2.6784,2.6035,2.6422,2.7003,2.7859,2.8355,2.8961,2.9792,2.9792,2.9792,2.9792,2.9792,2.9792,2.9792,2.9792,2.9792,2.8797,2.9955,3.1111,3.1952,3.1807,3.1319,3.1245,3.0145,2.8655,2.7119,2.619,2.5538,2.4957,2.5375,2.6525,2.8867,2.9487,0.0,3.2077,3.1908,0.0,3.0965,3.0797,3.0471,2.9929,2.9893,0.0,0.0,3.0013,3.0314,3.0843,3.1384,3.1661,3.1661,3.1661,3.1661,3.1661,3.1773,3.2084,3.2611,3.2254,3.2328,3.282,3.2372,3.2182,3.2169,3.2019,3.2046,3.2114,3.1368,3.1246,3.1436,3.0703,3.05,3.0676,3.0961,3.0798,3.0446,3.073,3.0133,2.9184,2.8736,2.8587,2.8668,2.9116,2.9252,2.9347,2.9808,2.9944,2.9808,2.9384,2.9257,2.907,2.8147,2.815,2.8186,2.7819,2.7903,2.8114,2.8114,2.8114,2.815,2.8282,2.856,2.8724,2.8803,2.9028,2.9015,2.8411,2.8672,2.8936,2.8687,2.9101,2.9276,2.911,2.9033,2.8957,2.8802,2.8848,2.909,2.9245,2.9381,2.9546,2.9792,2.9792,2.9792,2.9792,2.9792,2.9792,2.9792,2.9792,2.9792,3.0066,3.1023,3.1857,3.2544,3.1837,3.0967,3.0664,2.9205,2.7444,2.5745,2.4876,2.4226,2.3671,2.4195,2.5204,2.6826,2.791,2.9153,3.0624,3.0931,3.1036,3.1204,3.1011,0.0,3.0458,3.0434,3.0434,0.0,3.0434,3.0555,3.0855,3.1384,3.1661,3.1661,3.1661,3.1661,3.1661,3.2375,3.2764,3.2829,3.3172,3.3235,3.3125,3.2725,3.2426,3.2182,0.0,3.2182,3.2128,3.1544,3.145,3.1626,3.1029,3.0961,3.1219,3.1558,3.1477,3.1192,3.126,3.0853,3.0174,2.9591,2.9387,2.9401,2.9455,2.9672,2.9903,2.9971,2.9982,2.9963,2.9601,2.9275,2.8877,2.8226,2.827,2.8443,2.8144,2.8294,2.851,2.851,2.8578,2.8578,2.851,2.8736,2.8961,2.8961,2.9197,2.9307,2.9174,2.9412,2.9487,2.934,2.9603,2.9792,2.9792,2.9792,2.9792,2.9792,2.9792,2.9792,2.9792,2.9792,2.9792,2.9792,2.9792,2.9792,2.9792,2.9792,2.9792,2.9792,2.9792,2.9792,3.1255,3.1785,3.2059,3.2364,3.1517,3.0506,2.9917,2.8307,2.6408,2.4638,2.3675,2.3042,2.2764,2.3259,2.3881,2.4401,2.6275,2.7897,2.8703,2.9617,3.0555,3.1541,3.1264,3.0975,3.0975,3.0975,3.0975,3.0975,3.0975,3.0975,3.0975,3.1408,3.1661,3.1661,3.1661,3.1661,3.1661,3.3031,3.3456,3.2944,3.4206,3.4285,3.3295,3.3132,3.2779,3.2291,0.0,0.0,3.2141,3.1626,3.1721,3.2128,3.1612,3.1721,3.2182,3.2182,3.2182,3.2114,3.1585,3.1409,3.13,3.0622,3.0405,3.031,2.9767,3.0025,3.0405,2.9795,2.964,2.9658,2.9516,2.9094,2.8571,2.8494,2.8475,2.851,2.851,2.851,2.851,2.851,2.8645,2.8724,2.859,2.8895,2.9131,2.9131,2.9353,2.9521,2.9792,2.9792,2.9792,2.9792,2.9792,2.9792,2.9792,2.9792,2.9792,2.9792,2.9792,2.9792,2.9792,2.9792,2.9792,2.9792,2.9792,2.9792,2.9792,2.9792,2.9792,2.9792,2.9792,2.9792,3.1732,3.1871,3.1974,3.2071,3.0858,2.9316,2.8354,2.6638,2.4832,2.355,2.3016,2.2801,2.2702,2.3006,2.3928,2.5889,2.6675,2.7861,3.0146,3.0627,3.0963,3.1589,3.1589,3.1529,3.1529,3.1529,0.0,0.0,0.0,3.1529,3.1529,3.1613,3.1661,3.1661,3.1661,3.1661,3.1661,3.3031,3.3661,3.3559,3.4406,3.4719,3.4489,3.3512,3.301,3.2888,3.2399,0.0,3.2169,3.2074,3.2087,3.2169,3.206,3.2087,3.2182,3.2182,3.2182,3.2169,3.206,3.2019,3.1843,3.0758,3.0405,3.0391,3.0283,3.0676,3.104,3.0423,3.0566,3.0708,2.9656,2.9362,2.9127,2.8603,2.8518,2.851,2.851,2.851,2.859,2.8724,2.8803,2.8803,2.8973,2.9197,2.9341,2.9341,2.9611,2.9792,2.9792,2.9792,2.9792,2.9792,2.9792,2.9792,2.9792,2.9792,2.9792,2.9792,2.9792,2.9792,2.9792,2.9792,2.9792,2.9792,2.9792,2.9792,2.9792,2.9792,2.9792,2.9792,2.9792,2.9792,3.2018,3.2191,3.2213,3.2025,3.0325,2.844,2.7654,2.5739,2.39,2.3042,2.28,2.28,2.28,2.3341,2.3998,2.4823,2.6384,2.777,2.8679,3.0013,3.0975,3.1216,3.1492,3.1661,3.1661,3.1661,3.1661,0.0,0.0,3.1661,3.1661,3.1661,3.1541,3.1264,3.1517,3.1529,3.1252,3.2893,3.3713,3.3713,3.4766,3.5126,3.4814,3.4244,3.3647,3.3111,3.2752,0.0,3.2196,3.2508,3.2453,3.2209,3.2521,3.2453,3.2182,3.2182,3.2182,3.2182,3.2182,3.2182,3.2074,3.1504,3.1327,3.1273,3.0961,3.1047,3.1149,3.0566,3.0355,3.0088,2.9574,2.9197,2.8895,2.859,2.851,2.851,2.851,2.8578,2.8645,2.8803,2.8949,2.9106,2.9131,2.9365,2.9599,2.9419,2.9611,2.9792,2.9792,2.9792,2.9792,2.9792,2.9792,2.9792,2.9792,2.9792,2.9792,2.9792,2.9792,2.9792,2.9792,2.9792,2.9792,2.9792,2.9792,2.9792,2.9792,2.9792,2.9792,2.9792,2.9792,2.9792,3.2117,3.2302,3.2251,3.1845,2.9849,2.7843,2.7077,2.4986,2.3128,2.2788,2.2726,2.2775,2.2909,2.3479,2.3858,2.3749,2.5868,2.7427,2.7267,2.9253,3.0833,3.0953,3.1436,0.0,3.1661,3.1661,0.0,0.0,0.0,0.0,3.1661,3.1661,3.148,3.106,3.1444,3.1468,3.1048,3.2817,3.3713,3.3725,3.5046,3.5398,3.4828,3.4828,3.4177,3.3139,3.3139,0.0,0.0,3.2684,3.2603,3.2236,3.282,3.2779,3.2386,3.2508,3.2481,3.2359,3.2359,3.2291,3.2182,3.2009,3.2023,3.1928,3.1397,3.1183,3.0917,3.0338,2.977,2.9341,2.9263,2.8895,2.851,2.851,2.851,2.851,2.859,2.8724,2.8803,2.887,2.9184,2.9341,2.9287,2.9546,2.9702,2.9509,2.9702,2.9792,2.9792,2.9792,2.9792,2.9792,2.9792,2.9792,2.9792,2.9792,2.9792,2.9792,2.9792,2.9792,2.9792,2.9792,2.9792,2.9792,2.9792,2.9792,2.9792,2.9792,2.9792,2.9792,2.9792,2.9792,3.1816,3.2007,3.1894,3.1087,2.9302,2.7408,2.6259,2.4213,2.2519,2.2665,2.2396,2.231,2.2787,2.2996,2.3306,2.4248,2.5215,2.6395,2.7973,2.948,3.0664,3.1089,3.1622,0.0,3.1749,3.1661,0.0,0.0,0.0,0.0,3.1661,3.1661,3.1637,3.1589,3.1637,3.1637,3.1589,3.3006,3.3713,3.3725,3.5046,3.5398,3.4828,3.4828,3.4177,3.3139,3.3139,0.0,0.0,3.2236,3.2223,3.2236,3.282,3.3111,3.305,3.358,3.3444,3.2983,3.2983,3.263,3.2096,3.1468,3.1307,3.1294,3.1241,3.0807,3.0241,2.9666,2.9459,2.9263,2.8736,2.851,2.851,2.851,2.851,2.859,2.8724,2.8803,2.887,2.9263,2.9341,2.9509,2.9702,2.9792,2.9792,2.9792,2.9792,2.9792,2.9792,2.9792,2.9792,2.9792,2.9792,2.9792,2.9792,2.9792,2.9792,2.9792,2.9792,2.9792,2.9792,2.9792,2.9792,2.9792,2.9792,2.9792,2.9792,2.9792,2.9792,2.9792,2.9792,2.9792,3.0429,3.0987,3.0906,2.947,2.7909,2.6234,2.4625,2.2794,2.1504,2.1686,2.1939,2.2175,2.2372,2.2763,2.3106,2.3493,2.4616,2.575,2.6734,2.8182,2.9492,3.0615,3.0943,0.0,0.0,0.0,0.0,0.0,0.0,0.0,3.1661,3.1661,3.1372,3.0735,3.1023,3.1036,3.0723,3.2026,3.2854,3.3187,3.4166,3.4719,3.4828,3.4461,3.4231,3.4109,3.3756,0.0,0.0,3.3091,3.3037,3.2766,3.3363,3.3376,3.3166,3.3322,3.3037,3.2535,3.2535,3.2372,3.2096,3.1394,3.0921,3.062,3.062,3.0254,2.9716,2.9496,2.9118,2.8816,2.8578,2.851,2.851,2.851,2.8578,2.8724,2.8803,2.9028,2.9184,2.9341,2.9509,2.9689,2.9792,2.9792,2.9792,2.9792,2.9792,2.9792,2.9792,2.9792,2.9792,2.9792,2.9792,2.9792,2.9792,2.9792,2.9792,2.9792,2.9792,2.9792,2.9792,2.9792,2.9792,2.9792,2.9792,2.9792,2.9792,2.9792,2.9792,2.9792,2.9792,2.9792,2.9012,2.9757,2.9984,2.8554,2.688,2.5302,2.3863,2.2159,2.1019,2.1313,2.1803,2.2175,2.2359,2.275,2.3078,2.2969,2.4151,2.5239,2.5716,2.7138,2.8577,2.9744,0.0,3.0384,0.0,3.1568,0.0,0.0,0.0,0.0,0.0,3.1661,3.1324,3.0579,3.0771,3.0771,3.0555,3.1522,3.2281,3.2829,3.3503,3.3998,3.4299,3.4054,3.4082,3.4299,0.0,0.0,0.0,3.377,3.3702,3.3363,3.3783,3.3688,3.3322,3.3322,3.2955,3.244,3.244,3.2245,3.179,3.1158,3.0545,3.0024,2.9793,2.9496,2.9118,2.9118,2.8816,2.851,2.851,2.851,2.851,2.8578,2.8724,2.8791,2.8949,2.9184,2.9419,2.9509,2.9689,2.9792,2.9792,2.9792,2.9792,2.9792,2.9792,2.9792,2.9792,2.9792,2.9792,2.9792,2.9792,2.9792,2.9792,2.9792,2.9792,2.9792,2.9792,2.9792,2.9792,2.9792,2.9792,2.9792,2.9792,2.9792,2.9792,2.9792,2.9934,3.0139,3.0317,3.0727,2.7482,2.8496,2.902,2.8721,2.6712,2.4791,2.4626,2.269,2.1146,2.1928,2.2101,2.2298,2.2944,2.3078,2.3078,2.3078,2.3879,2.4735,2.5536,2.6856,2.7978,0.0,0.0,2.9677,3.0348,0.0,0.0,0.0,0.0,0.0,0.0,3.1661,3.1661,3.1649,3.1144,3.112,3.1637,3.1786,3.2177,3.2829,3.3509,3.3567,3.3179,3.3688,3.3634,0.0,0.0,0.0,0.0,3.3869,3.3869,3.3856,3.3869,3.3869,3.3856,3.3856,3.3566,3.3125,3.3125,3.2273,3.1071,3.0469,2.9871,2.9263,2.8736,2.851,2.851,2.851,2.851,2.851,2.851,2.851,2.859,2.8724,2.8791,2.887,2.9341,2.9419,2.9509,2.9702,2.9792,2.9792,2.9792,2.9792,2.9792,2.9792,2.9792,2.9792,2.9792,2.9792,2.9792,2.9792,2.9792,2.9792,2.9792,2.9792,2.9792,2.9792,2.9792,2.9792,2.9792,2.9792,2.9792,2.9792,2.9792,2.9792,2.9792,2.9792,3.0216,3.0908,3.1572,3.2917,2.5326,2.6305,2.6783,2.5875,2.4495,2.3304,2.2814,2.1459,2.056,2.125,2.1439,2.1616,2.2298,2.2433,2.2678,2.3591,2.4568,2.5469,2.6101,2.7548,0.0,2.9617,3.0569,3.1235,0.0,0.0,0.0,0.0,0.0,0.0,0.0,3.1661,3.1336,3.0603,3.0422,3.0242,3.005,3.052,3.106,3.1621,3.2725,3.3167,3.3152,3.3675,0.0,0.0,0.0,0.0,0.0,3.4556,3.4235,3.3869,3.3869,3.3702,3.3349,3.3349,3.2718,3.1809,3.1809,3.1241,3.0482,2.9871,2.9574,2.9263,2.8657,2.851,2.851,2.851,2.851,2.851,2.851,2.8578,2.8724,2.8803,2.9028,2.9263,2.9341,2.9521,2.9702,2.9792,2.9792,2.9792,2.9792,2.9792,2.9792,2.9792,2.9792,2.9792,2.9792,2.9792,2.9792,2.9792,2.9792,2.9792,2.9792,2.9792,2.9998,3.0545,3.0075,2.9998,3.0545,3.0075,3.0075,3.0545,3.0545,3.0846,3.1368,3.1368,3.1702,3.2326,3.2993,3.3833,2.3717,2.4788,2.5413,2.4652,2.3463,2.2448,2.2278,2.1362,2.0677,2.1365,2.1502,2.1678,2.2372,2.2298,2.2554,2.3779,2.4556,2.5335,2.6395,2.7344,0.0,2.9546,0.0,0.0,0.0,0.0,0.0,0.0,0.0,0.0,0.0,3.1568,3.0975,3.011,3.0086,2.9929,2.9605,3.0016,3.0645,3.147,3.2163,3.2768,3.3064,3.3213,0.0,0.0,0.0,0.0,0.0,3.4923,3.4611,3.4231,3.3797,3.339,3.3111,3.2806,3.2098,3.122,3.122,3.062,2.9871,2.9484,2.9275,2.904,2.8736,2.8578,2.8578,2.8578,2.8578,2.8657,2.8736,2.8736,2.8882,2.9028,2.9184,2.9419,2.9521,2.9702,2.9792,2.9792,2.9955,3.0105,3.0105,3.0105,3.0105,3.0105,2.993,2.9792,2.9792,2.9792,2.9792,2.9792,2.9792,2.9934,3.0203,3.0203,3.0406,3.0895,3.0784,3.0859,3.1341,3.0934,3.0859,3.1328,3.1328,3.1743,3.2413,3.301,3.3583,3.4189,3.4952,3.5529,0.0,2.3791,2.4644,2.4644,2.3195,2.205,2.2807,2.198,0.0,2.1978,2.2039,2.2237,2.2944,2.2519,2.2541,2.3829,2.4155,2.4757,2.6319,2.6659,0.0,0.0,3.0411,0.0,0.0,0.0,0.0,0.0,0.0,0.0,0.0,3.1317,3.0615,3.005,3.0025,3.0013,2.9977,3.0151,3.0783,3.1867,3.1967,3.2435,3.2983,3.2521,0.0,0.0,0.0,0.0,0.0,3.5004,3.4746,3.4597,3.3485,3.3111,3.2928,3.2372,3.1703,3.1145,3.1071,3.0317,2.9341,2.9341,2.8961,2.8578,2.8724,2.8791,2.8791,2.8791,2.8791,2.8882,2.904,2.8961,2.8961,2.9341,2.9443,2.9559,2.9714,2.9829,2.9854,2.9854,3.0269,3.062,3.067,3.067,3.067,3.067,3.0206,2.9854,2.9854,2.9817,2.9792,2.9792,2.9869,3.0139,3.082,3.0895,3.097,3.1044,3.1709,3.2146,3.2146,3.2146,3.2146,3.2146,3.2273,3.2632,3.3192,3.4608,3.561,3.6175,3.7022,3.7665,2.1142,0.0,2.2899,2.2899,2.2113,2.1487,0.0,2.171,2.1313,2.1978,2.1678,2.169,2.2884,2.2438,2.2562,2.4327,2.5686,2.6502,2.6533,0.0,0.0,3.1248,3.1925,0.0,0.0,0.0,0.0,0.0,0.0,0.0,0.0,3.1174,3.0604,2.9508,2.9484,2.9292,2.8883,2.9782,3.0394,3.0727,3.2071,3.2608,3.2413,3.3186,0.0,0.0,0.0,0.0,3.4275,3.414,3.3892,3.3444,3.3173,3.2793,3.2359,3.1669,3.1009,3.0469,2.9947,2.9341,2.8736,2.8882,2.8882,2.8803,2.8961,2.8882,2.8791,2.8791,2.8882,2.8961,2.8882,2.9028,2.9263,2.9419,2.9833,3.0215,2.988,3.0118,3.0419,3.0419,3.052,3.0746,3.1135,3.121,3.121,3.121,3.0758,3.0419,3.0419,3.0055,2.9792,2.9792,3.0266,3.0683,3.0895,3.0895,3.1402,3.2563,3.229,3.2362,3.2932,3.2362,3.2362,3.2932,3.4072,3.4681,3.4838,3.6129,3.6923,3.6993,3.7692,3.8072,2.0589,2.1468,2.2309,2.2309,2.1922,2.1741,2.2433,2.2051,2.1678,2.2051,2.1803,2.1803,2.2494,2.2483,2.29,2.4298,2.5369,0.0,0.0,0.0,2.9917,3.1311,3.188,0.0,0.0,0.0,0.0,0.0,0.0,0.0,0.0,3.0687,3.0119,2.9316,2.9063,2.8799,2.851,2.9626,3.0365,3.0714,3.1998,3.2616,3.2589,3.2969,3.3105,0.0,0.0,0.0,3.3856,3.3647,3.3349,3.3111,3.2766,3.2467,3.2096,3.1468,3.0846,3.0241,2.9716,2.9106,2.8657,2.8724,2.8724,2.8736,2.8973,2.904,2.8961,2.9028,2.9118,2.9131,2.9209,2.9353,2.9419,2.9521,3.0115,3.047,2.9917,3.0231,3.062,3.062,3.062,3.0859,3.1637,3.1549,3.1474,3.1725,3.111,3.062,3.062,3.0131,2.9934,3.0279,3.0683,3.118,3.1915,3.1988,3.2349,3.3143,3.3157,3.3311,3.3742,3.3381,3.3522,3.417,3.5249,3.5952,3.6257,3.7244,3.7723,3.7723,3.8043,3.8202,2.0567,2.1405,2.2209,2.2284,2.2223,2.2237,2.2811,2.2494,2.2039,2.199,2.2051,2.2075,2.2085,2.2552,2.3233,2.4202,0.0,0.0,2.6418,2.8049,2.9474,3.0507,0.0,0.0,0.0,0.0,0.0,0.0,0.0,0.0,0.0,3.0037,2.9488,2.9184,2.8751,2.851,2.851,2.9716,3.0637,3.1177,3.187,3.244,3.2915,3.2399,3.2453,0.0,0.0,0.0,3.3647,3.3132,3.2928,3.2874,3.2372,3.2169,3.195,3.1307,3.0696,3.0101,2.9704,2.925,2.8803,2.8803,2.8736,2.8578,2.9052,2.9131,2.9131,2.9353,2.9353,2.93,2.9624,2.9599,2.9509,2.9792,3.0218,3.0482,3.0018,3.0281,3.0633,3.0721,3.067,3.0959,3.2026,3.175,3.1574,3.2127,3.1373,3.0733,3.0733,3.0322,3.0369,3.1081,3.1211,3.1809,3.3213,3.3438,3.3508,3.3508,3.4088,3.4414,3.4414,3.4501,3.482,3.5427,3.6083,3.6736,3.7302,3.7912,3.8202,3.8202,3.8202,3.8202,2.0567,2.1129,2.1732,2.2196,2.2223,2.2113,2.2237,2.2175,2.1928,2.1365,2.1678,2.2059,2.1881,2.229,2.3092,2.4273,0.0,2.6916,0.0,0.0,3.0004,0.0,0.0,0.0,0.0,0.0,0.0,0.0,0.0,0.0,0.0,3.0016,2.9504,2.8643,2.8546,2.851,2.851,2.9716,3.0596,3.1202,3.1904,3.2223,3.2318,3.2223,3.2223,0.0,0.0,3.2359,3.244,3.2345,3.2318,3.2304,3.2223,3.1863,3.1307,3.062,3.0024,2.9496,2.9106,2.887,2.8803,2.8973,2.8882,2.8803,2.9263,2.9106,2.8961,2.9534,2.9702,2.9624,2.9509,2.9599,2.9792,2.9792,3.0218,3.0595,3.0507,3.0557,3.0746,3.1185,3.0922,3.0959,3.2026,3.175,3.1574,3.2127,3.1675,3.1273,3.1273,3.1381,3.1668,3.2319,3.2671,3.3141,3.3986,3.4695,3.5059,3.5059,3.4636,3.4414,3.4414,3.4936,3.5256,3.5427,3.6533,3.7201,3.7302,3.7912,3.8202,3.8202,3.8202,3.8202,2.0726,2.1188,2.1675,2.2286,2.2533,2.2555,2.2175,2.2101,2.1791,2.0805,2.1277,2.1917,2.1889,2.249,2.334,2.4577,0.0,2.6835,2.7885,2.8578,0.0,0.0,0.0,0.0,0.0,0.0,0.0,0.0,0.0,0.0,0.0,0.0,2.9309,2.8522,2.8578,2.8736,2.8961,2.9871,3.0469,3.0696,3.1394,3.1863,3.2182,3.2182,3.2006,3.1721,0.0,3.2182,3.2182,3.2182,3.2359,3.2616,3.2304,3.1776,3.1071,3.0177,2.9484,2.9028,2.887,2.8791,2.8803,2.8882,2.8882,2.887,2.9118,2.9184,2.9197,2.9702,2.9702,2.9611,2.9599,2.9702,2.9792,2.9792,3.0432,3.0959,3.067,3.1072,3.1549,3.1788,3.1399,3.1386,3.2491,3.2202,3.2026,3.2591,3.2202,3.1991,3.247,3.2356,3.2722,3.3914,3.4196,3.4582,3.5253,3.5653,3.588,3.588,3.5604,3.5444,3.5444,3.572,3.604,3.6402,3.6997,3.7462,3.7796,3.8072,3.8202,3.8202,3.8202,3.8202,2.0898,2.1263,2.1567,2.2306,2.277,2.2982,2.2394,2.2231,2.1879,2.0676,2.1263,2.1888,2.1767,2.2522,0.0,2.4687,2.5664,2.6526,2.7172,0.0,0.0,0.0,0.0,0.0,0.0,0.0,0.0,0.0,0.0,0.0,0.0,0.0,2.9057,2.833,2.8542,2.8704,2.8957,2.9479,2.9985,3.0545,3.1158,3.1703,3.2182,3.2033,3.1721,3.1314,3.1626,3.1843,3.1965,3.1965,3.2245,3.2644,3.2125,3.1542,3.0696,2.9561,2.9028,2.8791,2.8791,2.8803,2.8724,2.8803,2.8882,2.8882,2.9118,2.9275,2.9431,2.9702,2.9689,2.9521,2.9792,2.9892,2.998,2.998,3.0708,3.1323,3.1047,3.1537,3.2051,3.219,3.1763,3.1712,3.2704,3.2403,3.2215,3.278,3.2503,3.2536,3.3414,3.3277,3.3826,3.5428,3.5501,3.5768,3.6461,3.6533,3.6591,3.6751,3.6475,3.6301,3.6301,3.646,3.678,3.7302,3.7447,3.7738,3.8202,3.8202,3.8202,3.8202,3.8362,3.8434,2.095,2.1089,2.1371,2.2261,2.277,2.3021,2.2802,2.2719,2.2474,2.1559,2.1933,2.2159,2.1281,2.2157,2.3327,2.4348,2.5487,2.6781,0.0,0.0,0.0,0.0,0.0,0.0,0.0,0.0,0.0,0.0,0.0,0.0,0.0,0.0,0.0,2.7789,2.792,2.7971,2.7841,2.7841,2.8997,3.1145,3.1776,3.2169,3.2155,3.1612,3.1327,3.126,3.0758,3.0853,3.1355,3.1355,3.132,3.136,3.132,3.0696,2.9704,2.8882,2.8657,2.8791,2.8791,2.8645,2.859,2.8973,2.8961,2.887,2.9263,2.9419,2.9431,2.9702,2.9792,2.9792,2.9792,3.0168,3.0557,3.0557,3.0984,3.1524,3.2001,3.175,3.1599,3.2114,3.1763,3.1574,3.2177,3.1813,3.1637,3.219,3.224,3.2536,3.3414,3.41,3.5159,3.6584,3.647,3.6476,3.7186,3.7244,3.7476,3.8028,3.6954,3.6301,3.6301,3.691,3.7259,3.7302,3.7854,3.8159,3.8202,3.8202,3.8202,3.8217,3.8841,3.9131,2.0617,2.1078,2.1433,2.1386,2.1905,2.2444,2.221,2.2208,2.1886,2.1021,2.1282,2.1624,2.153,2.2584,2.3775,2.4664,2.537,2.6457,0.0,0.0,0.0,0.0,0.0,0.0,0.0,0.0,0.0,0.0,0.0,0.0,0.0,0.0,0.0,2.7236,2.7363,2.7417,2.7223,2.757,2.8359,2.9572,3.0236,3.069,3.107,3.0839,3.0527,3.0174,3.0337,3.0535,3.0703,3.0703,3.1163,3.1659,3.0914,3.0393,2.9935,2.8882,2.859,2.8578,2.8578,2.8657,2.8724,2.8882,2.904,2.9184,2.9341,2.9509,2.9702,2.9792,3.0043,3.0231,2.988,3.0206,3.062,3.062,3.1273,3.1951,3.2177,3.234,3.2503,3.2704,3.2579,3.2503,3.2717,3.2579,3.2516,3.2717,3.3237,3.3879,3.474,3.5541,3.6515,3.7615,3.7543,3.7593,3.7839,3.7868,3.7955,3.8188,3.7752,3.7491,3.7491,3.7723,3.7868,3.7868,3.8086,3.8202,3.8202,3.8202,3.8202,3.8217,3.8884,3.9204,2.0233,2.0714,2.1119,2.0559,2.1021,2.1592,2.1674,2.1733,2.1506,2.0948,2.1114,2.1424,2.1745,2.2495,2.3514,0.0,2.5252,0.0,0.0,0.0,0.0,0.0,0.0,0.0,0.0,0.0,0.0,0.0,0.0,0.0,0.0,0.0,0.0,0.0,2.6881,2.6956,2.6651,2.7269,2.7842,2.8324,2.8963,2.9657,3.0405,3.0201,2.9984,2.9781,2.9673,2.9894,3.0401,2.9987,3.0416,3.1164,3.0099,2.9793,2.9716,2.8816,2.851,2.8578,2.8578,2.8645,2.8791,2.8949,2.9184,2.9419,2.9509,2.9689,2.9792,2.9792,3.0068,3.0306,3.0105,3.0583,3.1122,3.1122,3.1825,3.2491,3.2491,3.2805,3.3081,3.3081,3.3081,3.3081,3.3081,3.3081,3.3154,3.3496,3.3979,3.4786,3.5869,3.6517,3.7246,3.8127,3.8202,3.8202,3.8202,3.8202,3.8202,3.8202,3.8202,3.8202,3.8202,3.8202,3.8202,3.8202,3.8202,3.8202,3.8202,3.8405,3.8405,3.8231,3.9305,3.9683,1.9786,1.9911,2.0196,1.9866,2.0155,2.0694,2.1358,2.149,2.1549,2.1761,2.1807,2.1807,2.1807,2.1807,0.0,2.4659,0.0,0.0,0.0,0.0,0.0,0.0,0.0,0.0,0.0,0.0,0.0,0.0,0.0,0.0,0.0,0.0,0.0,0.0,2.6481,2.651,2.6164,2.6701,2.7242,2.7776,2.8314,2.9224,3.0364,2.974,2.9808,3.0255,2.8572,2.8778,3.0276,2.9112,2.8948,2.9341,2.8736,2.8657,2.8803,2.8578,2.8657,2.8791,2.8791,2.8791,2.887,2.9263,2.9419,2.9419,2.9702,2.9792,2.9792,2.9792,2.9792,2.993,3.0482,3.1411,3.2215,3.2215,3.2654,3.3081,3.3081,3.3081,3.3081,3.3081,3.3081,3.3081,3.3081,3.3081,3.3411,3.423,3.4397,3.5032,3.6702,3.6936,3.7246,3.8127,3.8202,3.8202,3.8202,3.8202,3.8202,3.8202,3.8202,3.8202,3.8202,3.8202,3.8202,3.8202,3.8202,3.8202,3.8202,3.887,3.8855,3.826,4.0191,4.0742,1.9708,1.983,1.9934,1.9279,1.9649,2.0303,2.0663,2.1139,2.1549,2.1761,2.1807,2.1807,2.1807,2.1807,0.0,2.34,0.0,0.0,0.0,0.0,0.0,0.0,0.0,0.0,0.0,0.0,0.0,0.0,0.0,0.0,0.0,0.0,0.0,0.0,2.5624,2.5681,2.5594,2.5721,2.607,2.6701,2.6837,2.7693,2.9129,2.894,2.8756,2.8585,2.8424,2.8192,2.7986,2.8398,2.8925,2.9419,2.9197,2.9184,2.9184,2.8657,2.8657,2.8791,2.8791,2.8961,2.9263,2.9341,2.9521,2.9702,2.9792,2.9792,2.9792,2.9792,3.0068,3.0495,3.1022,3.1687,3.2215,3.2215,3.2654,3.3081,3.3081,3.3081,3.3081,3.3081,3.3081,3.3081,3.3081,3.3081,3.3167,3.3411,3.3979,3.5032,3.6702,3.7414,3.7886,3.8202,3.8202,3.8202,3.8202,3.8202,3.8202,3.8202,3.8202,3.8202,3.8202,3.8202,3.8202,3.8202,3.8202,3.8202,3.8202,3.887,3.9102,3.8942,4.0408,4.0989,1.9531,1.9639,1.9667,1.8826,1.9158,1.9828,2.0284,2.1071,2.1638,2.1769,2.1807,2.1807,2.1807,2.1807,0.0,0.0,0.0,0.0,0.0,0.0,0.0,0.0,0.0,0.0,0.0,0.0,0.0,0.0,0.0,0.0,0.0,0.0,0.0,0.0,2.5465,2.5453,2.5312,2.5523,2.5873,2.6233,2.6633,2.7242,2.7987,2.7987,2.7908,2.7876,2.8174,2.7784,2.6993,2.7875,2.8549,2.904,2.904,2.904,2.8961,2.8657,2.8657,2.8791,2.8882,2.9118,2.9419,2.9509,2.9702,2.9792,2.9792,2.9792,2.9792,2.9792,3.003,3.0419,3.0947,3.1486,3.2001,3.2453,3.283,3.3081,3.3081,3.3081,3.3081,3.3081,3.3081,3.3081,3.3081,3.3081,3.324,3.3569,3.462,3.591,3.7246,3.7886,3.8202,3.8202,3.8202,3.8202,3.8202,3.8202,3.8202,3.8202,3.8202,3.8202,3.8202,3.8202,3.8202,3.8202,3.8202,3.8202,3.8202,3.9117,3.9436,3.9233,4.0771,4.1352,1.9365,1.9363,1.9383,1.8627,1.8785,1.9406,2.0234,2.1145,2.1807,2.1807,2.1807,2.1807,2.1807,2.1807,2.2025,0.0,0.0,0.0,0.0,0.0,0.0,0.0,0.0,0.0,0.0,0.0,0.0,0.0,0.0,0.0,0.0,0.0,0.0,2.5382,2.5688,2.5688,2.5312,2.5873,2.6082,0.0,2.7108,2.7297,2.6824,2.7027,2.7349,2.7818,2.7648,2.7336,2.6971,2.7452,2.7957,2.8438,2.8498,2.851,2.851,2.851,2.8657,2.8882,2.9052,2.9275,2.9509,2.9702,2.9792,2.9792,2.9792,2.9792,2.9792,2.9792,2.9792,2.9917,3.047,3.0972,3.1587,3.2667,3.3006,3.3081,3.3081,3.3081,3.3081,3.3081,3.3081,3.3081,3.3081,3.3081,3.3411,3.423,3.583,3.7169,3.7962,3.8127,3.8202,3.8202,3.8202,3.8202,3.8202,3.8202,3.8202,3.8202,3.8202,3.8202,3.8202,3.8202,3.8202,3.8202,3.8202,3.8231,3.8289,3.9567,3.9944,3.9509,4.1395,4.1947,1.8815,1.8629,1.8518,1.8554,1.9339,2.0182,2.0379,2.1145,2.1807,2.1807,2.1807,2.1807,2.1807,2.1807,0.0,0.0,0.0,0.0,0.0,0.0,0.0,0.0,0.0,0.0,0.0,0.0,0.0,0.0,0.0,0.0,0.0,0.0,0.0,2.5535,2.5606,2.5535,2.5312,2.5453,2.5523,0.0,2.5721,2.5791,2.5721,2.7027,2.7472,2.7064,2.6198,2.6202,2.6947,2.7055,2.7416,2.7933,2.8342,2.851,2.851,2.8645,2.8882,2.9052,2.9275,2.9521,2.9702,2.9792,2.9792,2.9792,2.9792,2.9792,2.9792,2.9792,2.9792,2.9917,3.047,3.0708,3.0947,3.1599,3.2428,3.3081,3.3081,3.3081,3.3081,3.3081,3.3081,3.3081,3.3081,3.3081,3.3411,3.423,3.583,3.6936,3.7169,3.781,3.8202,3.8202,3.8202,3.8202,3.8202,3.8202,3.8202,3.8202,3.8202,3.8202,3.8202,3.8202,3.8202,3.8202,3.8202,3.8463,3.8986,4.0263,4.1091,4.1512,4.2919,4.35,1.8872,1.8605,1.8491,1.8804,1.965,2.042,2.042,2.1145,2.1807,2.1807,2.1807,2.1807,2.1807,2.1807,0.0,0.0,0.0,0.0,0.0,0.0,0.0,0.0,0.0,0.0,0.0,0.0,0.0,0.0,0.0,0.0,0.0,2.5992,2.5828,2.5618,2.5688,2.5606,2.5312,2.5312,2.5312,2.5312,2.5594,2.5734,2.5734,2.6346,2.6427,2.6113,2.5562,2.5769,2.6538,2.6538,2.7007,2.7753,2.8096,2.8361,2.851,2.8803,2.9052,2.9131,2.9341,2.9599,2.9792,2.9792,2.9792,2.9792,2.9792,2.9792,2.9792,2.9792,2.9792,2.9854,3.0143,3.0419,3.0683,3.0947,3.1662,3.234,3.2604,3.2667,3.2742,3.3018,3.3081,3.3081,3.3081,3.3411,3.3979,3.4855,3.6056,3.7014,3.7491,3.7886,3.8202,3.8202,3.8202,3.8202,3.8202,3.8202,3.8202,3.8202,3.8202,3.8202,3.8202,3.8507,3.8536,3.8217,3.8522,3.8986,3.9639,4.0945,4.1903,4.2542,4.3529,4.3993,1.8933,1.8843,1.8814,1.9048,1.9758,2.042,2.042,2.1145,2.1807,2.1807,2.1807,2.1807,2.1807,0.0,0.0,0.0,0.0,0.0,0.0,0.0,0.0,0.0,0.0,0.0,0.0,0.0,0.0,0.0,0.0,0.0,2.6213,2.5992,2.5828,2.5618,2.5758,2.5676,2.5312,2.5312,2.5312,2.5312,2.5804,2.6013,2.6013,2.5523,2.5312,2.5312,2.5312,2.5552,2.5973,2.6057,2.6635,2.7464,2.7787,2.8125,2.8378,2.8937,2.9131,2.9131,2.9353,2.9599,2.9792,2.9792,2.9792,2.9792,2.9792,2.9792,2.9792,2.9792,2.9792,2.9792,2.9792,3.0131,3.047,3.047,3.0796,3.1323,3.2051,3.229,3.2503,3.298,3.3081,3.3081,3.3081,3.3823,3.4703,3.5467,3.636,3.7169,3.8127,3.8202,3.8202,3.8202,3.8202,3.8202,3.8202,3.8202,3.8202,3.8202,3.8202,3.8304,3.8522,3.9059,3.9204,3.8884,3.9305,3.9828,4.0437,4.1773,4.2731,4.334,4.4008,4.4313,1.8408,1.8659,1.9069,1.9121,1.9758,2.042,2.042,2.1145,2.1807,2.1807,2.1807,2.1807,0.0,0.0,0.0,0.0,0.0,0.0,0.0,0.0,0.0,0.0,0.0,0.0,0.0,0.0,0.0,0.0,0.0,0.0,2.6213,2.5992,2.5828,2.5618,2.5606,2.5535,2.5312,2.5312,2.5312,2.5312,2.5382,2.5453,2.5453,2.5312,2.5312,2.5312,2.5312,2.5348,2.5444,2.5913,2.6178,2.6406,2.7344,2.7765,2.7885,2.8802,2.9131,2.9131,2.9624,2.9792,2.9792,2.9792,2.9792,2.9792,2.9792,2.9792,2.9792,2.9792,2.9792,2.9792,2.9792,2.9842,2.9905,2.9905,2.9955,3.0419,3.1888,3.2604,3.298,3.3056,3.3081,3.3081,3.3081,3.3823,3.4703,3.5467,3.636,3.7169,3.8127,3.8202,3.8202,3.8202,3.8202,3.8202,3.8202,3.8202,3.8202,3.8202,3.8202,3.8696,3.9799,3.9929,4.0481,4.1555,4.1091,4.1163,4.1831,4.3108,4.4052,4.4647,4.5314,4.5634,1.8148,1.8449,1.8885,1.9069,1.9572,2.0048,2.0048,2.0762,2.1414,2.1414,2.1621,2.1807,0.0,0.0,0.0,0.0,0.0,0.0,0.0,0.0,0.0,0.0,0.0,0.0,0.0,0.0,0.0,0.0,2.6188,2.6062,2.6201,2.591,2.5688,2.5606,2.5606,2.5523,2.5312,2.5312,2.5312,2.5312,2.5312,2.5312,2.5312,2.5312,2.5312,2.5312,2.5312,2.5312,2.5324,2.5564,2.5829,2.6178,2.7109,2.7593,2.7997,2.8922,2.9275,2.9353,2.9702,2.9792,2.9792,2.9792,2.9792,2.9792,2.9792,2.9792,2.9792,2.9792,2.9792,2.9792,2.9792,2.9792,2.9792,2.9792,3.003,3.0444,3.116,3.1524,3.1876,3.2478,3.2591,3.2692,3.3018,3.4204,3.5156,3.5548,3.6752,3.781,3.8127,3.8202,3.8202,3.8202,3.8202,3.8202,3.8202,3.8202,3.8202,3.8202,3.8551,3.916,4.006,4.0815,4.1657,4.2586,4.231,4.2484,4.3166,4.4066,4.4821,4.5459,4.575,4.5692,1.7941,1.8207,1.8668,1.8882,1.9334,1.9827,1.9827,2.0369,2.0969,0.0,2.1393,0.0,0.0,0.0,0.0,0.0,0.0,0.0,0.0,0.0,0.0,0.0,0.0,0.0,0.0,0.0,0.0,0.0,2.6188,2.598,2.6131,2.5758,2.5606,2.5535,2.5535,2.5453,2.5312,2.5312,2.5312,2.5312,2.5312,2.5312,2.5312,2.5312,2.5312,2.5382,2.5312,2.5312,2.5312,2.5312,2.5624,2.6154,2.6918,2.7527,2.8139,2.9065,2.9419,2.9419,2.9702,2.9792,2.9792,2.9792,2.9792,2.9792,2.9792,2.9792,2.9792,2.9792,2.9792,2.9792,2.9792,2.9792,2.9792,2.9792,3.0105,3.0482,3.0758,3.0922,3.126,3.2064,3.2328,3.2566,3.3006,3.4358,3.5386,3.5534,3.6908,3.7962,3.8202,3.8202,3.8202,3.8202,3.8202,3.8202,3.8202,3.8202,3.8275,3.8449,3.9073,3.9784,4.0583,4.1715,4.2687,4.3456,4.3326,4.3573,4.4211,4.4661,4.514,4.5634,4.5474,4.5301,1.7669,1.8038,1.8584,1.8477,1.9096,1.9827,1.9827,2.012,2.0586,2.1031,2.1135,0.0,0.0,0.0,0.0,0.0,0.0,0.0,0.0,0.0,0.0,0.0,0.0,0.0,0.0,0.0,0.0,0.0,2.6339,2.6131,2.591,2.5676,2.5535,2.5312,2.5312,2.5312,2.5312,2.5312,2.5312,2.5312,2.5312,2.5312,2.5312,2.5312,2.5382,2.5535,2.5382,2.5312,2.5312,2.5312,2.5624,2.6154,2.6918,2.7527,2.8139,2.9065,2.9419,2.9419,2.9702,2.9792,2.9792,2.9792,2.9792,2.9792,2.9792,2.9792,2.9792,2.9792,2.9792,2.9792,2.9792,2.9792,2.9792,2.9792,2.9817,3.0118,3.1135,3.1763,3.2139,3.2202,3.2654,3.3043,3.3068,3.3823,3.4703,3.5467,3.636,3.7246,3.8127,3.8202,3.8202,3.8202,3.8202,3.8202,3.8202,3.8202,3.8463,3.9117,3.9712,4.0641,4.1932,4.26,4.3529,4.4763,4.4226,4.424,4.4835,4.4864,4.4908,4.4922,4.4356,4.4718,1.8577,1.8595,1.8657,1.8885,1.9142,1.938,1.938,1.9665,2.0131,2.0576,0.0,0.0,0.0,0.0,0.0,0.0,0.0,0.0,0.0,0.0,0.0,0.0,0.0,0.0,0.0,0.0,0.0,0.0,0.0,2.605,2.6062,2.5676,2.5453,2.5453,2.5382,2.5312,2.5312,2.5312,2.5312,2.5312,2.5312,2.5312,2.5312,2.5312,2.5312,2.5382,2.5312,2.5382,2.5489,2.5744,2.5925,2.619,2.7294,2.7919,2.8304,2.9065,2.9509,2.9689,2.9792,2.9792,2.9792,2.9792,2.9792,2.9792,2.9792,2.9792,2.9792,2.9792,2.9792,2.9792,2.9792,2.9792,2.9792,2.9792,2.9792,2.9892,3.0281,3.0796,3.1185,3.1185,3.1901,3.2516,3.2516,3.3566,3.4703,3.5467,3.636,3.7169,3.8127,3.8202,3.8202,3.8202,3.8202,3.8202,3.8202,3.8202,3.8652,3.9712,3.9973,4.0873,4.26,4.2876,4.3413,4.4298,4.4095,4.4284,4.4879,4.4501,4.4313,4.4313,4.4676,4.4734,1.8908,1.8807,1.8657,1.9047,1.9104,1.9075,1.9075,1.9313,1.9655,2.011,0.0,0.0,0.0,0.0,0.0,0.0,0.0,0.0,0.0,0.0,0.0,0.0,0.0,0.0,0.0,0.0,0.0,0.0,0.0,0.0,2.6213,2.5606,2.5382,2.5535,2.5382,2.5312,2.5312,2.5312,2.5312,2.5312,2.5312,2.5312,2.5312,2.5312,2.5312,2.5382,2.5312,2.5382,2.5501,2.5949,2.6275,2.6602,2.7648,2.8341,2.8704,2.9307,2.9611,2.9792,2.9792,2.9792,2.9792,2.9792,2.9792,2.9792,2.9792,2.9792,2.9792,2.9792,2.9792,2.9792,2.9792,2.9792,2.9792,2.9792,2.9792,2.9792,2.9792,3.0231,3.067,3.0834,3.1599,3.2277,3.2466,3.3804,3.5019,3.5548,3.6596,3.7567,3.8127,3.8277,3.8277,3.8202,3.8352,3.8439,3.8522,3.8687,3.9226,4.035,4.0785,4.1499,4.2644,4.3058,4.3379,4.3645,4.3527,4.3731,4.4255,4.3848,4.3745,4.376,4.4339,4.463,0.0,0.0,0.0,1.869,1.8885,1.9075,1.9075,0.0,1.9199,1.9734,0.0,0.0,0.0,0.0,0.0,0.0,0.0,0.0,0.0,0.0,0.0,0.0,0.0,0.0,0.0,0.0,0.0,0.0,2.6119,2.598,2.6213,2.5606,2.5312,2.5312,2.5312,2.5312,2.5312,2.5312,2.5312,2.5312,2.5312,2.5312,2.5312,2.5312,2.5382,2.5606,2.5382,2.5312,2.5348,2.5901,2.6577,2.7259,2.8047,2.8728,2.9419,2.9702,2.9792,2.9792,2.9792,2.9792,2.9792,2.9792,2.9792,2.9792,2.9792,2.9792,2.9792,2.9792,2.9792,2.9792,2.9792,2.9792,2.9792,2.9792,2.9792,2.9792,2.9792,3.0231,3.0758,3.1273,3.1838,3.2416,3.2955,3.4524,3.5655,3.5628,3.7078,3.8127,3.8202,3.8366,3.8441,3.8202,3.859,3.8928,3.9222,3.9586,4.0235,4.1128,4.2093,4.2526,4.2121,4.3104,4.3495,4.2963,4.2617,4.2602,4.2963,4.2963,4.3062,4.3357,4.3387,4.4244,1.9523,0.0,0.0,0.0,0.0,0.0,0.0,0.0,1.9199,1.9734,0.0,0.0,0.0,0.0,0.0,0.0,0.0,0.0,0.0,0.0,0.0,0.0,0.0,0.0,0.0,0.0,0.0,0.0,2.6258,2.6201,2.6396,2.5968,2.5606,2.5312,2.5312,2.5312,2.5312,2.5312,2.5382,2.5535,2.5382,2.5382,2.5535,2.5382,2.5312,2.5382,2.5312,2.5312,2.5384,2.6322,2.6854,2.7296,2.8464,2.9061,2.9419,2.9702,2.9792,2.9792,2.9792,2.9792,2.9792,2.9792,2.9792,2.9792,2.9792,2.9792,2.9792,2.9792,2.9792,2.9792,2.9792,2.9792,2.9792,2.9792,2.9792,2.9792,2.9792,3.0231,3.0658,3.0809,3.1913,3.284,3.2756,3.3372,3.4371,3.5883,3.6201,3.6894,3.8397,3.8575,3.8516,3.8634,3.915,3.9517,3.9633,4.015,4.1052,4.2173,4.2077,4.2342,4.3231,4.3063,4.2887,4.279,4.2695,4.2695,4.279,4.2641,4.2806,4.3372,4.4464,4.5676,0.0,0.0,0.0,0.0,0.0,0.0,1.9075,1.9075,0.0,0.0,0.0,0.0,0.0,0.0,0.0,0.0,0.0,0.0,0.0,0.0,0.0,0.0,0.0,0.0,0.0,2.4409,2.5217,2.6383,2.6339,2.6201,2.6258,2.605,2.5758,2.5535,2.5382,2.5312,2.5382,2.5312,2.5382,2.5606,2.5382,2.5382,2.5606,2.5382,2.5312,2.5312,2.5312,2.5432,2.5709,2.6574,2.6998,2.7308,2.8623,2.9197,2.9419,2.9702,2.9792,2.9792,2.9792,2.9792,2.9792,2.9792,2.9792,2.9792,2.9792,2.9792,2.9792,2.9792,2.9792,2.9792,2.9792,2.9792,2.9792,2.9792,2.9792,2.9792,2.9792,3.0394,3.0934,3.0934,3.1901,3.2777,3.2773,3.3579,3.4594,3.5963,3.6439,3.7218,3.8634,3.8723,3.8649,3.8797,3.9535,4.0068,4.0182,4.0956,4.1848,4.2629,4.2495,4.2628,4.3248,4.3072,4.285,4.2688,4.2769,4.2983,4.3264,4.3019,4.3505,4.4501,4.5819,4.6706,0.0,0.0,0.0,0.0,0.0,0.0,1.9075,1.9075,1.9075,0.0,0.0,0.0,0.0,0.0,0.0,0.0,0.0,0.0,0.0,0.0,0.0,0.0,0.0,0.0,2.3745,2.4264,2.5146,2.6383,2.6339,2.6131,2.591,2.591,2.591,2.591,2.5535,2.5382,2.5606,2.5382,2.5382,2.5606,2.5382,2.5382,2.5606,2.5382,2.5312,2.5312,2.5372,2.5661,2.6142,2.6767,2.7083,2.7468,2.8648,2.9197,2.9509,2.9702,2.9792,2.9792,2.9792,2.9792,2.9792,2.9792,2.9792,2.9792,2.9792,2.9792,2.9792,2.9792,2.9792,2.9792,2.9792,2.9792,2.9792,2.9792,2.9792,2.9792,2.9792,3.0633,3.1386,3.1386,3.1888,3.2466,3.3066,3.4428,3.5534,3.5935,3.7155,3.8188,3.8797,3.887,3.8885,3.8974,3.9876,4.0621,4.0971,4.1933,4.2559,4.2739,4.309,4.317,4.2769,4.309,4.309,4.2769,4.2989,4.3426,4.4109,4.393,4.4566,4.6051,4.7076,4.7441,0.0,0.0,0.0,0.0,0.0,0.0,1.9075,1.9075,1.9075,0.0,0.0,0.0,0.0,0.0,0.0,0.0,0.0,0.0,0.0,0.0,0.0,0.0,0.0,0.0,2.3891,2.3963,2.4696,2.6383,2.6465,2.6327,2.6131,2.598,2.591,2.591,2.5535,2.5382,2.5606,2.5382,2.5465,2.5828,2.5453,2.5453,2.584,2.5465,2.5312,2.5336,2.5757,2.5997,2.6178,2.7164,2.7791,2.8145,2.8795,2.9378,2.9702,2.9792,2.9792,2.9792,2.9792,2.9792,2.9792,2.9792,2.9792,2.9792,2.9792,2.9792,2.9792,2.9792,2.9792,2.9792,2.9792,2.9792,2.9792,2.9792,2.9792,2.9792,2.9792,3.0633,3.1386,3.1386,3.2369,3.3174,3.33,3.3713,3.4581,3.6253,3.6596,3.7309,3.9031,3.9104,3.9297,3.9995,4.0801,4.1459,4.204,4.2682,4.3115,4.317,4.325,4.325,4.317,4.325,4.325,4.317,4.3773,4.437,4.5027,4.4861,4.5278,4.6252,4.7016,4.7332,0.0,0.0,0.0,1.9604,0.0,0.0,0.0,1.9075,1.9075,1.9075,1.9075,1.9075,1.9075,0.0,0.0,0.0,0.0,0.0,0.0,0.0,0.0,0.0,0.0,0.0,2.394,2.4264,2.4992,2.6383,2.6533,2.6465,2.6339,2.605,2.598,2.6188,2.5594,2.5453,2.5758,2.5453,2.5535,2.591,2.5453,2.5535,2.5923,2.5731,2.5709,2.5733,2.6274,2.6659,2.6947,2.7565,2.8171,2.875,2.902,2.93,2.9611,2.9779,2.9792,2.9792,2.9792,2.9792,2.9792,2.9792,2.9792,2.9792,2.9792,2.9792,2.9792,2.9792,2.9792,2.9792,2.9792,2.9792,2.9792,2.9792,3.0005,3.0131,2.9854,3.0846,3.1725,3.1612,3.2541,3.3398,3.3398,3.3797,3.4772,3.6332,3.683,3.7553,3.9192,3.9192,3.943,4.0322,4.0995,4.1654,4.2297,4.2955,4.3329,4.3329,4.3329,4.3329,4.3329,4.3329,4.3494,4.3808,4.4152,4.4811,4.5813,4.5729,4.6072,4.683,4.7145,4.7309,0.0,0.0,0.0,0.0,0.0,1.9928,0.0,0.0,0.0,1.9075,1.9075,1.9075,1.9075,1.9075,0.0,0.0,0.0,0.0,0.0,0.0,0.0,0.0,0.0,0.0,0.0,2.4567,2.5472,2.6452,2.6533,2.6533,2.6533,2.6188,2.6119,2.6465,2.5746,2.5535,2.591,2.5535,2.5535,2.591,2.5632,2.5681,2.6082,2.6239,2.6262,2.6286,2.6839,2.732,2.7729,2.8045,2.8492,2.9131,2.9131,2.9275,2.9509,2.9702,2.9792,2.9792,2.9792,2.9792,2.9792,2.9792,2.9792,2.9792,2.9792,2.9792,2.9792,2.9792,2.9792,2.9792,2.9792,2.988,2.9942,2.9942,3.0369,3.0645,3.0193,3.121,3.2256,3.1978,3.2784,3.3484,3.3484,3.405,3.5019,3.6174,3.6986,3.7872,3.9031,3.9192,3.9518,4.0322,4.0995,4.1654,4.2297,4.2955,4.3329,4.3329,4.3329,4.3329,4.3329,4.3449,4.3778,4.4302,4.4571,4.5244,4.6322,4.6456,4.6785,4.7309,4.7309,4.7309,0.0,0.0,0.0,0.0,2.0048,0.0,0.0,0.0,1.9075,1.9075,0.0,1.9075,1.9075,0.0,0.0,0.0,0.0,0.0,0.0,0.0,0.0,0.0,0.0,0.0,0.0,2.4425,2.5832,2.6414,2.6533,2.6533,2.6533,2.627,2.627,2.6465,2.5886,2.5676,2.591,2.5535,2.5535,2.591,2.5937,2.6239,2.6635,2.6944,2.6976,2.6863,2.7533,2.7799,2.7753,2.8433,2.8821,2.9131,2.9275,2.9521,2.9792,2.9792,2.9792,2.9792,2.9792,2.9792,2.9792,2.9792,2.9792,2.9792,2.9792,2.9792,2.9792,2.9792,2.9792,2.9792,2.9792,3.0156,3.052,3.052,3.0922,3.1286,3.1223,3.1902,3.2548,3.2485,3.3135,3.3628,3.3628,3.3979,3.4468,3.5305,3.6332,3.7295,3.8188,3.8958,3.9591,4.0337,4.0995,4.1654,4.2297,4.2955,4.3329,4.3329,4.3329,4.3329,4.3329,4.3898,4.4242,4.4317,4.5484,4.6172,4.6322,4.692,4.7234,4.7309,4.7309,4.7309,0.0,0.0,0.0,0.0,0.0,0.0,2.0274,0.0,1.9851,0.0,0.0,0.0,0.0,0.0,0.0,0.0,1.8827,0.0,0.0,0.0,0.0,0.0,0.0,0.0,0.0,0.0,0.0,0.0,2.5963,2.6101,2.6508,2.6339,2.627,2.6465,2.5898,2.5688,2.591,2.5606,2.5764,2.6377,2.6299,2.6566,2.7201,2.7505,2.7521,2.7428,2.8167,2.8319,2.8198,2.8718,2.904,2.9131,2.9521,2.9702,2.9792,2.9792,2.9792,2.9792,2.9792,2.9792,2.9792,2.9792,2.9792,2.9792,2.9792,2.9792,2.9792,2.9792,2.9792,2.9792,2.9792,2.9967,3.0143,3.0143,3.0545,3.0947,3.0947,3.1789,3.2644,3.2727,3.3257,3.381,3.405,3.4063,3.4397,3.5413,3.6346,3.7204,3.8113,3.8885,3.9813,4.0861,4.122,4.1803,4.2836,4.3165,4.3329,4.3329,4.3329,4.3329,4.3329,4.3958,4.4496,4.487,4.5843,4.6516,4.689,4.7174,4.7309,4.7309,4.7309,4.7309,2.2018,0.0,0.0,0.0,0.0,0.0,0.0,0.0,0.0,0.0,0.0,0.0,0.0,0.0,1.8992,0.0,0.0,1.8982,0.0,0.0,0.0,0.0,0.0,0.0,0.0,0.0,0.0,0.0,0.0,2.5774,2.6201,2.6252,2.6339,2.6533,2.6037,2.5902,2.619,2.5978,2.6247,2.6943,2.6846,2.7127,2.7679,2.8053,2.8077,2.7957,2.8555,2.8724,2.851,2.8895,2.9131,2.9131,2.9624,2.9792,2.9792,2.9792,2.9792,2.9792,2.9792,2.9792,2.9792,2.9792,2.9792,2.9792,2.9792,2.9792,2.9792,2.9792,2.9792,2.9792,2.9792,2.9905,3.0018,3.0018,3.0432,3.0871,3.1022,3.1839,3.2682,3.3085,3.3527,3.3979,3.4314,3.4243,3.4481,3.5507,3.636,3.7218,3.8127,3.8885,3.9843,4.0995,4.1265,4.1833,4.297,4.3225,4.3329,4.3329,4.3329,4.3419,4.3599,4.4227,4.49,4.5559,4.6247,4.683,4.7309,4.7309,4.7309,4.7309,4.7309,4.7399,0.0,0.0,0.0,2.1863,0.0,0.0,0.0,0.0,2.042,0.0,0.0,0.0,0.0,1.9453,1.8785,0.0,0.0,0.0,0.0,0.0,0.0,0.0,0.0,0.0,0.0,0.0,0.0,0.0,0.0,0.0,2.5624,2.6151,2.6465,2.6533,2.627,2.6449,2.6946,2.6744,2.6955,2.7496,2.7785,2.7952,2.7989,2.8524,2.8621,2.8486,2.8724,2.8724,2.851,2.8895,2.9131,2.9131,2.9624,2.9792,2.9792,2.9792,2.9792,2.9792,2.9792,2.9792,2.9792,2.9792,2.9792,2.9792,2.9792,2.9792,2.9792,2.9792,2.9792,2.9792,2.9792,3.0193,3.0583,3.0583,3.0984,3.1512,3.2051,3.2369,3.2797,3.35,3.3882,3.416,3.4397,3.4243,3.4481,3.5507,3.6373,3.7246,3.8127,3.8885,3.9679,4.0367,4.0995,4.1654,4.2327,4.297,4.3329,4.3329,4.3329,4.3614,4.4257,4.4915,4.5589,4.6277,4.6935,4.7279,4.7309,4.7309,4.7309,4.7309,4.7309,4.7653,0.0,0.0,2.2025,2.1883,0.0,0.0,0.0,0.0,0.0,0.0,0.0,0.0,0.0,0.0,0.0,0.0,0.0,0.0,0.0,0.0,0.0,0.0,0.0,0.0,0.0,0.0,0.0,0.0,2.4782,0.0,0.0,2.6151,2.6533,2.6533,2.627,2.6462,2.6959,2.6912,2.7371,2.8287,2.8233,2.835,2.8704,2.8797,2.8724,2.851,2.8724,2.8724,2.8736,2.8973,2.9197,2.9353,2.9702,2.9792,2.9792,2.9792,2.9792,2.9792,2.9792,2.9792,2.9792,2.9792,2.9792,2.9792,2.9792,2.9792,2.9792,2.9792,2.9792,2.988,3.0244,3.0206,3.0168,3.0532,3.0758,3.1022,3.1549,3.2282,3.2963,3.361,3.4063,3.4314,3.4397,3.4314,3.4397,3.4799,3.6042,3.6986,3.7295,3.8927,4.0322,4.098,4.1639,4.2297,4.2955,4.321,4.3329,4.3329,4.3329,4.3629,4.4287,4.4945,4.5618,4.6307,4.698,4.7309,4.7309,4.7309,4.7309,4.7309,4.7309,4.7429,2.2025,2.1949,0.0,2.1807,2.1883,0.0,2.1807,0.0,0.0,0.0,0.0,0.0,0.0,0.0,0.0,0.0,0.0,0.0,0.0,1.9075,0.0,0.0,0.0,0.0,0.0,0.0,0.0,2.3665,2.4393,2.4971,0.0,0.0,2.6533,2.6533,2.6596,2.6876,2.7413,2.7613,2.8089,2.8845,2.8691,2.8721,2.8895,2.8736,2.8657,2.851,2.8327,2.8235,2.8315,2.8223,2.8291,2.8518,2.8712,2.8803,2.8882,2.9546,2.9792,2.9792,2.9792,2.9792,2.9792,2.9792,2.9792,2.9792,2.9792,2.9792,2.9829,3.003,2.9942,2.9917,3.047,3.0357,3.0118,3.0281,3.062,3.0984,3.1486,3.2155,3.2963,3.3694,3.4063,3.4314,3.4397,3.4397,3.4634,3.5169,3.6188,3.7197,3.8055,3.9489,4.0741,4.1639,4.2102,4.2626,4.3284,4.3329,4.3329,4.3329,4.3554,4.3988,4.4631,4.5304,4.6082,4.6995,4.7204,4.7414,4.7653,4.7414,4.7309,4.7309,4.7549,4.7653]},{"header":{"parameterUnit":"m.s-1","parameterCategory":1,"la1":30.6,"la2":29.2853,"lo1":-89.7004,"lo2":-87.6739,"dy":0.0162,"dx":0.0183,"nx":112,"ny":82,"refTime":"2023-05-24T00:00:00:Z","depth":0,"parameterNumber":3,"parameterNumberName":"V-component_of_WINDS"},"data":[0.0,0.0,0.0,0.0,0.0,0.0,0.0,0.0,0.0,0.0,0.0,0.0,0.0,0.0,0.0,0.0,0.0,0.0,0.0,0.0,0.0,0.0,0.0,0.0,0.0,0.0,0.0,0.0,0.0,0.0,0.0,0.0,0.0,0.0,0.0,0.0,0.0,0.0,0.0,0.0,0.0,0.0,0.0,0.0,0.0,0.0,0.0,0.0,0.0,0.0,0.0,0.0,0.0,0.0,0.0,0.0,0.0,0.0,0.0,0.0,0.0,0.0,0.0,0.0,0.0,0.0,0.0,0.0,0.0,0.0,0.0,0.0,0.0,0.0,0.0,0.0,0.0,0.0,0.0,0.0,0.0,0.0,0.0,0.0,0.0,0.0,0.0,0.0,0.0,0.0,1.7696,1.9173,2.121,2.2797,2.3685,2.3254,2.2307,2.0789,0.0,0.0,0.0,0.0,0.0,0.0,0.0,0.0,0.0,0.0,0.0,0.0,0.0,0.0,0.0,0.0,0.0,0.0,0.0,0.0,0.0,0.0,0.0,0.0,0.0,0.0,0.0,0.0,0.0,0.0,0.0,0.0,0.0,0.0,0.0,0.0,0.0,0.0,0.0,0.0,0.0,0.0,0.0,0.0,0.0,0.0,0.0,0.0,0.0,0.0,0.0,0.0,0.0,0.0,0.0,0.0,0.0,0.0,0.0,0.0,0.0,0.0,0.0,0.0,0.0,0.0,0.0,0.0,0.0,0.0,0.0,0.0,0.0,0.0,0.0,0.0,0.0,0.0,0.0,0.0,0.0,0.0,0.0,0.0,0.0,0.0,0.0,0.0,0.0,0.0,0.0,0.0,0.0,0.0,0.0,0.0,0.0,0.0,0.0,0.0,0.0,0.0,0.0,0.0,1.8768,2.1477,2.2496,2.3179,2.357,2.3524,2.2688,2.0804,0.0,0.0,0.0,0.0,0.0,0.0,0.0,0.0,0.0,0.0,0.0,0.0,0.0,0.0,0.0,0.0,0.0,0.0,0.0,0.0,0.0,0.0,0.0,0.0,0.0,0.0,0.0,0.0,0.0,0.0,0.0,0.0,0.0,0.0,0.0,0.0,0.0,0.0,0.0,0.0,0.0,0.0,0.0,0.0,0.0,0.0,0.0,0.0,0.0,0.0,0.0,0.0,0.0,0.0,0.0,0.0,0.0,0.0,0.0,0.0,0.0,0.0,0.0,0.0,0.0,0.0,0.0,0.0,0.0,0.0,0.0,0.0,0.0,0.0,0.0,0.0,0.0,0.0,0.0,0.0,0.0,0.0,0.0,0.0,0.0,0.0,0.0,0.0,0.0,0.0,0.0,0.0,0.0,0.0,0.0,0.0,0.0,0.0,0.0,0.0,0.0,0.0,0.0,1.7926,1.9288,2.1569,2.2245,2.2858,2.3538,2.2966,2.2188,2.1306,2.0917,0.0,0.0,0.0,0.0,0.0,0.0,0.0,0.0,0.0,0.0,0.0,0.0,0.0,0.0,0.0,0.0,0.0,0.0,0.0,0.0,0.0,0.0,0.0,0.0,0.0,0.0,0.0,0.0,0.0,0.0,0.0,0.0,0.0,0.0,0.0,0.0,0.0,0.0,0.0,0.0,0.0,0.0,0.0,0.0,0.0,0.0,0.0,0.0,0.0,0.0,0.0,0.0,0.0,0.0,0.0,0.0,0.0,0.0,0.0,0.0,0.0,0.0,0.0,0.0,0.0,0.0,0.0,0.0,0.0,0.0,0.0,0.0,0.0,0.0,0.0,0.0,0.0,0.0,0.0,0.0,0.0,0.0,0.0,0.0,0.0,0.0,0.0,0.0,0.0,0.0,0.0,0.0,0.0,0.0,0.0,0.0,0.0,0.0,0.0,0.0,0.0,0.0,1.849,1.9804,2.1217,2.1773,2.2361,2.3076,2.2263,2.1635,2.147,2.1141,0.0,0.0,0.0,0.0,0.0,0.0,0.0,0.0,0.0,0.0,0.0,0.0,0.0,0.0,0.0,0.0,0.0,0.0,0.0,0.0,0.0,0.0,0.0,0.0,0.0,0.0,0.0,0.0,0.0,0.0,0.0,0.0,0.0,0.0,0.0,0.0,0.0,0.0,0.0,0.0,0.0,0.0,0.0,0.0,0.0,0.0,0.0,0.0,0.0,0.0,0.0,0.0,0.0,0.0,0.0,0.0,0.0,0.0,0.0,0.0,0.0,0.0,0.0,0.0,0.0,0.0,0.0,0.0,0.0,0.0,0.0,0.0,0.0,0.0,0.0,0.0,0.0,0.0,0.0,0.0,0.0,0.0,0.0,0.0,0.0,0.0,0.0,0.0,0.0,0.0,0.0,0.0,0.0,0.0,0.0,0.0,0.0,0.0,0.0,0.0,0.0,0.0,1.94,2.0617,2.126,2.1656,2.19,2.1834,2.1739,2.144,2.0827,2.1321,0.0,0.0,0.0,0.0,0.0,0.0,0.0,0.0,0.0,0.0,0.0,0.0,0.0,0.0,0.0,0.0,0.0,0.0,0.0,0.0,0.0,0.0,0.0,0.0,0.0,0.0,0.0,0.0,0.0,0.0,0.0,0.0,0.0,0.0,0.0,0.0,0.0,0.0,0.0,0.0,0.0,0.0,0.0,0.0,0.0,0.0,0.0,0.0,0.0,0.0,0.0,0.0,0.0,0.0,0.0,0.0,0.0,0.0,0.0,0.0,0.0,0.0,0.0,0.0,0.0,0.0,0.0,0.0,0.0,0.0,0.0,0.0,0.0,0.0,0.0,0.0,0.0,0.0,0.0,0.0,0.0,0.0,0.0,0.0,0.0,0.0,0.0,0.0,0.0,0.0,0.0,0.0,0.0,0.0,0.0,0.0,0.0,0.0,0.0,0.0,0.0,0.0,1.9324,2.0075,0.0,2.0979,2.1228,2.1102,2.1455,2.159,2.1335,0.0,0.0,0.0,0.0,0.0,0.0,0.0,0.0,0.0,0.0,0.0,0.0,0.0,0.0,0.0,0.0,0.0,0.0,0.0,0.0,0.0,0.0,0.0,0.0,0.0,0.0,0.0,0.0,0.0,0.0,0.0,0.0,0.0,0.0,0.0,0.0,0.0,0.0,0.0,0.0,0.0,0.0,0.0,0.0,0.0,0.0,0.0,0.0,0.0,0.0,0.0,0.0,0.0,0.0,0.0,0.0,0.0,0.0,0.0,0.0,0.0,0.0,0.0,0.0,0.0,0.0,0.0,0.0,0.0,0.0,0.0,0.0,0.0,0.0,0.0,0.0,0.0,0.0,0.0,0.0,0.0,0.0,0.0,0.0,0.0,0.0,0.0,0.0,0.0,0.0,0.0,0.0,0.0,0.0,0.0,0.0,0.0,0.0,0.0,0.0,0.0,0.0,1.8992,1.98,2.0343,0.0,2.0688,2.0818,2.0714,2.1321,2.1695,2.1695,0.0,0.0,0.0,0.0,0.0,0.0,0.0,0.0,0.0,0.0,0.0,0.0,0.0,0.0,0.0,0.0,0.0,0.0,0.0,0.0,0.0,0.0,0.0,0.0,0.0,0.0,0.0,0.0,0.0,0.0,0.0,0.0,0.0,0.0,0.0,0.0,0.0,0.0,0.0,0.0,0.0,0.0,0.0,0.0,0.0,0.0,0.0,0.0,0.0,0.0,0.0,0.0,0.0,0.0,0.0,0.0,0.0,0.0,0.0,0.0,0.0,0.0,0.0,0.0,0.0,0.0,0.0,0.0,0.0,0.0,0.0,0.0,0.0,0.0,0.0,0.0,0.0,0.0,0.0,0.0,0.0,0.0,0.0,0.0,0.0,0.0,0.0,0.0,0.0,0.0,0.0,0.0,0.0,0.0,0.0,0.0,0.0,0.0,0.0,0.0,0.0,0.0,1.9772,2.0981,2.1685,2.1143,2.0848,2.0707,2.0722,2.1321,2.1695,0.0,0.0,0.0,0.0,0.0,0.0,0.0,0.0,0.0,0.0,0.0,0.0,0.0,0.0,0.0,0.0,0.0,0.0,0.0,0.0,0.0,0.0,0.0,0.0,0.0,0.0,0.0,0.0,0.0,0.0,0.0,0.0,0.0,0.0,0.0,0.0,0.0,0.0,0.0,0.0,0.0,0.0,0.0,0.0,0.0,0.0,0.0,0.0,0.0,0.0,0.0,0.0,0.0,0.0,0.0,0.0,0.0,0.0,0.0,0.0,0.0,0.0,0.0,0.0,0.0,0.0,0.0,0.0,0.0,0.0,0.0,0.0,0.0,0.0,0.0,0.0,0.0,0.0,0.0,0.0,0.0,0.0,0.0,0.0,0.0,0.0,0.0,0.0,0.0,0.0,0.0,0.0,0.0,0.0,0.0,0.0,0.0,0.0,0.0,0.0,0.0,0.0,0.0,2.121,2.1226,2.1114,2.0857,2.0303,2.0183,2.0677,2.1321,2.1889,2.2368,0.0,0.0,0.0,0.0,0.0,0.0,0.0,0.0,0.0,0.0,0.0,0.0,0.0,0.0,0.0,0.0,0.0,0.0,0.0,0.0,0.0,0.0,0.0,0.0,0.0,0.0,0.0,0.0,0.0,0.0,0.0,0.0,0.0,0.0,0.0,0.0,0.0,0.0,0.0,0.0,0.0,0.0,0.0,0.0,0.0,0.0,0.0,0.0,0.0,0.0,0.0,0.0,0.0,0.0,0.0,0.0,0.0,0.0,0.0,0.0,0.0,0.0,0.0,0.0,0.0,0.0,0.0,0.0,0.0,0.0,0.0,0.0,0.0,0.0,0.0,0.0,0.0,0.0,0.0,0.0,0.0,0.0,0.0,0.0,0.0,0.0,0.0,0.0,0.0,0.0,0.0,0.0,0.0,0.0,0.0,0.0,0.0,0.0,0.0,0.0,0.0,0.0,2.2235,2.19,2.158,2.1505,2.0887,2.0662,2.1066,2.171,2.2263,2.2694,0.0,0.0,0.0,0.0,0.0,0.0,0.0,0.0,0.0,0.0,0.0,0.0,0.0,0.0,0.0,0.0,0.0,0.0,0.0,0.0,0.0,0.0,0.0,0.0,0.0,0.0,0.0,0.0,0.0,0.0,0.0,0.0,0.0,0.0,0.0,0.0,0.0,0.0,0.0,0.0,0.0,0.0,0.0,0.0,0.0,0.0,0.0,0.0,0.0,0.0,0.0,0.0,0.0,0.0,0.0,0.0,0.0,0.0,0.0,0.0,0.0,0.0,0.0,0.0,0.0,0.0,0.0,0.0,0.0,0.0,0.0,0.0,0.0,0.0,0.0,0.0,0.0,0.0,0.0,0.0,0.0,0.0,0.0,0.0,0.0,0.0,0.0,0.0,0.0,0.0,0.0,0.0,0.0,0.0,0.0,0.0,0.0,0.0,0.0,0.0,0.0,0.0,2.2979,2.2801,2.2724,2.2724,2.2084,2.1724,2.1784,2.2338,2.2739,2.2798,0.0,0.0,0.0,0.0,0.0,0.0,0.0,0.0,0.0,0.0,0.0,0.0,0.0,0.0,0.0,0.0,0.0,0.0,0.0,0.0,0.0,0.0,0.0,0.0,0.0,0.0,0.0,0.0,0.0,0.0,0.0,0.0,0.0,0.0,0.0,0.0,0.0,0.0,0.0,0.0,0.0,0.0,0.0,0.0,0.0,0.0,0.0,0.0,0.0,0.0,0.0,0.0,0.0,0.0,0.0,0.0,0.0,0.0,0.0,0.0,1.6327,0.0,0.0,0.0,0.0,0.0,0.0,0.0,0.0,0.0,0.0,0.0,0.0,0.0,0.0,0.0,0.0,0.0,0.0,0.0,0.0,0.0,0.0,0.0,0.0,0.0,0.0,0.0,0.0,0.0,0.0,0.0,0.0,0.0,0.0,0.0,0.0,0.0,0.0,0.0,0.0,0.0,2.3421,2.3014,2.2724,2.2724,2.2084,2.1904,2.2428,2.2634,2.2877,2.337,2.3535,0.0,0.0,0.0,0.0,0.0,0.0,0.0,0.0,0.0,0.0,0.0,0.0,0.0,0.0,0.0,0.0,0.0,0.0,0.0,0.0,0.0,0.0,0.0,0.0,0.0,0.0,0.0,0.0,0.0,0.0,0.0,0.0,0.0,0.0,0.0,0.0,0.0,0.0,0.0,0.0,0.0,0.0,0.0,0.0,0.0,0.0,0.0,0.0,0.0,0.0,0.0,0.0,0.0,0.0,0.0,0.0,0.0,0.0,0.0,0.0,1.7621,0.0,0.0,0.0,0.0,0.0,0.0,0.0,0.0,0.0,0.0,0.0,0.0,0.0,0.0,0.0,0.0,0.0,0.0,0.0,0.0,0.0,0.0,0.0,0.0,0.0,0.0,0.0,0.0,0.0,0.0,0.0,0.0,0.0,0.0,0.0,0.0,0.0,0.0,0.0,0.0,2.3999,2.3535,2.3251,2.358,2.3011,2.2742,2.3086,2.3116,2.3251,2.358,2.3595,0.0,0.0,0.0,0.0,0.0,0.0,0.0,0.0,0.0,0.0,0.0,0.0,0.0,0.0,0.0,0.0,0.0,0.0,0.0,0.0,0.0,0.0,0.0,0.0,0.0,0.0,0.0,0.0,0.0,0.0,0.0,0.0,0.0,0.0,0.0,0.0,0.0,0.0,0.0,0.0,0.0,0.0,0.0,0.0,0.0,0.0,0.0,0.0,0.0,0.0,0.0,0.0,0.0,2.2441,2.2237,2.2322,2.1836,2.1536,2.1372,2.0653,1.9858,1.9019,0.0,0.0,0.0,0.0,0.0,0.0,0.0,0.0,0.0,0.0,0.0,0.0,0.0,0.0,0.0,0.0,0.0,0.0,0.0,0.0,0.0,0.0,0.0,0.0,0.0,2.1694,2.1774,0.0,0.0,0.0,0.0,0.0,0.0,0.0,0.0,0.0,0.0,0.0,0.0,2.4717,2.4298,2.4118,2.4537,2.4118,2.3729,2.361,2.3595,2.3595,2.3595,2.3595,2.3595,0.0,0.0,0.0,0.0,0.0,0.0,0.0,0.0,0.0,0.0,0.0,0.0,0.0,0.0,0.0,0.0,0.0,0.0,0.0,0.0,0.0,0.0,0.0,0.0,0.0,0.0,0.0,0.0,0.0,0.0,0.0,0.0,2.0976,2.1053,0.0,0.0,0.0,0.0,0.0,0.0,0.0,0.0,0.0,0.0,0.0,0.0,0.0,2.2911,2.3385,2.3885,2.4423,2.5012,2.5397,2.5549,2.5549,2.5485,2.5179,2.4645,2.4583,0.0,2.0526,1.9492,0.0,0.0,0.0,0.0,0.0,0.0,0.0,0.0,0.0,0.0,0.0,0.0,0.0,0.0,0.0,0.0,0.0,0.0,0.0,0.0,0.0,0.0,2.2332,2.24,2.2807,2.3127,0.0,2.2262,2.1818,2.2111,0.0,0.0,0.0,0.0,0.0,0.0,0.0,0.0,2.539,2.5405,2.5166,2.4627,2.4507,2.4253,2.3655,2.3595,2.3595,2.3595,2.3595,2.3595,2.3595,2.3595,0.0,0.0,0.0,0.0,0.0,0.0,0.0,0.0,0.0,0.0,0.0,0.0,0.0,0.0,0.0,0.0,0.0,0.0,0.0,0.0,0.0,0.0,0.0,0.0,0.0,0.0,0.0,0.0,0.0,2.0563,2.1128,2.1501,2.1716,2.2125,0.0,0.0,0.0,0.0,0.0,0.0,0.0,0.0,0.0,2.4715,2.5049,2.5345,2.5589,2.5833,2.6257,2.6822,2.7053,2.7169,2.7169,2.7169,2.6681,2.5833,2.5833,2.4962,2.3397,2.1934,2.0661,1.9587,0.0,0.0,0.0,0.0,0.0,1.8689,1.8956,1.9168,0.0,0.0,0.0,0.0,0.0,0.0,0.0,0.0,0.0,0.0,0.0,0.0,0.0,2.4515,2.4622,2.4623,2.4709,2.4163,2.3482,0.0,2.3385,2.3993,2.444,0.0,0.0,0.0,0.0,2.542,2.6078,2.5839,2.5644,2.5719,2.5405,2.4911,2.4238,2.4178,2.4014,2.3625,2.3595,2.3595,2.3595,2.3595,2.3595,0.0,0.0,0.0,0.0,0.0,0.0,0.0,0.0,0.0,0.0,0.0,0.0,0.0,0.0,0.0,0.0,0.0,0.0,0.0,0.0,0.0,0.0,0.0,0.0,0.0,0.0,0.0,0.0,2.0923,2.1604,2.1982,2.242,2.2974,0.0,0.0,0.0,0.0,0.0,0.0,2.5488,2.5931,2.6542,2.7287,2.7577,2.7878,2.8224,2.8224,2.8379,2.8747,2.8747,2.862,2.8492,2.8492,2.795,2.6982,2.6827,2.6518,2.5909,2.3903,2.2286,2.102,2.0266,1.972,1.936,1.9503,1.9561,1.9615,1.9976,2.0172,2.0237,2.0237,0.0,2.03,1.9998,0.0,0.0,0.0,0.0,2.2936,2.424,2.4887,2.548,2.6249,2.6036,2.5665,2.5828,2.557,2.5025,0.0,2.4647,2.5357,2.5456,0.0,0.0,0.0,0.0,2.6156,2.6801,2.6471,2.6291,2.6557,2.6281,2.571,2.4941,2.4972,2.4717,2.3909,2.4029,2.4029,2.3864,2.3864,2.3864,2.3864,0.0,0.0,0.0,0.0,0.0,0.0,0.0,0.0,0.0,0.0,0.0,0.0,0.0,0.0,0.0,0.0,0.0,0.0,0.0,0.0,0.0,0.0,0.0,0.0,0.0,0.0,0.0,0.0,0.0,2.2413,2.3696,0.0,0.0,0.0,0.0,2.5166,2.6582,2.7647,2.8201,2.8424,2.9096,3.0305,2.9742,2.9978,3.1288,3.1302,3.1195,3.104,3.104,3.0641,2.9973,2.9973,2.9647,2.9118,2.8543,2.7968,2.7248,2.49,2.3754,2.3355,2.1883,2.1118,2.0726,2.0246,2.0063,2.0063,2.0096,2.0302,2.0571,2.0571,2.0828,2.1158,2.1135,2.1416,0.0,0.0,2.3629,2.4732,2.5327,2.6131,2.6782,2.687,2.6348,2.5887,2.5887,2.574,2.555,0.0,2.5712,2.6075,2.688,0.0,2.6144,2.7667,2.7206,2.6992,2.7655,2.7715,2.7409,2.6662,2.6959,2.6749,2.5661,2.6016,2.5817,2.4612,2.5166,2.5226,2.4567,2.4522,2.4522,2.4522,2.3924,0.0,0.0,0.0,0.0,0.0,0.0,0.0,0.0,0.0,0.0,0.0,0.0,0.0,0.0,0.0,0.0,0.0,0.0,0.0,0.0,0.0,0.0,0.0,0.0,0.0,0.0,0.0,0.0,2.457,2.5722,0.0,2.6206,2.6362,2.6492,2.67,2.7236,2.7789,2.8358,2.9194,2.9837,3.0234,3.0698,3.1294,3.1873,3.1405,3.1357,3.1762,3.1296,3.0956,3.0686,3.0686,3.0372,2.981,2.9601,2.8974,2.7994,2.6751,2.5588,2.4532,2.3594,2.2929,2.2484,2.1978,2.1789,2.1744,2.1361,2.1314,2.1399,2.1069,2.1323,2.1717,2.2092,2.2574,2.3111,2.3791,2.4374,2.4992,2.606,2.6484,2.6772,2.7569,2.6978,2.6293,2.6465,2.6397,2.6361,2.6534,2.6696,2.6994,2.758,2.7433,2.7443,2.7944,2.7758,2.7648,2.7875,2.784,2.7784,2.7804,2.7902,2.7767,2.7239,2.7087,2.6747,2.6243,2.5834,2.5634,2.5757,2.5439,2.5061,2.4597,2.4388,2.4044,0.0,0.0,0.0,0.0,0.0,0.0,0.0,0.0,0.0,0.0,0.0,0.0,0.0,0.0,0.0,0.0,0.0,0.0,0.0,0.0,0.0,0.0,0.0,0.0,0.0,0.0,2.5696,2.6334,2.7419,2.8124,2.8124,2.8294,2.8546,2.9061,2.9522,3.0159,3.1019,3.1752,3.2249,3.2258,3.2722,3.2905,3.2847,3.2605,3.239,3.2074,3.2087,3.175,3.0986,3.1259,3.0869,3.0124,2.9928,2.9287,2.8333,2.7771,2.6881,2.5832,2.4843,2.4161,2.3701,2.3191,2.2877,2.2604,2.2099,2.1878,2.1823,2.1532,2.1781,2.2278,2.2835,2.337,2.3993,2.4988,2.5511,2.5959,2.6986,2.7216,2.7301,2.7927,2.7287,2.6635,2.703,2.7164,2.7237,2.7409,2.7527,2.7745,2.8054,2.8152,2.8152,2.8103,2.8103,2.8054,2.802,2.7905,2.8024,2.8415,2.8496,2.8545,2.8426,2.8243,2.7929,2.7486,2.7039,2.6765,2.6718,2.652,2.5986,2.4971,2.4701,2.4507,2.4268,0.0,0.0,0.0,0.0,0.0,0.0,0.0,0.0,0.0,0.0,0.0,0.0,0.0,0.0,0.0,0.0,0.0,0.0,0.0,0.0,0.0,0.0,0.0,2.4295,2.5707,2.7,2.7615,2.8699,2.9392,2.9431,2.9928,3.0818,3.22,3.3487,3.481,3.6228,3.6272,3.6362,3.647,3.5673,3.498,3.4341,3.5067,3.4356,3.2218,3.3547,3.3129,3.1061,3.1736,3.1355,3.0098,2.9549,2.8948,2.8333,2.7785,2.7549,2.7352,2.5794,2.482,2.4198,2.3749,2.3226,2.2695,2.2212,2.1993,2.1934,2.1962,2.2344,2.2817,2.3382,2.3923,2.4623,2.6065,2.7057,2.7762,2.8071,2.8391,2.8493,2.7902,2.7298,2.7003,2.7694,2.802,2.8222,2.8169,2.8237,2.8296,2.8363,2.8152,2.8103,2.8363,2.8299,0.0,2.8035,2.802,2.8088,2.8334,2.8842,2.912,2.912,2.9528,2.9327,2.8243,2.8756,2.859,2.7396,2.7839,2.7346,2.5644,2.494,2.4971,2.5615,0.0,0.0,0.0,0.0,0.0,0.0,0.0,0.0,0.0,0.0,0.0,0.0,0.0,0.0,0.0,0.0,0.0,0.0,0.0,0.0,0.0,0.0,2.6765,2.6608,2.8085,2.9706,3.1104,3.1548,3.2084,3.2908,3.2777,3.3066,3.4027,3.4421,3.4913,3.5449,3.5949,3.5994,3.5569,3.5266,3.5096,3.5009,3.4218,3.3782,3.3685,3.2989,3.2362,3.1809,3.1468,3.0882,3.0124,2.9967,2.9327,2.8373,2.8203,2.7902,2.743,2.6585,2.619,2.5963,2.5419,2.4888,2.4413,2.4268,2.3745,2.3116,2.3547,2.377,2.3973,2.4909,2.5757,2.6411,2.6582,2.6952,2.734,2.7207,2.7269,2.7397,2.7706,2.7636,2.7667,2.8183,2.8577,2.8941,2.928,2.9553,2.95,2.8565,2.8363,2.8314,2.8411,2.8299,0.0,2.8924,2.8624,2.8761,2.9785,2.9697,2.9766,3.007,2.9941,2.98,2.9835,2.9371,2.8949,2.8606,2.8358,2.7624,2.6333,2.5674,2.5435,0.0,0.0,0.0,0.0,0.0,0.0,0.0,0.0,0.0,0.0,0.0,0.0,0.0,0.0,0.0,0.0,0.0,0.0,0.0,0.0,0.0,0.0,2.7641,2.8869,2.9588,3.0568,3.1757,3.3221,3.3626,3.4136,3.5025,3.5152,3.5601,3.6369,3.6517,3.683,3.7388,3.7401,3.717,3.6577,3.6245,3.5796,3.5339,3.4524,3.407,3.3973,3.3339,3.2918,3.2648,3.1809,3.115,0.0,3.027,2.9614,2.8739,2.849,2.8177,0.0,0.0,0.0,0.0,0.0,2.5586,2.5117,2.5239,2.4878,2.4431,2.4921,2.5214,2.5497,2.64,2.7011,2.7486,2.7656,2.7838,2.7944,2.7645,2.7593,2.7636,2.7748,2.7776,2.8022,2.8728,2.9229,2.9678,3.0063,0.0,0.0,2.9427,2.9012,2.8735,2.8442,2.8529,2.8752,2.9164,2.9189,2.9534,3.064,3.0302,3.0263,3.0889,3.0422,0.0,0.0,0.0,2.9617,2.9393,2.8405,0.0,0.0,0.0,2.6303,2.6871,0.0,0.0,0.0,2.738,2.744,0.0,0.0,0.0,0.0,0.0,0.0,0.0,0.0,0.0,0.0,0.0,0.0,0.0,0.0,0.0,0.0,2.9614,3.0973,3.2647,3.2908,3.3378,3.4463,3.5012,3.5647,3.6389,3.7155,3.8033,3.8957,3.9176,3.9572,4.0397,0.0,0.0,0.0,0.0,3.6901,3.5594,3.5555,3.4986,3.3782,3.4177,3.4109,3.3506,3.2577,3.1833,3.1135,3.0474,2.981,2.9235,2.8699,2.8438,2.832,2.7758,2.7188,2.6714,2.6277,2.5828,2.5473,2.5794,0.0,0.0,2.6233,2.6634,2.7112,2.763,2.7802,2.7999,2.8812,2.9002,2.8976,2.8685,2.8647,2.8563,2.8015,2.7989,2.8363,2.9361,2.9944,3.0401,3.0794,3.1235,3.1289,3.0643,2.9981,2.9319,2.8719,2.9035,2.9281,2.9255,2.9727,3.036,3.1173,0.0,0.0,3.1649,3.1139,3.0758,3.0758,3.0716,3.0488,3.0097,2.8512,2.7904,2.8519,2.7497,2.7515,2.8712,2.8712,2.9011,2.9564,2.8981,2.8712,0.0,0.0,0.0,0.0,0.0,0.0,0.0,0.0,0.0,0.0,0.0,0.0,0.0,0.0,0.0,2.9497,3.1143,3.2633,3.3768,3.4449,3.5038,3.5691,3.5495,3.6207,3.837,3.8363,3.8849,4.044,4.0234,4.0209,4.0633,4.013,0.0,3.9657,3.8493,3.7729,3.7444,3.6451,3.5782,3.5494,0.0,0.0,3.3934,3.3143,3.2047,3.082,3.0618,3.0085,2.9274,2.9157,2.8817,2.832,2.7758,2.7469,2.7323,2.7255,2.7324,2.7499,2.7565,2.748,2.7395,2.7937,2.7867,2.7647,2.8255,2.8638,0.0,2.8443,2.8566,2.8671,2.8113,2.8324,2.8661,2.8535,2.9188,2.9995,3.0573,3.107,3.1543,3.1977,3.2143,3.1982,3.1305,3.0658,3.0181,3.0058,3.0032,3.0241,3.0883,3.0628,3.0876,3.2151,3.1871,3.183,3.2436,3.2348,3.2266,3.2266,3.1909,3.1681,3.1589,3.0411,2.9847,2.9986,2.9342,2.9131,2.94,2.94,2.946,2.9579,2.9445,2.94,0.0,0.0,0.0,0.0,0.0,0.0,0.0,0.0,0.0,0.0,0.0,2.5746,0.0,0.0,2.9732,3.1182,3.2528,3.3728,3.4566,3.4987,3.5402,3.597,3.6617,3.7542,3.8842,3.9871,4.0879,4.1726,4.171,4.1549,4.1366,4.0788,4.036,4.0011,3.9009,3.8341,3.8007,3.699,3.6371,3.6085,3.5008,3.461,3.4662,3.3227,3.2311,3.1952,3.1097,3.053,3.021,2.9402,2.8684,2.7928,2.7841,2.7802,2.7802,2.8,2.8197,2.8406,2.8522,2.8511,2.8496,2.8939,2.8878,2.8685,2.9002,2.9226,2.9296,2.899,2.903,2.9083,2.8774,2.8914,2.9153,2.9153,2.9732,3.0433,3.0911,3.1379,3.1838,3.2287,3.2398,3.2275,3.1951,3.1628,3.1182,3.052,3.0584,3.0869,3.1244,3.129,3.1719,3.2898,3.2444,3.2401,3.3181,3.2895,3.268,3.268,3.2455,3.2226,3.201,3.1177,3.0627,3.0423,2.9856,2.9729,3.0043,3.0043,3.0223,3.0552,3.0552,3.0372,0.0,0.0,0.0,0.0,0.0,0.0,0.0,2.406,2.4517,2.6151,2.704,2.7941,2.9353,3.0616,3.1806,3.2843,3.3834,3.4701,3.5264,3.5236,3.541,3.5892,3.7338,3.8514,3.9047,4.1107,4.2488,4.2663,4.2816,4.2636,4.2104,4.1298,4.0629,4.0081,3.9466,3.8857,3.8272,3.7638,3.7018,3.6473,3.52,3.4861,3.527,3.3367,3.2761,3.3101,3.1554,3.094,3.1023,2.96,2.8475,2.7814,2.8119,2.821,2.8341,2.8522,2.8651,2.8716,2.9035,2.9162,2.9226,2.9477,2.9602,2.9602,2.9602,2.9602,2.9602,2.9602,2.9602,2.9602,2.9602,2.9602,2.9602,2.9602,3.0021,3.0553,3.0911,3.1437,3.1951,3.2342,3.2398,3.2398,3.2398,3.2398,3.2028,3.0966,3.1152,3.1435,3.1381,3.1759,3.2302,3.3177,3.276,3.2882,3.3912,3.3458,3.311,3.311,3.311,3.2974,3.2557,3.1869,3.1306,3.098,3.0303,3.0208,3.0702,3.0702,3.0986,3.1482,3.1601,3.142,2.2122,2.2137,2.2309,2.2828,2.3063,2.3832,0.0,2.704,2.7406,2.8634,2.9758,3.0568,3.0764,3.2024,3.3249,3.3927,3.4915,3.5736,3.6232,3.5898,3.5831,3.6328,3.6769,3.7877,4.0139,4.119,4.2075,4.2924,4.2619,4.2356,4.2279,4.1214,4.0532,4.047,3.9794,3.941,3.9349,3.8673,3.7996,3.732,3.6693,3.5917,3.4942,3.4206,3.3451,3.269,3.1842,3.1242,3.0708,2.9645,2.9026,2.8758,2.8595,2.8716,2.8972,2.8716,2.878,2.9035,2.9099,2.9289,2.954,2.9602,2.9602,2.9602,2.9602,2.9602,2.9602,2.9602,2.9602,2.9602,2.9602,2.9602,2.9602,2.9602,3.0266,3.097,3.097,3.1709,3.2342,3.2398,3.2398,3.2398,3.2398,3.2398,3.2336,3.2198,3.2244,3.2235,3.2084,3.2048,3.2206,3.2641,3.2924,3.3553,3.4671,3.47,3.4651,3.4651,3.4651,3.4651,3.4603,3.3542,3.2961,3.2909,3.182,3.1287,3.1362,3.1362,3.1465,3.1482,3.2138,3.2362,2.2911,2.3325,2.388,2.4144,2.5681,2.7458,2.8946,2.9564,3.0336,3.2024,3.2327,3.2508,3.3288,3.4133,3.4848,0.0,3.571,3.6262,3.6874,3.6136,3.5764,3.651,3.6504,3.731,3.9474,4.089,4.1954,4.2692,4.2609,4.2272,4.1889,4.1392,4.0955,4.0539,4.0247,3.9924,3.9524,3.9231,3.8769,3.8077,3.6863,3.5986,3.5436,3.4203,3.3087,3.2206,3.2136,3.1357,3.0117,2.9613,2.9213,2.8852,2.8687,2.878,2.9099,2.9162,2.9289,2.9415,2.9415,2.9477,2.9602,2.9602,2.9602,2.9602,2.9602,2.9602,2.9602,2.9602,2.9602,2.9602,2.9602,2.9602,2.9602,2.9602,3.0312,3.1029,3.1029,3.1766,3.2398,3.2398,3.2398,3.2398,3.2398,3.2398,3.2521,3.2921,3.2588,3.2231,3.2191,3.1996,3.2038,3.2437,3.323,3.3917,3.4399,3.4691,3.4899,3.4899,3.4899,3.4899,3.4899,3.3834,3.3182,3.3182,3.2104,3.1719,3.2108,3.2108,3.2302,3.2677,3.2961,3.329,2.387,2.4668,2.5745,2.6296,2.8441,3.0661,3.1432,3.2236,3.3129,3.4526,3.4502,3.4358,3.4912,3.5411,3.5842,3.5804,3.6236,3.6767,3.7372,3.635,3.5944,3.6919,3.6468,3.6777,3.8502,4.0126,4.1309,4.1986,4.2032,4.1909,4.1617,4.1417,4.1063,4.0539,4.0524,4.0293,3.9801,3.9801,3.937,3.8508,3.6896,3.599,3.5569,3.3984,3.2933,3.2291,3.2263,3.1502,3.0333,2.9889,2.9646,2.943,2.9127,2.9219,2.9525,2.9547,2.9602,2.9602,2.9602,2.9602,2.9602,2.9602,2.9602,2.9602,2.9602,2.9602,2.9602,2.9602,2.9602,2.9602,2.9602,2.9602,2.9602,2.9602,3.0312,3.1029,3.1029,3.1766,3.2398,3.2398,3.2398,3.2459,3.2644,3.2675,3.2906,3.3598,3.3176,3.268,3.2497,3.2061,3.194,3.2342,3.314,3.3781,3.405,3.4448,3.4739,3.4899,3.5081,3.5149,3.4922,3.4198,3.3713,3.3497,3.254,3.2302,3.2781,3.2781,3.3036,3.3499,3.3679,3.4023,2.517,2.6341,2.8092,2.9551,3.0897,3.2325,3.4098,3.5068,3.5611,3.5305,3.5889,3.6084,3.4924,3.5555,3.5989,3.5493,3.6289,3.7211,3.7763,3.6841,3.6504,3.7651,3.659,3.628,0.0,3.8833,3.9862,4.0539,4.0586,4.0893,4.1555,4.094,4.0555,4.0524,4.0524,4.0524,4.0493,4.0493,3.9831,3.8508,3.736,3.6197,3.4905,3.3785,3.3312,3.3185,3.2208,3.1806,3.1764,3.0801,3.0542,3.0812,3.0204,3.0165,3.0367,2.9827,2.9602,2.9602,2.9602,2.9602,2.9602,2.9602,2.9602,2.9602,2.9602,2.9602,2.9602,2.9602,2.9602,2.9602,2.9602,2.9602,2.9602,2.9602,3.0312,3.1029,3.1029,3.1766,3.2398,3.2398,3.2398,3.2613,3.326,3.3367,3.3614,3.4337,3.4281,3.3903,3.3245,3.2391,3.194,3.2342,3.2453,3.2926,3.4,3.4101,3.4349,3.4851,3.5578,3.5695,3.5004,3.5131,3.4924,3.4291,3.3698,3.344,3.3469,3.3469,3.3469,3.3514,3.4143,3.4457,2.7948,2.9189,3.061,3.2162,3.3912,3.5541,3.657,3.7373,3.7794,3.7302,3.6672,3.5913,3.4917,3.5334,3.5842,3.5745,3.6735,3.7779,3.839,3.7734,3.7184,3.7029,3.6671,0.0,0.0,0.0,0.0,3.9139,3.9616,3.9955,4.0201,4.0416,4.0524,4.0524,4.0524,4.0524,4.0524,4.0524,4.0078,3.917,3.7135,3.539,3.3839,3.3437,3.3326,3.3312,3.2947,3.2639,3.2331,3.1186,3.0827,3.0798,2.979,2.9595,2.994,3.0136,2.9954,2.9602,2.9602,2.9602,2.9602,2.9602,2.9602,2.9673,3.0094,2.994,2.9687,3.0094,2.9926,2.9602,2.9602,2.9602,2.9665,3.0021,3.0872,3.1722,3.2064,3.3026,3.3767,3.3767,3.3767,3.3844,3.4075,3.4106,3.4198,3.4429,3.4327,3.3905,3.3016,3.3019,3.2989,3.2506,3.3157,3.3805,3.4185,3.4604,3.4892,3.5091,3.5316,3.539,3.5156,3.4804,3.4527,3.4278,3.3759,3.3709,3.4143,3.4143,3.4382,3.4831,3.5055,3.516,3.0748,3.2106,3.348,3.5007,3.6817,3.8252,3.8687,3.8998,3.8892,3.7699,3.6415,3.5141,3.376,3.4135,3.4603,3.4711,3.5824,3.7078,3.8208,3.7621,3.7218,3.7555,3.7101,3.6546,0.0,0.0,0.0,3.8123,3.8769,3.9262,3.9508,4.017,4.0524,4.0524,4.0524,4.0524,4.0524,4.0524,3.9841,3.8569,3.6556,3.4773,3.3326,3.3326,3.3326,3.3312,3.3087,3.2961,3.2834,3.1624,3.1374,3.1652,3.0429,3.021,3.0628,3.0797,3.0614,3.0249,3.001,2.9785,2.9602,2.9602,2.9602,2.9673,3.008,2.9926,2.9687,3.008,2.9912,2.9602,2.9602,2.9882,3.0287,3.0596,3.1687,3.2706,3.305,3.3829,3.4475,3.4475,3.4475,3.4552,3.4799,3.5029,3.5199,3.5123,3.4987,3.453,3.335,3.3547,3.3517,3.2916,3.3562,3.4073,3.4294,3.4659,3.4961,3.5203,3.5439,3.5508,3.5279,3.5146,3.4926,3.476,3.4375,3.4427,3.4846,3.4846,3.507,3.5504,3.5504,3.5504,3.3396,3.4969,3.6508,3.8091,3.9329,4.0216,4.0301,3.9772,3.8719,3.6517,3.517,3.3762,3.1687,3.2017,3.2602,3.2664,3.39,3.5511,3.7421,3.6737,3.6918,0.0,0.0,0.0,0.0,0.0,0.0,3.7554,0.0,3.88,3.9477,4.017,4.0524,4.0524,4.0524,4.0524,4.0524,4.0424,3.9252,3.6921,3.5604,3.4439,3.3368,3.3326,3.3326,3.3297,3.2707,3.2778,3.3227,3.2033,3.2216,3.3157,3.1963,3.185,3.23,3.1738,3.1527,3.1401,3.0825,3.0193,2.9645,2.9617,2.9602,2.9617,2.9645,2.9659,2.9659,2.9701,2.9701,2.9701,2.9701,3.0563,3.1368,3.143,3.267,3.3834,3.3895,3.4241,3.4568,3.4568,3.4568,3.4783,3.5414,3.6061,3.6414,3.6211,3.6211,3.5675,3.4197,3.3925,3.3743,3.3544,3.3574,3.3819,3.4342,3.4342,3.4593,3.5184,3.587,3.5998,3.5339,3.5968,3.6085,3.5504,3.5504,3.5504,3.5504,3.5504,3.5504,3.5504,3.5504,3.5504,3.4934,3.6663,3.8591,4.017,3.9986,3.955,3.9634,3.8411,3.6676,3.4555,3.3521,3.2394,3.0682,3.1475,3.2755,3.365,3.5454,0.0,3.8913,3.9228,0.0,3.9456,3.9066,3.8652,3.8308,3.8262,0.0,0.0,3.8415,3.88,3.9477,4.017,4.0524,4.0524,4.0524,4.0524,4.0524,3.9588,3.8577,3.7514,3.5822,3.4668,3.3986,3.3522,3.3326,3.3312,3.3157,3.3185,3.3255,3.2483,3.2356,3.2553,3.1794,3.1583,3.1766,3.2061,3.1893,3.1527,3.1822,3.1204,3.0221,2.9757,2.9602,2.9687,3.015,3.0291,3.0389,3.0867,3.1007,3.1138,3.1511,3.1789,3.2144,3.2956,3.3847,3.4652,3.4973,3.5554,3.5984,3.5984,3.5984,3.603,3.6199,3.6229,3.6274,3.6211,3.6006,3.5513,3.4619,3.4936,3.4946,3.434,3.4681,3.5045,3.5157,3.522,3.5284,3.541,3.5624,3.5604,3.5477,3.5642,3.5683,3.5504,3.5504,3.5504,3.5504,3.5504,3.5504,3.5504,3.5504,3.5504,3.6799,3.8311,3.9871,4.1097,4.0385,3.9281,3.9072,3.7213,3.497,3.2952,3.1697,3.0593,2.9362,3.0418,3.1686,3.2255,3.4775,3.698,3.8156,3.906,3.9724,3.9939,3.9693,0.0,3.8985,3.8954,3.8954,0.0,3.8954,3.9108,3.9493,4.017,4.0524,4.0524,4.0524,4.0524,4.0524,3.9274,3.8362,3.7765,3.6201,3.5022,3.4153,3.3888,3.3578,3.3326,0.0,3.3326,3.3269,3.2665,3.2567,3.275,3.2131,3.2061,3.2328,3.2679,3.2595,3.23,3.237,3.1949,3.1246,3.0642,3.0431,3.0445,3.0502,3.0726,3.0965,3.1036,3.1457,3.1852,3.2163,3.28,3.3513,3.4089,3.4911,3.5599,3.5861,3.6215,3.6492,3.6492,3.6414,3.6414,3.6492,3.6289,3.6085,3.6085,3.5894,3.5552,3.5078,3.5364,3.5454,3.4966,3.528,3.5504,3.5504,3.5504,3.5504,3.5504,3.5504,3.5504,3.5504,3.5504,3.5504,3.5504,3.5504,3.5504,3.5504,3.5504,3.5504,3.5504,3.5504,3.5504,3.8425,3.9603,4.0484,4.1238,4.0339,3.9046,3.8292,3.5907,3.3349,3.1536,3.0032,2.8839,2.8111,2.9241,3.0293,3.0403,3.3181,3.5707,3.6738,3.7908,3.9108,4.037,4.0016,3.9647,3.9647,3.9647,3.9647,3.9647,3.9647,3.9647,3.9647,4.0201,4.0524,4.0524,4.0524,4.0524,4.0524,3.9364,3.8487,3.7898,3.6682,3.5503,3.4478,3.4309,3.3944,3.3438,0.0,0.0,3.3283,3.275,3.2848,3.3269,3.2736,3.2848,3.3326,3.3326,3.3326,3.3255,3.2707,3.2525,3.2412,3.171,3.1485,3.1387,3.0825,3.1092,3.1485,3.0988,3.1646,3.2508,3.2637,3.3765,3.4969,3.5031,3.5798,3.6492,3.6492,3.6492,3.6492,3.6492,3.6336,3.6274,3.6429,3.6163,3.5973,3.5973,3.5767,3.5653,3.5504,3.5504,3.5504,3.5504,3.5504,3.5504,3.5504,3.5504,3.5504,3.5504,3.5504,3.5504,3.5504,3.5504,3.5504,3.5504,3.5504,3.5504,3.5504,3.5504,3.5504,3.5504,3.5504,3.5504,3.8666,3.9534,4.0377,4.05,3.9143,3.7523,3.6292,3.379,3.1359,3.0007,2.8935,2.8156,2.8035,2.8793,3.0081,3.2114,3.3686,3.566,3.8585,3.92,3.9631,4.0432,4.0432,4.0355,4.0355,4.0355,0.0,0.0,0.0,4.0355,4.0355,4.0462,4.0524,4.0524,4.0524,4.0524,4.0524,3.9364,3.8723,3.8605,3.6896,3.5953,3.5714,3.4702,3.4183,3.4056,3.355,0.0,3.3312,3.3213,3.3227,3.3312,3.3199,3.3227,3.3326,3.3326,3.3326,3.3312,3.3199,3.3157,3.2974,3.185,3.1485,3.1471,3.1359,3.1766,3.2283,3.2625,3.3212,3.3955,3.4877,3.5304,3.5649,3.612,3.6337,3.6492,3.6492,3.6492,3.6429,3.6274,3.6211,3.6211,3.61,3.5894,3.5752,3.5752,3.5604,3.5504,3.5504,3.5504,3.5504,3.5504,3.5504,3.5504,3.5504,3.5504,3.5504,3.5504,3.5504,3.5504,3.5504,3.5504,3.5504,3.5504,3.5504,3.5504,3.5504,3.5504,3.5504,3.5504,3.5504,3.5504,3.9188,3.9753,4.0137,4.0261,3.8295,3.6075,3.5078,3.2359,2.9779,2.8839,2.8282,2.7905,2.7905,2.8824,2.9901,3.0791,3.3169,3.5385,3.6707,3.8415,3.9647,3.9955,4.0309,4.0524,4.0524,4.0524,4.0524,0.0,0.0,4.0524,4.0524,4.0524,4.037,4.0016,4.0339,4.0355,4.0001,3.92,3.8782,3.8782,3.7282,3.6374,3.6051,3.5461,3.4843,3.4139,3.3916,0.0,3.334,3.3663,3.3607,3.3354,3.3677,3.3607,3.3326,3.3326,3.3326,3.3326,3.3326,3.3326,3.3213,3.2623,3.244,3.2384,3.2061,3.2574,3.3257,3.3212,3.401,3.5073,3.5559,3.5894,3.6163,3.6429,3.6492,3.6492,3.6492,3.6414,3.6336,3.6211,3.607,3.5943,3.5973,3.5782,3.5589,3.5688,3.5604,3.5504,3.5504,3.5504,3.5504,3.5504,3.5504,3.5504,3.5504,3.5504,3.5504,3.5504,3.5504,3.5504,3.5504,3.5504,3.5504,3.5504,3.5504,3.5504,3.5504,3.5504,3.5504,3.5504,3.5504,3.5504,3.9309,3.9889,4.0005,3.9856,3.7525,3.5003,3.404,3.1411,2.8946,2.8141,2.794,2.7875,2.779,2.8737,2.9462,2.9197,3.2231,3.4635,3.4588,3.7274,3.9287,3.9441,4.0055,0.0,4.0524,4.0524,0.0,0.0,0.0,0.0,4.0524,4.0524,4.0293,3.9754,4.0247,4.0278,3.9739,3.911,3.8782,3.8797,3.7582,3.6655,3.6065,3.6065,3.5391,3.4167,3.4167,0.0,0.0,3.3845,3.3761,3.3382,3.3986,3.3944,3.3536,3.3663,3.3635,3.3508,3.3508,3.3438,3.3326,3.3437,3.3452,3.3353,3.2942,3.3439,3.4187,3.3842,3.4703,3.5752,3.5816,3.6163,3.6492,3.6492,3.6492,3.6492,3.6429,3.6274,3.6211,3.6133,3.5879,3.5752,3.5846,3.5683,3.5554,3.5638,3.5554,3.5504,3.5504,3.5504,3.5504,3.5504,3.5504,3.5504,3.5504,3.5504,3.5504,3.5504,3.5504,3.5504,3.5504,3.5504,3.5504,3.5504,3.5504,3.5504,3.5504,3.5504,3.5504,3.5504,3.5504,3.5504,3.8596,3.9525,3.9917,3.8561,3.6838,3.4924,3.2719,3.0852,2.9348,2.824,2.8155,2.8174,2.789,2.7896,2.8399,2.9546,3.1277,3.3035,3.4699,3.6896,3.8549,3.9259,3.9933,0.0,4.0455,4.0524,0.0,0.0,0.0,0.0,4.0524,4.0524,4.0493,4.0432,4.0493,4.0493,4.0432,3.9334,3.8782,3.8797,3.7582,3.6655,3.6065,3.6065,3.5391,3.4167,3.4167,0.0,0.0,3.3382,3.3368,3.3382,3.3986,3.4139,3.4225,3.4773,3.4632,3.4155,3.4155,3.3789,3.3382,3.3894,3.4016,3.4002,3.3945,3.4365,3.4942,3.5355,3.5578,3.5816,3.6289,3.6492,3.6492,3.6492,3.6492,3.6429,3.6274,3.6211,3.6133,3.5816,3.5752,3.5638,3.5554,3.5504,3.5504,3.5504,3.5504,3.5504,3.5504,3.5504,3.5504,3.5504,3.5504,3.5504,3.5504,3.5504,3.5504,3.5504,3.5504,3.5504,3.5504,3.5504,3.5504,3.5504,3.5504,3.5504,3.5504,3.5504,3.5504,3.5504,3.5504,3.5504,3.741,3.8265,3.8681,3.7551,3.5722,3.3882,3.2531,3.0804,2.9328,2.8779,2.8463,2.8255,2.8125,2.786,2.7906,2.8499,3.0129,3.1799,3.3013,3.4957,3.6911,3.8488,3.8901,0.0,0.0,0.0,0.0,0.0,0.0,0.0,4.0524,4.0524,4.0155,3.9339,3.9708,3.9724,3.9323,3.8167,3.7794,3.8178,3.6639,3.5953,3.6065,3.5686,3.5447,3.5321,3.4955,0.0,0.0,3.4267,3.4211,3.393,3.4548,3.4562,3.4195,3.4506,3.4211,3.3691,3.3691,3.3522,3.3382,3.3962,3.4341,3.461,3.461,3.4957,3.5415,3.5623,3.5958,3.6226,3.6414,3.6492,3.6492,3.6492,3.6414,3.6274,3.6211,3.6006,3.5879,3.5752,3.5638,3.5539,3.5504,3.5504,3.5504,3.5504,3.5504,3.5504,3.5504,3.5504,3.5504,3.5504,3.5504,3.5504,3.5504,3.5504,3.5504,3.5504,3.5504,3.5504,3.5504,3.5504,3.5504,3.5504,3.5504,3.5504,3.5504,3.5504,3.5504,3.5504,3.5504,3.5504,3.5667,3.6747,3.7192,3.6383,3.4716,3.2974,3.2248,3.0639,2.9198,2.8935,2.8543,2.8255,2.811,2.7845,2.7625,2.774,2.9298,3.0754,3.1475,3.3364,3.529,3.706,0.0,3.8198,0.0,4.0224,0.0,0.0,0.0,0.0,0.0,4.0524,4.0093,3.9139,3.9385,3.9385,3.9108,3.7901,3.7464,3.7765,3.6402,3.567,3.5517,3.5264,3.5293,3.5517,0.0,0.0,0.0,3.4969,3.4899,3.4548,3.4983,3.4885,3.4506,3.4506,3.4126,3.3593,3.3593,3.3537,3.3646,3.4153,3.4677,3.5154,3.535,3.5623,3.5958,3.5958,3.6226,3.6492,3.6492,3.6492,3.6492,3.6414,3.6274,3.6196,3.607,3.5879,3.5688,3.5638,3.5539,3.5504,3.5504,3.5504,3.5504,3.5504,3.5504,3.5504,3.5504,3.5504,3.5504,3.5504,3.5504,3.5504,3.5504,3.5504,3.5504,3.5504,3.5504,3.5504,3.5504,3.5504,3.5504,3.5504,3.5504,3.5504,3.5504,3.5504,3.5359,3.5133,3.534,3.5503,3.3487,3.4878,3.5837,3.4997,3.3732,3.2455,3.152,3.0248,2.9106,2.8448,2.8288,2.8158,2.771,2.7625,2.7625,2.7625,2.8839,3.0006,3.0432,3.2434,3.4091,0.0,0.0,3.6485,3.8152,0.0,0.0,0.0,0.0,0.0,0.0,4.0524,4.0524,4.0509,3.9862,3.9831,4.0493,3.9252,3.8347,3.7765,3.7215,3.5996,3.4209,3.4885,3.4829,0.0,0.0,0.0,0.0,3.5226,3.5226,3.5212,3.5226,3.5226,3.5212,3.5212,3.4759,3.4153,3.4153,3.4157,3.4206,3.4743,3.5285,3.5816,3.6289,3.6492,3.6492,3.6492,3.6492,3.6492,3.6492,3.6492,3.6429,3.6274,3.6196,3.6133,3.5752,3.5688,3.5638,3.5554,3.5504,3.5504,3.5504,3.5504,3.5504,3.5504,3.5504,3.5504,3.5504,3.5504,3.5504,3.5504,3.5504,3.5504,3.5504,3.5504,3.5504,3.5504,3.5504,3.5504,3.5504,3.5504,3.5504,3.5504,3.5504,3.5504,3.5504,3.5504,3.5067,3.4327,3.4911,3.5454,3.086,3.2053,3.3074,3.2675,3.2066,3.135,3.0691,3.0084,2.9499,2.8982,2.8842,2.8685,2.8158,2.8076,2.813,2.824,2.9409,3.0488,3.1106,3.2976,0.0,3.5929,3.7749,3.9093,0.0,0.0,0.0,0.0,0.0,0.0,0.0,4.0524,4.0108,3.917,3.8939,3.8708,3.8462,3.7688,3.7015,3.6537,3.6344,3.5568,3.4181,3.4871,0.0,0.0,0.0,0.0,0.0,3.5784,3.5606,3.5226,3.5226,3.4899,3.4534,3.4534,3.4327,3.4111,3.4111,3.4394,3.4758,3.5285,3.5559,3.5816,3.6352,3.6492,3.6492,3.6492,3.6492,3.6492,3.6492,3.6414,3.6274,3.6211,3.6006,3.5816,3.5752,3.5653,3.5554,3.5504,3.5504,3.5504,3.5504,3.5504,3.5504,3.5504,3.5504,3.5504,3.5504,3.5504,3.5504,3.5504,3.5504,3.5504,3.5504,3.5504,3.5279,3.4677,3.5213,3.5279,3.4677,3.5213,3.5213,3.4677,3.4677,3.4409,3.3934,3.3934,3.3996,3.4214,3.4767,3.5342,2.8643,2.9937,3.0966,3.0853,3.0716,3.0476,2.997,2.9673,2.9393,2.8873,2.8795,2.8638,2.8125,2.8158,2.8354,2.8591,2.9265,3.0193,3.1317,3.2587,0.0,3.5683,0.0,0.0,0.0,0.0,0.0,0.0,0.0,0.0,0.0,4.0224,3.9647,3.8539,3.8508,3.8308,3.7892,3.7066,3.6522,3.6202,3.5878,3.5139,3.4239,3.4393,0.0,0.0,0.0,0.0,0.0,3.6164,3.584,3.5447,3.4997,3.4576,3.4139,3.3972,3.3973,3.407,3.407,3.461,3.5285,3.5608,3.5831,3.6022,3.6289,3.6414,3.6414,3.6414,3.6414,3.6352,3.6289,3.6289,3.6148,3.6006,3.5879,3.5688,3.5653,3.5554,3.5504,3.5504,3.5699,3.5878,3.5878,3.5878,3.5878,3.5878,3.5669,3.5504,3.5504,3.5504,3.5504,3.5504,3.5504,3.5359,3.5052,3.5052,3.4824,3.4312,3.4491,3.4423,3.3905,3.4356,3.4423,3.3891,3.3891,3.3744,3.3564,3.3445,3.373,3.4339,3.4347,3.4763,0.0,2.8353,2.937,2.937,2.9689,2.9799,2.9323,2.9169,0.0,2.8384,2.8336,2.8207,2.771,2.8057,2.8465,2.8651,2.8786,2.9505,3.1228,3.1631,0.0,0.0,3.6565,0.0,0.0,0.0,0.0,0.0,0.0,0.0,0.0,3.9726,3.9185,3.8462,3.8431,3.8415,3.8369,3.7233,3.6686,3.6659,3.5659,3.4782,3.4155,3.3677,0.0,0.0,0.0,0.0,0.0,3.6248,3.5981,3.5826,3.4674,3.4139,3.4098,3.3522,3.3701,3.4138,3.4206,3.4876,3.5752,3.5752,3.6085,3.6414,3.6274,3.6196,3.6196,3.6196,3.6196,3.6148,3.6022,3.6085,3.6085,3.5752,3.5718,3.5699,3.5569,3.5549,3.5579,3.5579,3.6073,3.6492,3.6552,3.6552,3.6552,3.6552,3.5998,3.5579,3.5579,3.5534,3.5504,3.5504,3.5439,3.5133,3.438,3.4312,3.4245,3.4177,3.3561,3.3143,3.3143,3.3143,3.3143,3.3143,3.3129,3.3352,3.3924,3.3861,3.4089,3.463,3.3925,3.3914,2.5196,0.0,2.729,2.729,2.8304,2.9171,0.0,2.881,2.8935,2.8384,2.8638,2.8654,2.776,2.8719,2.9537,2.938,3.0612,3.1584,3.1482,0.0,0.0,3.724,3.8557,0.0,0.0,0.0,0.0,0.0,0.0,0.0,0.0,3.9367,3.8821,3.7769,3.7738,3.7492,3.6969,3.6778,3.6222,3.5347,3.5619,3.4968,3.3564,3.4365,0.0,0.0,0.0,0.0,3.5648,3.5508,3.5096,3.4632,3.4351,3.3958,3.3508,3.3813,3.4288,3.4743,3.5219,3.5752,3.6289,3.6148,3.6148,3.6211,3.6085,3.6148,3.6196,3.6196,3.6148,3.6085,3.6148,3.6006,3.5816,3.5688,3.6029,3.6169,3.5609,3.5893,3.6252,3.6252,3.6372,3.6641,3.7105,3.7195,3.7195,3.7195,3.6656,3.6252,3.6252,3.5818,3.5504,3.5504,3.4971,3.4528,3.4312,3.4312,3.3822,3.2706,3.3003,3.2932,3.2362,3.2932,3.2932,3.2362,3.2192,3.2199,3.2346,3.3251,3.3686,3.3898,3.4088,3.428,2.4537,2.5585,2.6587,2.6587,2.7684,2.8591,2.8076,2.8352,2.8638,2.8352,2.8543,2.8543,2.8027,2.8907,2.9844,3.0411,3.1329,0.0,0.0,0.0,3.5654,3.7315,3.8162,0.0,0.0,0.0,0.0,0.0,0.0,0.0,0.0,3.8406,3.8034,3.7523,3.72,3.6861,3.6492,3.6099,3.571,3.5333,3.492,3.437,3.3747,3.414,3.4281,0.0,0.0,0.0,3.5212,3.4843,3.4534,3.4139,3.393,3.3621,3.3382,3.3894,3.4409,3.4942,3.5415,3.5943,3.6352,3.6274,3.6274,3.6289,3.61,3.6022,3.6085,3.6006,3.5958,3.5973,3.591,3.5767,3.5688,3.5653,3.6049,3.6312,3.5654,3.6028,3.6492,3.6492,3.6492,3.6776,3.7704,3.7599,3.7509,3.7808,3.7075,3.6492,3.6492,3.5908,3.5359,3.4986,3.4528,3.4027,3.3339,3.3269,3.2918,3.2146,3.216,3.2028,3.1603,3.1955,3.209,3.2003,3.2159,3.2372,3.2646,3.3535,3.3966,3.3966,3.4254,3.4397,2.4403,2.551,2.6467,2.6557,2.7443,2.8207,2.7795,2.8027,2.8336,2.84,2.8352,2.8383,2.8523,2.9126,3.0006,3.1257,0.0,0.0,3.3814,3.4638,3.5439,3.6357,0.0,0.0,0.0,0.0,0.0,0.0,0.0,0.0,0.0,3.7425,3.7238,3.7353,3.6799,3.6492,3.6492,3.5415,3.5089,3.5551,3.4027,3.3593,3.4084,3.355,3.3607,0.0,0.0,0.0,3.4843,3.4309,3.4098,3.4042,3.3522,3.3312,3.3521,3.4016,3.4543,3.5088,3.54,3.58,3.6211,3.6211,3.6289,3.6414,3.6037,3.5973,3.5973,3.5767,3.5767,3.5861,3.5619,3.5589,3.5638,3.5504,3.6013,3.6327,3.5774,3.6088,3.6507,3.6611,3.6552,3.6896,3.8167,3.7838,3.7629,3.8287,3.7389,3.6626,3.6626,3.5977,3.5244,3.467,3.421,3.352,3.2355,3.215,3.2077,3.2077,3.1373,3.0986,3.0986,3.1065,3.1352,3.1759,3.2489,3.3077,3.3587,3.4136,3.4397,3.4397,3.4397,3.4397,2.4403,2.5181,2.5899,2.6452,2.7443,2.8304,2.8207,2.8255,2.8448,2.8873,2.8638,2.8618,2.9706,3.0399,3.0923,3.135,0.0,3.4762,0.0,0.0,3.7552,0.0,0.0,0.0,0.0,0.0,0.0,0.0,0.0,0.0,0.0,3.7066,3.6926,3.6661,3.6538,3.6492,3.6492,3.5415,3.4735,3.4351,3.3619,3.3368,3.3466,3.3368,3.3368,0.0,0.0,3.3508,3.3593,3.3494,3.3466,3.3452,3.3368,3.3577,3.4016,3.461,3.5154,3.5623,3.5943,3.6133,3.6211,3.61,3.6148,3.6211,3.5816,3.5943,3.6085,3.5668,3.5554,3.5619,3.5638,3.5589,3.5504,3.5504,3.6013,3.6462,3.6357,3.6417,3.6641,3.7165,3.6851,3.6896,3.8167,3.7838,3.7629,3.8287,3.7749,3.727,3.727,3.6099,3.5481,3.5894,3.3831,3.2568,3.282,3.2213,3.1845,3.1845,3.1323,3.0986,3.0986,3.1457,3.1744,3.1759,3.2894,3.3496,3.3587,3.4136,3.4397,3.4397,3.4397,3.4397,2.4268,2.5029,2.5717,2.6325,2.7214,2.7978,2.8255,2.8288,2.8528,2.9303,2.9421,2.9485,2.999,3.0954,3.1978,3.2763,0.0,3.5611,3.5691,3.5766,0.0,0.0,0.0,0.0,0.0,0.0,0.0,0.0,0.0,0.0,0.0,0.0,3.6356,3.6507,3.6414,3.6289,3.6085,3.5285,3.4743,3.4543,3.3962,3.3577,3.3326,3.3326,3.3143,3.2848,0.0,3.3326,3.3326,3.3326,3.3508,3.3775,3.3452,3.3632,3.4206,3.5023,3.5608,3.6006,3.6133,3.6196,3.6211,3.6148,3.6148,3.6133,3.5958,3.5879,3.5894,3.5554,3.5554,3.5604,3.5589,3.5554,3.5504,3.5504,3.6267,3.6896,3.6552,3.703,3.7599,3.7883,3.7419,3.7404,3.8721,3.8377,3.8167,3.8841,3.8377,3.7789,3.7352,3.6412,3.5554,3.4966,3.3751,3.2961,3.2874,3.2527,3.2306,3.2306,3.2058,3.1914,3.1914,3.2163,3.245,3.2777,3.3313,3.3731,3.4031,3.428,3.4397,3.4397,3.4397,3.4397,2.4146,2.4786,2.5476,2.6232,2.7016,2.7755,2.8406,2.8583,2.8903,3.0084,3.0366,3.0545,3.0799,3.1868,0.0,3.4451,3.5649,3.6012,3.4935,0.0,0.0,0.0,0.0,0.0,0.0,0.0,0.0,0.0,0.0,0.0,0.0,0.0,3.5882,3.6261,3.6044,3.5765,3.5284,3.4822,3.4646,3.4677,3.4153,3.3701,3.3326,3.3171,3.2848,3.2426,3.275,3.2974,3.3101,3.3101,3.3537,3.4101,3.3705,3.3825,3.4543,3.5544,3.6006,3.6196,3.6196,3.6211,3.6274,3.6211,3.6148,3.6148,3.5958,3.5831,3.5703,3.5554,3.5539,3.5653,3.5504,3.5624,3.5729,3.5729,3.6596,3.733,3.7,3.7584,3.8197,3.8362,3.7853,3.7793,3.8975,3.8616,3.8392,3.9065,3.8736,3.8094,3.7274,3.6635,3.5645,3.4362,3.3836,3.3354,3.2974,3.2894,3.2947,3.3091,3.2842,3.2685,3.2685,3.2829,3.3117,3.3587,3.3718,3.3979,3.4397,3.4397,3.4397,3.4397,3.4541,3.4607,2.4101,2.4368,2.4693,2.6065,2.7016,2.7926,2.9054,2.9342,2.9824,3.1515,3.147,3.1646,3.3244,3.3794,3.4422,3.576,3.623,3.6358,0.0,0.0,0.0,0.0,0.0,0.0,0.0,0.0,0.0,0.0,0.0,0.0,0.0,0.0,0.0,3.5568,3.5416,3.4851,3.3925,3.3925,3.3951,3.4138,3.3632,3.3312,3.3297,3.2736,3.244,3.237,3.185,3.1949,3.2469,3.2469,3.3149,3.4074,3.4031,3.4543,3.54,3.6148,3.6352,3.6196,3.6196,3.6336,3.6429,3.61,3.6085,3.6133,3.5816,3.5688,3.5703,3.5554,3.5504,3.5504,3.5504,3.5953,3.6417,3.6417,3.6926,3.7569,3.8138,3.7838,3.7659,3.8272,3.7853,3.7629,3.8347,3.7913,3.7704,3.8362,3.8422,3.8094,3.7274,3.6568,3.5934,3.5639,3.3861,3.2987,3.3483,3.3535,3.3744,3.4241,3.3273,3.2685,3.2685,3.3234,3.3548,3.3587,3.4084,3.4358,3.4397,3.4397,3.4397,3.441,3.4972,3.5234,2.351,2.4248,2.5206,2.6059,2.7172,2.8342,2.9607,2.9876,3.0402,3.2063,3.2616,3.3139,3.4289,3.4611,3.4755,3.4899,3.5403,3.543,0.0,0.0,0.0,0.0,0.0,0.0,0.0,0.0,0.0,0.0,0.0,0.0,0.0,0.0,0.0,3.486,3.471,3.4468,3.4224,3.3894,3.3647,3.3425,3.2852,3.2482,3.2174,3.1935,3.1612,3.1246,3.1415,3.2037,3.2925,3.2925,3.3565,3.4701,3.4636,3.481,3.5204,3.6148,3.6429,3.6414,3.6414,3.6352,3.6274,3.6148,3.6022,3.5879,3.5752,3.5638,3.5554,3.5504,3.5804,3.6028,3.5609,3.5998,3.6492,3.6492,3.727,3.8078,3.8347,3.8542,3.8736,3.8975,3.8826,3.8736,3.899,3.8826,3.8751,3.899,3.8574,3.7958,3.7092,3.6325,3.5571,3.4924,3.4252,3.3849,3.4071,3.4097,3.4175,3.4384,3.3992,3.3757,3.3757,3.3966,3.4097,3.4097,3.4293,3.4397,3.4397,3.4397,3.4397,3.441,3.5012,3.5299,2.3275,2.4253,2.5393,2.6197,2.7272,2.8654,3.0386,3.0752,3.1291,3.304,3.3789,3.4286,3.48,3.4972,3.4862,0.0,3.4597,0.0,0.0,0.0,0.0,0.0,0.0,0.0,0.0,0.0,0.0,0.0,0.0,0.0,0.0,0.0,0.0,0.0,3.3946,3.3737,3.3655,3.308,3.2599,3.2156,3.1608,3.1389,3.1485,3.1274,3.105,3.0839,3.0997,3.1917,3.3177,3.3158,3.3929,3.5224,3.5398,3.535,3.5415,3.6226,3.6492,3.6414,3.6414,3.6336,3.6196,3.607,3.5879,3.5688,3.5638,3.5539,3.5504,3.5504,3.5833,3.6118,3.5878,3.6447,3.709,3.709,3.7928,3.8721,3.8721,3.9095,3.9424,3.9424,3.9424,3.9424,3.9424,3.9424,3.9337,3.9046,3.8575,3.7796,3.666,3.6042,3.5345,3.4481,3.4397,3.4397,3.4397,3.4397,3.4397,3.4397,3.4397,3.4397,3.4397,3.4397,3.4397,3.4397,3.4397,3.4397,3.4397,3.458,3.458,3.4424,3.5391,3.573,2.358,2.4262,2.5163,2.6483,2.7363,2.8614,3.1368,3.201,3.2557,3.449,3.4899,3.4899,3.4899,3.4899,0.0,3.4254,0.0,0.0,0.0,0.0,0.0,0.0,0.0,0.0,0.0,0.0,0.0,0.0,0.0,0.0,0.0,0.0,0.0,0.0,3.3142,3.2591,3.1739,3.1263,3.0792,3.0312,2.9837,3.0263,3.1443,3.0797,3.0867,3.1467,3.064,3.1406,3.3186,3.305,3.4044,3.5752,3.6289,3.6352,3.6211,3.6414,3.6352,3.6196,3.6196,3.6196,3.6133,3.5816,3.5688,3.5688,3.5554,3.5504,3.5504,3.5504,3.5504,3.5669,3.6327,3.7434,3.8392,3.8392,3.8916,3.9424,3.9424,3.9424,3.9424,3.9424,3.9424,3.9424,3.9424,3.9424,3.9119,3.8352,3.8202,3.7567,3.591,3.5669,3.5345,3.4481,3.4397,3.4397,3.4397,3.4397,3.4397,3.4397,3.4397,3.4397,3.4397,3.4397,3.4397,3.4397,3.4397,3.4397,3.4397,3.4999,3.4986,3.445,3.6188,3.6684,2.3696,2.493,2.6333,2.7153,2.8324,2.9819,3.197,3.2243,3.2557,3.449,3.4899,3.4899,3.4899,3.4899,0.0,3.4207,0.0,0.0,0.0,0.0,0.0,0.0,0.0,0.0,0.0,0.0,0.0,0.0,0.0,0.0,0.0,0.0,0.0,0.0,3.265,3.243,3.2176,3.2048,3.1766,3.1263,3.1146,3.0756,3.0164,2.9968,3.0171,3.0654,3.0883,3.1725,3.2913,3.3844,3.4778,3.5688,3.5894,3.5879,3.5879,3.6352,3.6352,3.6196,3.6196,3.6085,3.5816,3.5752,3.5653,3.5554,3.5504,3.5504,3.5504,3.5504,3.5833,3.6342,3.6971,3.7764,3.8392,3.8392,3.8916,3.9424,3.9424,3.9424,3.9424,3.9424,3.9424,3.9424,3.9424,3.9424,3.9352,3.9119,3.8575,3.7567,3.591,3.5196,3.4716,3.4397,3.4397,3.4397,3.4397,3.4397,3.4397,3.4397,3.4397,3.4397,3.4397,3.4397,3.4397,3.4397,3.4397,3.4397,3.4397,3.4999,3.5208,3.5064,3.6384,3.6907,2.4444,2.5944,2.7572,2.8176,2.9221,3.0533,3.2304,3.2915,3.3479,3.4669,3.4899,3.4899,3.4899,3.4899,0.0,0.0,0.0,0.0,0.0,0.0,0.0,0.0,0.0,0.0,0.0,0.0,0.0,0.0,0.0,0.0,0.0,0.0,0.0,0.0,3.2302,3.2287,3.2398,3.2231,3.1951,3.1682,3.1321,3.0792,3.0144,3.0144,3.0456,3.0959,3.1845,3.2675,3.3482,3.4577,3.5413,3.6022,3.6022,3.6022,3.6085,3.6352,3.6352,3.6196,3.6148,3.5958,3.5688,3.5638,3.5554,3.5504,3.5504,3.5504,3.5504,3.5504,3.5789,3.6252,3.6881,3.7524,3.8138,3.8676,3.9125,3.9424,3.9424,3.9424,3.9424,3.9424,3.9424,3.9424,3.9424,3.9424,3.9265,3.8958,3.7947,3.6702,3.5345,3.4716,3.4397,3.4397,3.4397,3.4397,3.4397,3.4397,3.4397,3.4397,3.4397,3.4397,3.4397,3.4397,3.4397,3.4397,3.4397,3.4397,3.4397,3.5221,3.5508,3.5325,3.6711,3.7233,2.5466,2.7021,2.8602,2.9239,3.0063,3.1056,3.2381,3.3839,3.4899,3.4899,3.4899,3.4899,3.4899,3.4899,3.4739,0.0,0.0,0.0,0.0,0.0,0.0,0.0,0.0,0.0,0.0,0.0,0.0,0.0,0.0,0.0,0.0,0.0,0.0,3.2342,3.215,3.215,3.2398,3.1951,3.1781,0.0,3.0911,3.0718,3.1131,3.0955,3.1323,3.2001,3.3096,3.3908,3.4522,3.5137,3.5784,3.6399,3.6476,3.6492,3.6492,3.6492,3.6352,3.6148,3.6037,3.5831,3.5638,3.5554,3.5504,3.5504,3.5504,3.5504,3.5504,3.5504,3.5504,3.5654,3.6312,3.6911,3.7644,3.8931,3.9334,3.9424,3.9424,3.9424,3.9424,3.9424,3.9424,3.9424,3.9424,3.9424,3.9119,3.8352,3.678,3.5426,3.4634,3.4481,3.4397,3.4397,3.4397,3.4397,3.4397,3.4397,3.4397,3.4397,3.4397,3.4397,3.4397,3.4397,3.4397,3.4397,3.4397,3.4424,3.4476,3.5626,3.5966,3.5574,3.7273,3.7769,2.5778,2.7106,2.8379,2.9123,3.0799,3.2299,3.2613,3.3839,3.4899,3.4899,3.4899,3.4899,3.4899,3.4899,0.0,0.0,0.0,0.0,0.0,0.0,0.0,0.0,0.0,0.0,0.0,0.0,0.0,0.0,0.0,0.0,0.0,0.0,0.0,3.2247,3.2191,3.2247,3.2398,3.2287,3.2231,0.0,3.2048,3.1992,3.2048,3.0955,3.1188,3.2541,3.2642,3.3387,3.4491,3.4629,3.5091,3.5753,3.6276,3.6492,3.6492,3.6336,3.6148,3.6037,3.5831,3.5653,3.5554,3.5504,3.5504,3.5504,3.5504,3.5504,3.5504,3.5504,3.5504,3.5654,3.6312,3.6596,3.6881,3.7659,3.8646,3.9424,3.9424,3.9424,3.9424,3.9424,3.9424,3.9424,3.9424,3.9424,3.9119,3.8352,3.678,3.5669,3.5426,3.4799,3.4397,3.4397,3.4397,3.4397,3.4397,3.4397,3.4397,3.4397,3.4397,3.4397,3.4397,3.4397,3.4397,3.4397,3.4397,3.4633,3.5103,3.6253,3.6998,3.7377,3.8645,3.9168,2.6579,2.7713,2.8885,2.9659,3.1295,3.268,3.268,3.3839,3.4899,3.4899,3.4899,3.4899,3.4899,3.4899,0.0,0.0,0.0,0.0,0.0,0.0,0.0,0.0,0.0,0.0,0.0,0.0,0.0,0.0,0.0,0.0,0.0,3.1955,3.2038,3.2206,3.215,3.2191,3.2398,3.2398,3.2398,3.2398,3.2176,3.2064,3.2064,3.1537,3.1775,3.2536,3.2425,3.2982,3.3967,3.3967,3.4568,3.5522,3.5799,3.6137,3.6492,3.6211,3.6037,3.5973,3.5752,3.5589,3.5504,3.5504,3.5504,3.5504,3.5504,3.5504,3.5504,3.5504,3.5504,3.5579,3.5923,3.6252,3.6567,3.6881,3.7734,3.8542,3.8856,3.8931,3.902,3.9349,3.9424,3.9424,3.9424,3.9119,3.8575,3.7706,3.6531,3.5588,3.5114,3.4716,3.4397,3.4397,3.4397,3.4397,3.4397,3.4397,3.4397,3.4397,3.4397,3.4397,3.4397,3.4672,3.4698,3.441,3.4685,3.5103,3.5691,3.6867,3.773,3.8305,3.9194,3.9612,2.7419,2.8469,2.9675,3.0336,3.162,3.268,3.268,3.3839,3.4899,3.4899,3.4899,3.4899,3.4899,0.0,0.0,0.0,0.0,0.0,0.0,0.0,0.0,0.0,0.0,0.0,0.0,0.0,0.0,0.0,0.0,0.0,3.1799,3.1955,3.2038,3.2206,3.2094,3.2135,3.2398,3.2398,3.2398,3.2398,3.2007,3.1838,3.1838,3.2231,3.2398,3.2398,3.2398,3.2705,3.3244,3.3352,3.4091,3.5153,3.5247,3.5677,3.6322,3.6054,3.5973,3.5973,3.5767,3.5589,3.5504,3.5504,3.5504,3.5504,3.5504,3.5504,3.5504,3.5504,3.5504,3.5504,3.5504,3.5908,3.6312,3.6312,3.6701,3.733,3.8197,3.8482,3.8736,3.9305,3.9424,3.9424,3.9424,3.8738,3.7872,3.7049,3.6201,3.5426,3.4481,3.4397,3.4397,3.4397,3.4397,3.4397,3.4397,3.4397,3.4397,3.4397,3.4397,3.4489,3.4685,3.5168,3.5299,3.5012,3.5391,3.5861,3.641,3.7612,3.8475,3.9024,3.9625,3.9899,2.768,2.9149,3.0369,3.0452,3.162,3.268,3.268,3.3839,3.4899,3.4899,3.4899,3.4899,0.0,0.0,0.0,0.0,0.0,0.0,0.0,0.0,0.0,0.0,0.0,0.0,0.0,0.0,0.0,0.0,0.0,0.0,3.1799,3.1955,3.2038,3.2206,3.2191,3.2247,3.2398,3.2398,3.2398,3.2398,3.2342,3.2287,3.2287,3.2398,3.2398,3.2398,3.2398,3.2444,3.2567,3.3167,3.3506,3.3798,3.4999,3.5537,3.5691,3.5887,3.5973,3.5973,3.5619,3.5504,3.5504,3.5504,3.5504,3.5504,3.5504,3.5504,3.5504,3.5504,3.5504,3.5504,3.5504,3.5564,3.5639,3.5639,3.5699,3.6252,3.8003,3.8856,3.9305,3.9394,3.9424,3.9424,3.9424,3.8738,3.7872,3.7049,3.6201,3.5426,3.4481,3.4397,3.4397,3.4397,3.4397,3.4397,3.4397,3.4397,3.4397,3.4397,3.4397,3.4842,3.5835,3.5953,3.6449,3.7416,3.6998,3.7063,3.7665,3.8815,3.9664,4.02,4.0801,4.1089,2.7945,2.8959,2.9931,3.0369,3.1321,3.2083,3.2083,3.3226,3.427,3.427,3.4601,3.4899,0.0,0.0,0.0,0.0,0.0,0.0,0.0,0.0,0.0,0.0,0.0,0.0,0.0,0.0,0.0,0.0,3.1769,3.1898,3.1784,3.1996,3.215,3.2191,3.2191,3.2231,3.2398,3.2398,3.2398,3.2398,3.2398,3.2398,3.2398,3.2398,3.2398,3.2398,3.2398,3.2398,3.2413,3.2721,3.3059,3.3506,3.4388,3.5002,3.5355,3.5715,3.5831,3.5767,3.5554,3.5504,3.5504,3.5504,3.5504,3.5504,3.5504,3.5504,3.5504,3.5504,3.5504,3.5504,3.5504,3.5504,3.5504,3.5504,3.5789,3.6282,3.7135,3.7569,3.7988,3.8706,3.8841,3.896,3.9349,3.8323,3.7372,3.6972,3.5803,3.4799,3.4481,3.4397,3.4397,3.4397,3.4397,3.4397,3.4397,3.4397,3.4397,3.4397,3.4711,3.526,3.607,3.675,3.7508,3.8344,3.8096,3.8253,3.8867,3.9677,4.0357,4.0932,4.1193,4.1141,2.7892,2.858,2.9444,3.0071,3.094,3.1576,3.1576,3.2597,3.3557,0.0,3.4237,0.0,0.0,0.0,0.0,0.0,0.0,0.0,0.0,0.0,0.0,0.0,0.0,0.0,0.0,0.0,0.0,0.0,3.1769,3.194,3.1841,3.2094,3.2191,3.2247,3.2247,3.2287,3.2398,3.2398,3.2398,3.2398,3.2398,3.2398,3.2398,3.2398,3.2398,3.2342,3.2398,3.2398,3.2398,3.2398,3.2798,3.3475,3.3992,3.4606,3.5217,3.5574,3.5688,3.5688,3.5554,3.5504,3.5504,3.5504,3.5504,3.5504,3.5504,3.5504,3.5504,3.5504,3.5504,3.5504,3.5504,3.5504,3.5504,3.5504,3.5878,3.6327,3.6656,3.6851,3.7255,3.8212,3.8527,3.8811,3.9334,3.8159,3.7127,3.6958,3.5642,3.4634,3.4397,3.4397,3.4397,3.4397,3.4397,3.4397,3.4397,3.4397,3.4463,3.462,3.5182,3.5822,3.6541,3.756,3.8436,3.9128,3.9011,3.9233,3.9808,4.0213,4.0644,4.1089,4.0945,4.0611,2.7208,2.8178,2.9312,2.9426,3.0559,3.1576,3.1576,3.2199,3.2945,3.3657,3.3822,0.0,0.0,0.0,0.0,0.0,0.0,0.0,0.0,0.0,0.0,0.0,0.0,0.0,0.0,0.0,0.0,0.0,3.167,3.1841,3.1996,3.2135,3.2247,3.2398,3.2398,3.2398,3.2398,3.2398,3.2398,3.2398,3.2398,3.2398,3.2398,3.2398,3.2342,3.2247,3.2342,3.2398,3.2398,3.2398,3.2798,3.3475,3.3992,3.4606,3.5217,3.5574,3.5688,3.5688,3.5554,3.5504,3.5504,3.5504,3.5504,3.5504,3.5504,3.5504,3.5504,3.5504,3.5504,3.5504,3.5504,3.5504,3.5504,3.5504,3.5534,3.5893,3.7105,3.7853,3.8302,3.8377,3.8916,3.9379,3.9409,3.8738,3.7872,3.7049,3.6201,3.5345,3.4481,3.4397,3.4397,3.4397,3.4397,3.4397,3.4397,3.4397,3.4633,3.5221,3.5757,3.6593,3.7756,3.8357,3.9194,4.0305,3.9821,3.9834,4.037,4.0396,4.0435,4.0448,3.9939,3.9563,2.82,2.8772,2.9428,2.9931,3.0485,3.0865,3.0865,3.147,3.2216,3.2928,0.0,0.0,0.0,0.0,0.0,0.0,0.0,0.0,0.0,0.0,0.0,0.0,0.0,0.0,0.0,0.0,0.0,0.0,0.0,3.1883,3.1898,3.2135,3.2287,3.2287,3.2342,3.2398,3.2398,3.2398,3.2398,3.2398,3.2398,3.2398,3.2398,3.2398,3.2398,3.2342,3.2398,3.2342,3.2333,3.2803,3.3183,3.3521,3.4467,3.4942,3.5109,3.5574,3.5638,3.5539,3.5504,3.5504,3.5504,3.5504,3.5504,3.5504,3.5504,3.5504,3.5504,3.5504,3.5504,3.5504,3.5504,3.5504,3.5504,3.5504,3.5504,3.5624,3.6088,3.6701,3.7165,3.7165,3.8018,3.8751,3.8751,3.8443,3.7872,3.7049,3.6201,3.5426,3.4481,3.4397,3.4397,3.4397,3.4397,3.4397,3.4397,3.4397,3.4803,3.5757,3.5992,3.6802,3.8357,3.8606,3.9089,3.9886,3.9703,3.9873,4.0409,4.0069,3.9899,3.9899,3.9875,3.9751,2.8567,2.896,2.9428,2.9897,3.0278,3.0526,3.0526,3.0907,3.1454,3.2183,0.0,0.0,0.0,0.0,0.0,0.0,0.0,0.0,0.0,0.0,0.0,0.0,0.0,0.0,0.0,0.0,0.0,0.0,0.0,0.0,3.1799,3.2191,3.2342,3.2247,3.2342,3.2398,3.2398,3.2398,3.2398,3.2398,3.2398,3.2398,3.2398,3.2398,3.2398,3.2342,3.2398,3.2342,3.2348,3.3064,3.3479,3.3744,3.4759,3.5155,3.5288,3.5552,3.5604,3.5504,3.5504,3.5504,3.5504,3.5504,3.5504,3.5504,3.5504,3.5504,3.5504,3.5504,3.5504,3.5504,3.5504,3.5504,3.5504,3.5504,3.5504,3.5504,3.5504,3.6028,3.6552,3.6746,3.7659,3.8467,3.8691,3.8208,3.7553,3.6972,3.5963,3.5032,3.4481,3.4314,3.4314,3.4397,3.423,3.4308,3.4685,3.453,3.5011,3.6332,3.6402,3.704,3.8397,3.8431,3.8717,3.9298,3.902,3.9203,3.9847,3.9481,3.9216,3.9229,3.9401,3.9485,0.0,0.0,0.0,2.9337,2.9931,3.0526,3.0526,0.0,3.0725,3.1427,0.0,0.0,0.0,0.0,0.0,0.0,0.0,0.0,0.0,0.0,0.0,0.0,0.0,0.0,0.0,0.0,0.0,0.0,3.1826,3.194,3.1799,3.2191,3.2398,3.2398,3.2398,3.2398,3.2398,3.2398,3.2398,3.2398,3.2398,3.2398,3.2398,3.2398,3.2342,3.2191,3.2342,3.2398,3.2444,3.3152,3.3713,3.427,3.479,3.5319,3.5688,3.5554,3.5504,3.5504,3.5504,3.5504,3.5504,3.5504,3.5504,3.5504,3.5504,3.5504,3.5504,3.5504,3.5504,3.5504,3.5504,3.5504,3.5504,3.5504,3.5504,3.5504,3.5504,3.6028,3.6656,3.727,3.7943,3.8631,3.9275,3.8008,3.6922,3.6894,3.5494,3.4481,3.4397,3.4243,3.416,3.4397,3.3992,3.4139,3.5161,3.4869,3.5285,3.6869,3.7077,3.7294,3.7926,3.7968,3.8144,3.8684,3.787,3.7857,3.8684,3.8684,3.8603,3.8359,3.8385,3.8801,2.9495,0.0,0.0,0.0,0.0,0.0,0.0,0.0,3.0725,3.1427,0.0,0.0,0.0,0.0,0.0,0.0,0.0,0.0,0.0,0.0,0.0,0.0,0.0,0.0,0.0,0.0,0.0,0.0,3.1712,3.1784,3.1597,3.1925,3.2191,3.2398,3.2398,3.2398,3.2398,3.2398,3.2342,3.2247,3.2342,3.2342,3.2247,3.2342,3.2398,3.2342,3.2398,3.2398,3.249,3.369,3.4217,3.4315,3.5307,3.5728,3.5688,3.5554,3.5504,3.5504,3.5504,3.5504,3.5504,3.5504,3.5504,3.5504,3.5504,3.5504,3.5504,3.5504,3.5504,3.5504,3.5504,3.5504,3.5504,3.5504,3.5504,3.5504,3.5504,3.6028,3.6537,3.6716,3.8033,3.8964,3.8522,3.856,3.8173,3.6674,3.636,3.5628,3.4121,3.3979,3.4076,3.3882,3.4183,3.4504,3.4757,3.5056,3.5686,3.6985,3.6739,3.697,3.7912,3.76,3.7445,3.7526,3.7278,3.7278,3.7526,3.7725,3.8039,3.8372,3.8994,3.9357,0.0,0.0,0.0,0.0,0.0,0.0,3.0526,3.0526,0.0,0.0,0.0,0.0,0.0,0.0,0.0,0.0,0.0,0.0,0.0,0.0,0.0,0.0,0.0,0.0,0.0,3.2986,3.2422,3.1582,3.167,3.1784,3.1712,3.1883,3.2094,3.2247,3.2342,3.2398,3.2342,3.2398,3.2342,3.2191,3.2342,3.2342,3.2191,3.2342,3.2398,3.2398,3.2398,3.2552,3.2906,3.4014,3.4401,3.4331,3.5505,3.5894,3.5688,3.5554,3.5504,3.5504,3.5504,3.5504,3.5504,3.5504,3.5504,3.5504,3.5504,3.5504,3.5504,3.5504,3.5504,3.5504,3.5504,3.5504,3.5504,3.5504,3.5504,3.5504,3.5504,3.6222,3.6866,3.6866,3.8018,3.8889,3.8713,3.8458,3.7919,3.6596,3.6122,3.5318,3.3882,3.381,3.3894,3.3725,3.4066,3.4525,3.493,3.529,3.59,3.7057,3.6616,3.673,3.7595,3.7113,3.6922,3.7108,3.7015,3.7036,3.7279,3.7561,3.7985,3.8684,3.8617,3.9018,0.0,0.0,0.0,0.0,0.0,0.0,3.0526,3.0526,3.0526,0.0,0.0,0.0,0.0,0.0,0.0,0.0,0.0,0.0,0.0,0.0,0.0,0.0,0.0,0.0,3.3443,3.3093,3.2477,3.1582,3.167,3.1841,3.1996,3.1996,3.1996,3.1996,3.2247,3.2342,3.2191,3.2342,3.2342,3.2191,3.2342,3.2342,3.2191,3.2342,3.2398,3.2398,3.2475,3.2844,3.346,3.426,3.4509,3.4378,3.5535,3.5894,3.5638,3.5554,3.5504,3.5504,3.5504,3.5504,3.5504,3.5504,3.5504,3.5504,3.5504,3.5504,3.5504,3.5504,3.5504,3.5504,3.5504,3.5504,3.5504,3.5504,3.5504,3.5504,3.5504,3.6507,3.7404,3.7404,3.8003,3.8691,3.9233,3.8069,3.6958,3.6568,3.5413,3.4384,3.3725,3.3641,3.3654,3.373,3.3908,3.4388,3.5302,3.5499,3.6029,3.6989,3.664,3.6546,3.7015,3.664,3.664,3.7015,3.6879,3.7089,3.7673,3.7852,3.8401,3.9158,3.7952,3.8246,0.0,0.0,0.0,0.0,0.0,0.0,3.0526,3.0526,3.0526,0.0,0.0,0.0,0.0,0.0,0.0,0.0,0.0,0.0,0.0,0.0,0.0,0.0,0.0,0.0,3.3339,3.3287,3.2772,3.1582,3.1539,3.1655,3.1841,3.194,3.1996,3.1996,3.2247,3.2342,3.2191,3.2342,3.2302,3.2038,3.2287,3.2287,3.2053,3.2302,3.2398,3.2428,3.2967,3.3275,3.3506,3.4768,3.5095,3.4912,3.5717,3.5797,3.5554,3.5504,3.5504,3.5504,3.5504,3.5504,3.5504,3.5504,3.5504,3.5504,3.5504,3.5504,3.5504,3.5504,3.5504,3.5504,3.5504,3.5504,3.5504,3.5504,3.5504,3.5504,3.5504,3.6507,3.7404,3.7404,3.8236,3.9013,3.9162,3.8782,3.7904,3.6253,3.5963,3.5251,3.3484,3.3398,3.3563,3.3858,3.4236,3.4788,3.5432,3.5974,3.6339,3.6546,3.6452,3.6452,3.6546,3.6452,3.6452,3.6546,3.6893,3.7396,3.795,3.8146,3.85,3.8982,3.9103,3.9365,0.0,0.0,0.0,3.1071,0.0,0.0,0.0,3.0526,3.0526,3.0526,3.0526,3.0526,3.0526,0.0,0.0,0.0,0.0,0.0,0.0,0.0,0.0,0.0,0.0,0.0,3.3255,3.3093,3.2571,3.1582,3.1482,3.1539,3.167,3.1883,3.194,3.1769,3.2176,3.2287,3.2094,3.2287,3.2247,3.1996,3.2287,3.2247,3.2012,3.264,3.2906,3.2936,3.3629,3.4121,3.4491,3.5123,3.5416,3.5503,3.5837,3.5861,3.5604,3.5489,3.5504,3.5504,3.5504,3.5504,3.5504,3.5504,3.5504,3.5504,3.5504,3.5504,3.5504,3.5504,3.5504,3.5504,3.5504,3.5504,3.5504,3.5504,3.5759,3.5908,3.5579,3.6761,3.7808,3.7342,3.827,3.9104,3.9104,3.8708,3.7782,3.6174,3.5722,3.5019,3.3326,3.3326,3.3528,3.3834,3.4399,3.4951,3.5491,3.6044,3.6358,3.6358,3.6358,3.6358,3.6358,3.6358,3.6496,3.6759,3.7048,3.76,3.8442,3.8541,3.8831,3.9295,3.9559,3.9697,0.0,0.0,0.0,0.0,0.0,3.1281,0.0,0.0,0.0,3.0526,3.0526,3.0526,3.0526,3.0526,0.0,0.0,0.0,0.0,0.0,0.0,0.0,0.0,0.0,0.0,0.0,3.2453,3.2023,3.1524,3.1482,3.1482,3.1482,3.1769,3.1826,3.1539,3.2079,3.2247,3.1996,3.2247,3.2247,3.1996,3.2369,3.243,3.2209,3.3135,3.3614,3.3644,3.4352,3.4968,3.5491,3.5416,3.566,3.5973,3.5973,3.5831,3.5638,3.5554,3.5504,3.5504,3.5504,3.5504,3.5504,3.5504,3.5504,3.5504,3.5504,3.5504,3.5504,3.5504,3.5504,3.5504,3.5504,3.5609,3.5684,3.5684,3.6193,3.6522,3.5983,3.7195,3.8102,3.7441,3.8216,3.9031,3.9031,3.8486,3.7553,3.6332,3.5561,3.4703,3.3484,3.3326,3.3455,3.3834,3.4399,3.4951,3.5491,3.6044,3.6358,3.6358,3.6358,3.6358,3.6358,3.6458,3.6734,3.7174,3.74,3.7965,3.8868,3.8981,3.9258,3.9697,3.9697,3.9697,0.0,0.0,0.0,0.0,3.2083,0.0,0.0,0.0,3.0526,3.0526,0.0,3.0526,3.0526,0.0,0.0,0.0,0.0,0.0,0.0,0.0,0.0,0.0,0.0,0.0,0.0,3.0983,3.0923,3.148,3.1482,3.1482,3.1482,3.1727,3.1727,3.1539,3.1966,3.2135,3.1996,3.2247,3.2247,3.1996,3.29,3.3135,3.2892,3.3722,3.4219,3.4383,3.4925,3.5262,3.5522,3.5906,3.6072,3.5973,3.5831,3.5653,3.5504,3.5504,3.5504,3.5504,3.5504,3.5504,3.5504,3.5504,3.5504,3.5504,3.5504,3.5504,3.5504,3.5504,3.5504,3.5504,3.5504,3.5938,3.6372,3.6372,3.6851,3.7285,3.721,3.7685,3.8109,3.8035,3.8455,3.8855,3.8855,3.8575,3.8113,3.7204,3.6174,3.5237,3.4384,3.3569,3.3368,3.3847,3.4399,3.4951,3.5491,3.6044,3.6358,3.6358,3.6358,3.6358,3.6358,3.6835,3.7123,3.7186,3.8165,3.8743,3.8868,3.9371,3.9634,3.9697,3.9697,3.9697,0.0,0.0,0.0,0.0,0.0,0.0,3.2288,0.0,3.1769,0.0,0.0,0.0,0.0,0.0,0.0,0.0,3.0129,0.0,0.0,0.0,0.0,0.0,0.0,0.0,0.0,0.0,0.0,0.0,3.0941,3.1106,3.1452,3.167,3.1727,3.1539,3.1981,3.215,3.1996,3.2191,3.239,3.2573,3.3062,3.3398,3.359,3.4424,3.491,3.5106,3.5569,3.5922,3.6091,3.6104,3.6022,3.5973,3.5653,3.5554,3.5504,3.5504,3.5504,3.5504,3.5504,3.5504,3.5504,3.5504,3.5504,3.5504,3.5504,3.5504,3.5504,3.5504,3.5504,3.5504,3.5504,3.5714,3.5923,3.5923,3.6402,3.6881,3.6881,3.755,3.8053,3.7982,3.8427,3.8723,3.8486,3.8501,3.8202,3.7155,3.6188,3.5305,3.4468,3.3654,3.3407,3.4286,3.4587,3.5077,3.5943,3.6219,3.6358,3.6358,3.6358,3.6358,3.6358,3.6885,3.7337,3.7651,3.8467,3.9032,3.9346,3.9584,3.9697,3.9697,3.9697,3.9697,3.4396,0.0,0.0,0.0,0.0,0.0,0.0,0.0,0.0,0.0,0.0,0.0,0.0,0.0,3.0394,0.0,0.0,3.0377,0.0,0.0,0.0,0.0,0.0,0.0,0.0,0.0,0.0,0.0,0.0,3.0717,3.1225,3.1564,3.167,3.1482,3.1868,3.2129,3.2197,3.2368,3.2703,3.3271,3.36,3.3951,3.4334,3.511,3.5615,3.5784,3.6059,3.6274,3.6492,3.6163,3.5973,3.5973,3.5619,3.5504,3.5504,3.5504,3.5504,3.5504,3.5504,3.5504,3.5504,3.5504,3.5504,3.5504,3.5504,3.5504,3.5504,3.5504,3.5504,3.5504,3.5504,3.5639,3.5774,3.5774,3.6267,3.6791,3.6971,3.761,3.8098,3.806,3.8399,3.8575,3.8277,3.8366,3.8127,3.7092,3.6201,3.5318,3.4481,3.3654,3.3432,3.4399,3.4625,3.5102,3.6056,3.627,3.6358,3.6358,3.6358,3.6433,3.6584,3.7111,3.7676,3.8228,3.8806,3.9295,3.9697,3.9697,3.9697,3.9697,3.9697,3.9772,0.0,0.0,0.0,3.4818,0.0,0.0,0.0,0.0,3.268,0.0,0.0,0.0,0.0,3.0981,3.0063,0.0,0.0,0.0,0.0,0.0,0.0,0.0,0.0,0.0,0.0,0.0,0.0,0.0,0.0,0.0,3.0537,3.1165,3.1539,3.1482,3.1727,3.2086,3.2688,3.2879,3.3287,3.3955,3.4775,3.5141,3.5187,3.5859,3.6305,3.6461,3.6274,3.6274,3.6492,3.6163,3.5973,3.5973,3.5619,3.5504,3.5504,3.5504,3.5504,3.5504,3.5504,3.5504,3.5504,3.5504,3.5504,3.5504,3.5504,3.5504,3.5504,3.5504,3.5504,3.5504,3.5504,3.5983,3.6447,3.6447,3.6926,3.7554,3.8197,3.8236,3.8231,3.8708,3.8634,3.8441,3.8202,3.8366,3.8127,3.7092,3.6215,3.5345,3.4481,3.3654,3.3294,3.3872,3.4399,3.4951,3.5516,3.6056,3.6358,3.6358,3.6358,3.6596,3.7136,3.7688,3.8253,3.8831,3.9383,3.9672,3.9697,3.9697,3.9697,3.9697,3.9697,3.9986,0.0,0.0,3.4739,3.4851,0.0,0.0,0.0,0.0,0.0,0.0,0.0,0.0,0.0,0.0,0.0,0.0,0.0,0.0,0.0,0.0,0.0,0.0,0.0,0.0,0.0,0.0,0.0,0.0,2.9535,0.0,0.0,3.1165,3.1482,3.1482,3.1727,3.2101,3.2704,3.2792,3.3351,3.4468,3.4865,3.5323,3.5765,3.6041,3.6274,3.6492,3.6274,3.6274,3.6289,3.61,3.5894,3.5767,3.5554,3.5504,3.5504,3.5504,3.5504,3.5504,3.5504,3.5504,3.5504,3.5504,3.5504,3.5504,3.5504,3.5504,3.5504,3.5504,3.5504,3.5609,3.6043,3.5998,3.5953,3.6387,3.6656,3.6971,3.7599,3.7797,3.8087,3.8664,3.8501,3.8277,3.8202,3.8277,3.8202,3.781,3.6517,3.5561,3.5237,3.4288,3.3834,3.4387,3.4939,3.5491,3.6044,3.6257,3.6358,3.6358,3.6358,3.6609,3.7161,3.7713,3.8278,3.8856,3.9421,3.9697,3.9697,3.9697,3.9697,3.9697,3.9697,3.9798,3.4739,3.4787,0.0,3.4899,3.4851,0.0,3.4899,0.0,0.0,0.0,0.0,0.0,0.0,0.0,0.0,0.0,0.0,0.0,0.0,3.0526,0.0,0.0,0.0,0.0,0.0,0.0,0.0,2.8203,2.9071,2.9759,0.0,0.0,3.1482,3.1482,3.1837,3.2315,3.2961,3.3201,3.3923,3.5148,3.5273,3.5626,3.6163,3.6289,3.6352,3.6492,3.6585,3.6631,3.6569,3.6616,3.6538,3.6337,3.6258,3.6211,3.6148,3.5683,3.5504,3.5504,3.5504,3.5504,3.5504,3.5504,3.5504,3.5504,3.5504,3.5504,3.5549,3.5789,3.5684,3.5654,3.6312,3.6178,3.5893,3.6088,3.6492,3.6926,3.7193,3.7649,3.8087,3.8591,3.8501,3.8277,3.8202,3.8202,3.7962,3.7386,3.6346,3.5453,3.5024,3.4328,3.4186,3.4939,3.5328,3.5768,3.632,3.6358,3.6358,3.6358,3.6546,3.691,3.745,3.8015,3.8668,3.9433,3.9609,3.9785,3.9986,3.9785,3.9697,3.9697,3.9898,3.9986]}]]